[[{"header":{"parameterUnit":"m.s-1","parameterCategory":1,"la1":30.6,"la2":28.766,"lo1":-90.7593,"lo2":-88.6598,"dy":0.0162,"dx":0.0183,"nx":116,"ny":114,"refTime":"2023-10-20T12:00:00:Z","depth":0,"parameterNumber":2,"parameterNumberName":"U-component_of_WINDS"},"data":[0.0,0.0,0.0,0.0,0.0,0.0,0.0,0.0,0.0,0.0,0.0,0.0,0.0,0.0,0.0,0.0,0.0,0.0,0.0,0.0,0.0,0.0,0.0,0.0,0.0,0.0,0.0,0.0,0.0,0.0,0.0,0.0,0.0,0.0,0.0,0.0,0.0,0.0,0.0,0.0,0.0,0.0,0.0,0.0,0.0,0.0,0.0,0.0,0.0,0.0,0.0,0.0,0.0,0.0,0.0,0.0,0.0,0.0,0.0,0.0,0.0,0.0,0.0,0.0,0.0,0.0,0.0,0.0,0.0,0.0,0.0,0.0,0.0,0.0,0.0,0.0,0.0,0.0,0.0,0.0,0.0,0.0,0.0,0.0,0.0,0.0,0.0,0.0,0.0,0.0,0.0,0.0,0.0,0.0,0.0,0.0,0.0,0.0,0.0,0.0,0.0,0.0,0.0,0.0,0.0,0.0,0.0,0.0,0.0,0.0,0.0,0.0,0.0,0.0,0.0,0.0,0.0,0.0,0.0,0.0,0.0,0.0,0.0,0.0,0.0,0.0,0.0,0.0,0.0,0.0,0.0,0.0,0.0,0.0,0.0,0.0,0.0,0.0,0.0,0.0,0.0,0.0,0.0,0.0,0.0,0.0,0.0,0.0,0.0,0.0,0.0,0.0,0.0,0.0,0.0,0.0,0.0,0.0,0.0,0.0,0.0,0.0,0.0,0.0,0.0,0.0,0.0,0.0,0.0,0.0,0.0,0.0,0.0,0.0,0.0,0.0,0.0,0.0,0.0,0.0,0.0,0.0,0.0,0.0,0.0,0.0,0.0,0.0,0.0,0.0,0.0,0.0,0.0,0.0,0.0,0.0,0.0,0.0,0.0,0.0,0.0,0.0,0.0,0.0,0.0,0.0,0.0,0.0,0.0,0.0,0.0,0.0,0.0,0.0,0.0,0.0,0.0,0.0,0.0,0.0,0.0,0.0,0.0,0.0,0.0,0.0,0.0,0.0,0.0,0.0,0.0,0.0,0.0,0.0,0.0,0.0,0.0,0.0,0.0,0.0,0.0,0.0,0.0,0.0,0.0,0.0,0.0,0.0,0.0,0.0,0.0,0.0,0.0,0.0,0.0,0.0,0.0,0.0,0.0,0.0,0.0,0.0,0.0,0.0,0.0,0.0,0.0,0.0,0.0,0.0,0.0,0.0,0.0,0.0,0.0,0.0,0.0,0.0,0.0,0.0,0.0,0.0,0.0,0.0,0.0,0.0,0.0,0.0,0.0,0.0,0.0,0.0,0.0,0.0,0.0,0.0,0.0,0.0,0.0,0.0,0.0,0.0,0.0,0.0,0.0,0.0,0.0,0.0,0.0,0.0,0.0,0.0,0.0,0.0,0.0,0.0,0.0,0.0,0.0,0.0,0.0,0.0,0.0,0.0,0.0,0.0,0.0,0.0,0.0,0.0,0.0,0.0,0.0,0.0,0.0,0.0,0.0,0.0,0.0,0.0,0.0,0.0,0.0,0.0,0.0,0.0,0.0,0.0,0.0,0.0,0.0,0.0,0.0,0.0,0.0,0.0,0.0,0.0,0.0,0.0,0.0,0.0,0.0,0.0,0.0,0.0,0.0,0.0,0.0,0.0,0.0,0.0,0.0,0.0,0.0,0.0,0.0,0.0,0.0,0.0,0.0,0.0,0.0,0.0,0.0,0.0,0.0,0.0,0.0,0.0,0.0,0.0,0.0,0.0,0.0,0.0,0.0,0.0,0.0,0.0,0.0,0.0,0.0,0.0,0.0,0.0,0.0,0.0,0.0,0.0,0.0,0.0,0.0,0.0,0.0,0.0,0.0,0.0,0.0,0.0,0.0,0.0,0.0,0.0,0.0,0.0,0.0,0.0,0.0,0.0,0.0,0.0,0.0,0.0,0.0,0.0,0.0,0.0,0.0,0.0,0.0,0.0,0.0,0.0,0.0,0.0,0.0,0.0,0.0,0.0,0.0,0.0,0.0,0.0,0.0,0.0,0.0,0.0,0.0,0.0,0.0,0.0,0.0,0.0,0.0,0.0,0.0,0.0,0.0,0.0,0.0,0.0,0.0,0.0,0.0,0.0,0.0,0.0,0.0,0.0,0.0,0.0,0.0,0.0,0.0,0.0,0.0,0.0,0.0,0.0,0.0,0.0,0.0,0.0,0.0,0.0,0.0,0.0,0.0,0.0,0.0,0.0,0.0,0.0,0.0,0.0,0.0,0.0,0.0,0.0,0.0,0.0,0.0,0.0,0.0,0.0,0.0,0.0,0.0,0.0,0.0,0.0,0.0,0.0,0.0,0.0,0.0,0.0,0.0,0.0,0.0,0.0,0.0,0.0,0.0,0.0,0.0,0.0,0.0,0.0,0.0,0.0,0.0,0.0,0.0,0.0,0.0,0.0,0.0,0.0,0.0,0.0,0.0,0.0,0.0,0.0,0.0,0.0,0.0,0.0,0.0,0.0,0.0,0.0,0.0,0.0,0.0,0.0,0.0,0.0,0.0,0.0,0.0,0.0,0.0,0.0,0.0,0.0,0.0,0.0,0.0,0.0,0.0,0.0,0.0,0.0,0.0,0.0,0.0,0.0,0.0,0.0,0.0,0.0,0.0,0.0,0.0,0.0,0.0,0.0,0.0,0.0,0.0,0.0,0.0,0.0,0.0,0.0,0.0,0.0,0.0,0.0,0.0,0.0,0.0,0.0,0.0,0.0,0.0,0.0,0.0,0.0,0.0,0.0,0.0,0.0,0.0,0.0,0.0,0.0,0.0,0.0,0.0,0.0,0.0,0.0,0.0,0.0,0.0,0.0,0.0,0.0,0.0,0.0,0.0,0.0,0.0,0.0,0.0,0.0,0.0,0.0,0.0,0.0,0.0,0.0,0.0,0.0,0.0,0.0,0.0,0.0,0.0,0.0,0.0,0.0,0.0,0.0,0.0,0.0,0.0,0.0,0.0,0.0,0.0,0.0,0.0,0.0,0.0,0.0,0.0,0.0,0.0,0.0,0.0,0.0,0.0,0.0,0.0,0.0,0.0,0.0,0.0,0.0,0.0,0.0,0.0,0.0,0.0,0.0,0.0,0.0,0.0,0.0,0.0,0.0,0.0,0.0,0.0,0.0,0.0,0.0,0.0,0.0,0.0,0.0,0.0,0.0,0.0,0.0,0.0,0.0,0.0,0.0,0.0,0.0,0.0,0.0,0.0,0.0,0.0,0.0,0.0,0.0,0.0,0.0,0.0,0.0,0.0,0.0,0.0,0.0,0.0,0.0,0.0,0.0,0.0,0.0,0.0,0.0,0.0,0.0,0.0,0.0,0.0,0.0,0.0,0.0,0.0,0.0,0.0,0.0,0.0,0.0,0.0,0.0,0.0,0.0,0.0,0.0,0.0,0.0,0.0,0.0,0.0,0.0,0.0,0.0,0.0,0.0,0.0,0.0,0.0,0.0,0.0,0.0,0.0,0.0,0.0,0.0,0.0,0.0,0.0,0.0,0.0,0.0,0.0,0.0,0.0,0.0,0.0,0.0,0.0,0.0,0.0,0.0,0.0,0.0,0.0,0.0,0.0,0.0,0.0,0.0,0.0,0.0,0.0,0.0,0.0,0.0,0.0,0.0,0.0,0.0,0.0,0.0,0.0,0.0,0.0,0.0,0.0,0.0,0.0,0.0,0.0,0.0,0.0,0.0,0.0,0.0,0.0,0.0,0.0,0.0,0.0,0.0,0.0,0.0,0.0,0.0,0.0,0.0,0.0,0.0,0.0,0.0,0.0,0.0,0.0,0.0,0.0,0.0,0.0,0.0,0.0,0.0,0.0,0.0,0.0,0.0,0.0,0.0,0.0,0.0,0.0,0.0,0.0,0.0,0.0,0.0,0.0,0.0,0.0,0.0,0.0,0.0,0.0,0.0,0.0,0.0,0.0,0.0,0.0,0.0,0.0,0.0,0.0,0.0,0.0,0.0,0.0,0.0,0.0,0.0,0.0,0.0,0.0,0.0,0.0,0.0,0.0,0.0,0.0,0.0,0.0,0.0,0.0,0.0,0.0,0.0,0.0,0.0,0.0,0.0,0.0,0.0,0.0,0.0,0.0,0.0,0.0,0.0,0.0,0.0,0.0,0.0,0.0,0.0,0.0,0.0,0.0,0.0,0.0,0.0,0.0,0.0,0.0,0.0,0.0,0.0,0.0,0.0,0.0,0.0,0.0,0.0,0.0,0.0,0.0,0.0,0.0,0.0,0.0,0.0,0.0,0.0,0.0,0.0,0.0,0.0,0.0,0.0,0.0,0.0,0.0,0.0,0.0,0.0,0.0,0.0,0.0,0.0,0.0,0.0,0.0,0.0,0.0,0.0,0.0,0.0,0.0,0.0,0.0,0.0,0.0,0.0,0.0,0.0,0.0,0.0,0.0,0.0,0.0,0.0,0.0,0.0,0.0,0.0,0.0,0.0,0.0,0.0,0.0,0.0,0.0,0.0,0.0,0.0,0.0,0.0,0.0,0.0,0.0,0.0,0.0,0.0,0.0,0.0,0.0,0.0,0.0,0.0,0.0,0.0,0.0,0.0,0.0,0.0,0.0,0.0,0.0,0.0,0.0,0.0,0.0,0.0,0.0,0.0,0.0,0.0,0.0,0.0,0.0,0.0,0.0,0.0,0.0,0.0,0.0,0.0,0.0,0.0,0.0,0.0,0.0,0.0,0.0,0.0,0.0,0.0,0.0,0.0,0.0,0.0,0.0,0.0,0.0,0.0,0.0,0.0,0.0,0.0,0.0,0.0,0.0,0.0,0.0,0.0,0.0,0.0,0.0,0.0,0.0,0.0,0.0,0.0,0.0,0.0,0.0,0.0,0.0,0.0,0.0,0.0,0.0,0.0,0.0,0.0,0.0,0.0,0.0,0.0,0.0,0.0,0.0,0.0,0.0,0.0,0.0,0.0,0.0,0.0,0.0,0.0,0.0,0.0,0.0,0.0,0.0,0.0,0.0,0.0,0.0,0.0,0.0,0.0,0.0,0.0,0.0,0.0,0.0,0.0,0.0,0.0,0.0,0.0,0.0,0.0,0.0,0.0,0.0,0.0,0.0,0.0,0.0,0.0,0.0,0.0,0.0,0.0,0.0,0.0,0.0,0.0,0.0,0.0,0.0,0.0,0.0,0.0,0.0,0.0,0.0,0.0,0.0,0.0,0.0,0.0,0.0,0.0,0.0,0.0,0.0,0.0,0.0,0.0,0.0,0.0,0.0,0.0,0.0,0.0,0.0,0.0,0.0,0.0,0.0,0.0,0.0,0.0,0.0,0.0,0.0,0.0,0.0,0.0,0.0,0.0,0.0,0.0,0.0,0.0,0.0,0.0,0.0,0.0,0.0,0.0,0.0,0.0,0.0,0.0,0.0,0.0,0.0,0.0,0.0,0.0,0.0,0.0,0.0,0.0,0.0,0.0,0.0,0.0,0.0,0.0,0.0,0.0,0.0,0.0,0.0,0.0,0.0,0.0,0.0,0.0,0.0,0.0,0.0,0.0,0.0,0.0,0.0,0.0,0.0,0.0,0.0,0.0,0.0,0.0,0.0,0.0,0.0,0.0,0.0,0.0,0.0,0.0,0.0,0.0,0.0,0.0,0.0,0.0,0.0,0.0,0.0,0.0,0.0,0.0,0.0,0.0,0.0,0.0,0.0,0.0,0.0,0.0,0.0,0.0,0.0,0.0,0.0,0.0,0.0,0.0,0.0,0.0,0.0,0.0,0.0,0.0,0.0,0.0,0.0,0.0,0.0,0.0,0.0,0.0,0.0,0.0,0.0,0.0,0.0,0.0,0.0,0.0,0.0,0.0,0.0,0.0,0.0,0.0,0.0,0.0,0.0,0.0,0.0,0.0,0.0,0.0,0.0,0.0,0.0,0.0,0.0,0.0,0.0,0.0,0.0,0.0,0.0,0.0,0.0,0.0,0.0,0.0,0.0,0.0,0.0,0.0,0.0,0.0,0.0,0.0,0.0,0.0,0.0,0.0,0.0,0.0,0.0,0.0,0.0,0.0,0.0,0.0,0.0,0.0,0.0,0.0,0.0,0.0,0.0,0.0,0.0,0.0,-2.4605,-2.4309,0.0,0.0,0.0,0.0,0.0,0.0,0.0,0.0,0.0,0.0,0.0,0.0,0.0,0.0,0.0,0.0,0.0,0.0,0.0,0.0,0.0,0.0,0.0,0.0,0.0,0.0,0.0,0.0,0.0,0.0,0.0,0.0,0.0,0.0,0.0,0.0,0.0,-3.1655,-3.1258,-3.058,-2.954,-3.0466,-3.1387,-3.2155,0.0,0.0,0.0,0.0,0.0,0.0,0.0,0.0,0.0,0.0,0.0,0.0,0.0,0.0,0.0,0.0,0.0,0.0,0.0,0.0,0.0,0.0,0.0,0.0,0.0,0.0,0.0,0.0,0.0,0.0,0.0,0.0,0.0,0.0,0.0,0.0,0.0,0.0,0.0,0.0,0.0,0.0,0.0,0.0,0.0,0.0,0.0,0.0,0.0,0.0,0.0,0.0,0.0,0.0,0.0,0.0,0.0,0.0,0.0,0.0,0.0,0.0,0.0,0.0,0.0,0.0,0.0,0.0,0.0,0.0,-2.4249,-2.4182,0.0,0.0,0.0,0.0,0.0,0.0,0.0,0.0,0.0,0.0,0.0,0.0,0.0,0.0,0.0,0.0,0.0,0.0,0.0,0.0,0.0,0.0,0.0,-2.7965,-2.8046,-2.8541,-2.8402,-2.853,0.0,0.0,0.0,0.0,0.0,0.0,-2.9212,-2.9162,-2.913,-2.913,-2.85,-2.8024,-2.7799,-2.7734,-2.8492,-2.9977,-3.1707,0.0,0.0,0.0,0.0,0.0,0.0,0.0,0.0,0.0,0.0,0.0,0.0,0.0,0.0,0.0,0.0,0.0,0.0,0.0,0.0,0.0,0.0,0.0,0.0,0.0,0.0,0.0,0.0,0.0,0.0,0.0,0.0,0.0,0.0,0.0,0.0,0.0,0.0,0.0,0.0,0.0,0.0,0.0,0.0,0.0,0.0,0.0,0.0,0.0,0.0,0.0,0.0,0.0,0.0,0.0,0.0,0.0,0.0,0.0,0.0,0.0,0.0,0.0,-2.4636,-2.4636,-2.4636,-2.4636,-2.4636,-2.4636,-2.4636,-2.4636,-2.4636,-2.4636,0.0,0.0,0.0,0.0,0.0,0.0,0.0,0.0,0.0,0.0,0.0,0.0,0.0,0.0,0.0,0.0,0.0,0.0,0.0,0.0,0.0,-2.7055,-2.6904,-2.8423,-2.7755,-2.7904,-2.949,0.0,0.0,0.0,0.0,0.0,-3.009,-2.9794,-2.9629,-2.9629,-2.7398,-2.6322,-2.6277,-2.5989,-2.5972,-2.6306,-2.8098,-2.8886,-2.8886,0.0,0.0,0.0,0.0,0.0,0.0,0.0,0.0,0.0,0.0,0.0,0.0,0.0,0.0,0.0,0.0,0.0,0.0,0.0,0.0,0.0,0.0,0.0,0.0,0.0,0.0,0.0,0.0,0.0,0.0,0.0,0.0,0.0,0.0,0.0,0.0,0.0,0.0,0.0,0.0,0.0,-2.5272,-2.4991,0.0,0.0,0.0,0.0,0.0,0.0,0.0,0.0,0.0,0.0,0.0,0.0,0.0,-2.4636,-2.4636,-2.4636,-2.4636,-2.4636,-2.4636,-2.4636,-2.4636,-2.4636,-2.4636,-2.4636,-2.4636,0.0,-2.4636,-2.4636,0.0,0.0,0.0,0.0,0.0,0.0,0.0,0.0,0.0,0.0,0.0,0.0,0.0,0.0,0.0,0.0,0.0,0.0,0.0,0.0,0.0,-2.4868,-2.4943,-2.6058,-2.5712,-2.5812,-2.6763,-2.6982,0.0,0.0,0.0,-2.7128,-2.7128,-2.6908,-2.6761,-2.6585,-2.5541,-2.4904,-2.4736,-2.4595,-2.4427,-2.4327,-2.5066,-2.6439,-2.8163,-2.8163,0.0,0.0,0.0,0.0,0.0,0.0,0.0,0.0,0.0,0.0,0.0,0.0,0.0,0.0,0.0,0.0,0.0,0.0,0.0,0.0,0.0,0.0,0.0,0.0,0.0,0.0,0.0,0.0,0.0,0.0,0.0,0.0,0.0,0.0,0.0,0.0,0.0,0.0,0.0,-2.4636,-2.4636,-2.4636,-2.4636,-2.4636,0.0,0.0,0.0,0.0,0.0,0.0,0.0,0.0,0.0,-2.4636,-2.4636,-2.4636,-2.4636,-2.4636,-2.4636,-2.4636,-2.4636,-2.4636,-2.4636,-2.4636,-2.4636,-2.4562,-2.3413,-2.2893,-2.2967,-2.4105,-2.4636,-2.4636,0.0,0.0,0.0,0.0,-2.2893,-2.2657,0.0,0.0,0.0,0.0,0.0,0.0,0.0,0.0,0.0,0.0,0.0,0.0,-2.3287,-2.3394,-2.3647,-2.4155,-2.4275,-2.4409,-2.4623,-2.4636,-2.4636,-2.4636,-2.4636,-2.4636,-2.4636,-2.4636,-2.4529,-2.4315,-2.4235,-2.4088,-2.3875,-2.3808,-2.3647,-2.3447,-2.3447,-2.4716,-2.6839,-2.6839,-2.6839,-2.6839,0.0,0.0,0.0,0.0,0.0,0.0,0.0,0.0,0.0,0.0,0.0,0.0,0.0,0.0,0.0,0.0,0.0,0.0,0.0,0.0,0.0,0.0,0.0,0.0,0.0,0.0,0.0,0.0,0.0,0.0,0.0,0.0,0.0,0.0,0.0,0.0,0.0,-2.4636,-2.4636,-2.4636,-2.4636,-2.4636,0.0,0.0,0.0,0.0,0.0,0.0,-2.3116,-2.3104,-2.3142,-2.3142,-2.313,-2.3167,-2.3167,-2.3167,-2.3167,-2.3167,-2.3167,-2.3167,-2.3167,-2.3167,-2.3167,-2.3092,-2.1563,-2.0947,-2.1023,-2.2483,-2.3042,-2.3042,-2.3042,-2.3042,-2.2893,-2.1365,-2.0841,-2.0542,0.0,0.0,0.0,0.0,0.0,0.0,0.0,0.0,0.0,0.0,0.0,-2.2979,-2.3287,-2.3581,-2.3875,-2.4182,-2.4449,-2.4623,-2.4636,-2.4636,-2.4636,-2.4636,-2.4636,-2.4636,-2.4636,-2.4636,-2.4549,-2.4609,-2.4342,-2.4195,-2.4168,-2.3901,-2.3768,-2.3754,-2.3754,-2.3561,-2.3201,-2.3201,-2.3201,-2.3201,-2.3201,0.0,0.0,0.0,0.0,0.0,0.0,0.0,0.0,0.0,0.0,0.0,0.0,0.0,0.0,0.0,0.0,0.0,0.0,0.0,0.0,0.0,0.0,0.0,0.0,0.0,0.0,0.0,0.0,0.0,0.0,0.0,0.0,0.0,0.0,0.0,0.0,0.0,0.0,-2.4636,-2.4636,0.0,0.0,0.0,0.0,-2.19,-2.1751,-2.0916,-1.9025,-1.9004,-1.9126,-1.9126,-1.9243,-1.9267,-1.9267,-1.9267,-1.9267,-1.9267,-1.9267,-1.9267,-1.9267,-1.9267,-1.9267,-1.9267,-1.9189,-1.9111,-1.9159,-1.8973,-1.8874,-1.8874,-1.8874,-1.8874,-1.8874,-1.8799,-1.8723,-1.8421,0.0,0.0,0.0,0.0,0.0,0.0,0.0,0.0,-2.2928,-2.2928,-2.1899,-2.1331,-2.1613,-2.0703,-2.0286,-2.0534,-2.1853,-2.2124,-2.0841,-2.319,-2.4031,-2.2732,-2.387,-2.4636,-2.4636,-2.4636,-2.4636,-2.4636,-2.4529,-2.4476,-2.4476,-2.4382,-2.4222,-2.4048,-2.4048,-2.3821,-2.3447,-2.3447,-2.3447,-2.3447,-2.3447,-2.3447,0.0,0.0,0.0,0.0,0.0,0.0,0.0,0.0,0.0,0.0,0.0,0.0,0.0,0.0,0.0,0.0,0.0,0.0,0.0,0.0,0.0,0.0,0.0,0.0,0.0,0.0,0.0,0.0,0.0,0.0,0.0,0.0,0.0,0.0,0.0,0.0,0.0,-2.0916,-2.0827,0.0,-2.0852,-2.091,-2.0693,-2.0,-1.9913,-1.9604,-1.8909,-1.8912,-1.8952,-1.8952,-1.8955,-1.8984,-1.8984,-1.8984,-1.8984,-1.8984,-1.8984,-1.8984,-1.8984,-1.8984,-1.8984,-1.8906,-1.7659,-1.7108,-1.6941,-1.5569,-1.652,-1.8822,-1.8768,-1.8718,-1.8545,-1.7102,-1.6599,-1.6294,0.0,0.0,0.0,0.0,0.0,0.0,0.0,0.0,-2.1953,-2.1953,-2.0426,-1.9464,-1.9709,-1.877,-1.8255,-1.8552,-1.9779,-2.0005,-1.8723,-2.1066,-2.1975,-2.0617,-2.1826,-2.2583,-2.2583,-2.3264,-2.3574,-2.3574,-2.4253,-2.4636,-2.4636,-2.4636,-2.4529,-2.4342,-2.4342,-2.4249,-2.4062,-2.4062,-2.3955,-2.3768,-2.3768,-2.3768,-2.3781,0.0,0.0,0.0,0.0,0.0,0.0,0.0,0.0,0.0,0.0,0.0,0.0,0.0,0.0,0.0,0.0,0.0,0.0,0.0,0.0,0.0,0.0,0.0,0.0,0.0,0.0,0.0,0.0,0.0,0.0,0.0,0.0,0.0,0.0,-2.0801,-2.0244,-1.8871,-1.8849,-1.8862,-1.8862,-1.8983,-1.8759,-1.8053,-1.7974,-1.7659,-1.7038,-1.7021,-1.7057,-1.7057,-1.7119,-1.7075,-1.7075,-1.7075,-1.7075,-1.7075,-1.7075,-1.7075,-1.7075,-1.7075,-1.7075,-1.7075,-1.5722,-1.5088,-1.5015,-1.3665,-1.47,-1.7128,-1.6879,-1.685,-1.6685,-1.5163,-1.4656,-1.4501,0.0,0.0,0.0,0.0,0.0,0.0,0.0,-2.1321,-2.0132,-2.0144,-1.8513,-1.7518,-1.7812,-1.7896,-1.8041,-1.8401,-1.8497,-1.8497,-1.8421,-1.8497,-1.8572,-1.8572,-1.8572,-1.8572,-1.8572,-2.0542,-2.1527,-2.1527,-2.35,-2.4488,-2.4488,-2.4562,-2.4636,-2.4636,-2.4636,-2.4636,-2.4636,-2.4636,-2.4315,-2.3794,-2.3794,-2.3794,-2.3834,0.0,0.0,0.0,0.0,0.0,0.0,0.0,0.0,0.0,0.0,0.0,0.0,0.0,0.0,0.0,0.0,0.0,0.0,0.0,0.0,0.0,0.0,0.0,0.0,0.0,0.0,0.0,0.0,0.0,0.0,0.0,0.0,0.0,-1.8926,-1.8916,-1.8906,-1.8828,-1.8838,-1.8838,-1.8838,-1.8848,-1.7993,-1.6106,-1.5948,-1.509,-1.3137,-1.3105,-1.318,-1.318,-1.3322,-1.3403,-1.3403,-1.3403,-1.3403,-1.3403,-1.3403,-1.3403,-1.3403,-1.3403,-1.3403,-1.3403,-1.3403,-1.3403,-1.3403,-1.3403,-1.3403,-1.337,-1.3078,-1.305,-1.305,-1.2963,-1.2963,-1.2963,0.0,0.0,0.0,0.0,0.0,0.0,-2.2928,-2.1321,-2.0121,-2.0251,-1.7529,-1.5709,-1.583,-1.4749,-1.4045,-1.4168,-1.554,-1.5693,-1.4253,-1.698,-1.8572,-1.8572,-1.8572,-1.8572,-1.8572,-1.9176,-1.9403,-1.9403,-2.144,-2.2434,-2.2434,-2.3944,-2.4636,-2.4636,-2.4636,-2.4636,-2.4636,-2.4636,-2.4543,-2.4396,-2.4396,-2.4396,-2.4409,0.0,0.0,0.0,0.0,0.0,0.0,0.0,0.0,0.0,0.0,0.0,0.0,0.0,0.0,0.0,0.0,0.0,0.0,0.0,0.0,0.0,0.0,0.0,0.0,0.0,0.0,0.0,0.0,0.0,0.0,0.0,-1.7332,-1.7252,-1.7119,-1.6969,-1.6247,-1.4844,-1.4712,-1.4781,-1.4781,-1.4896,-1.4727,-1.4162,-1.4081,-1.3842,-1.3363,-1.3315,-1.3336,-1.3336,-1.3376,-1.3403,-1.3403,-1.3403,-1.3403,-1.3403,-1.3403,-1.3403,-1.3403,-1.3403,-1.3403,-1.3403,-1.3403,-1.3403,-1.3403,-1.3403,-1.3403,-1.3383,-1.3193,-1.3112,-1.3105,-1.3003,-1.2963,-1.2963,0.0,0.0,0.0,0.0,0.0,0.0,-2.2928,-2.0617,-1.8957,-1.9118,-1.5958,-1.3811,-1.3906,-1.3096,-1.2501,-1.2501,-1.3568,-1.3722,-1.2579,-1.4705,-1.6074,-1.6074,-1.6074,-1.6074,-1.6074,-1.6904,-1.7284,-1.7284,-1.9327,-2.0316,-2.0391,-2.1527,-2.2049,-2.2049,-2.2049,-2.2583,-2.3339,-2.3339,-2.3796,-2.4636,-2.4636,-2.4636,-2.4636,-2.4636,-2.4636,-2.4636,-2.4636,-2.4636,-2.4636,-2.4636,0.0,0.0,0.0,0.0,0.0,0.0,0.0,0.0,0.0,0.0,0.0,0.0,0.0,0.0,0.0,0.0,0.0,0.0,0.0,0.0,0.0,0.0,0.0,0.0,-1.5267,-1.5236,-1.5143,-1.5043,-1.4496,-1.3308,-1.322,-1.3268,-1.3268,-1.3349,-1.3403,-1.3403,-1.3403,-1.3403,-1.3403,-1.3403,-1.3403,-1.3403,-1.3403,-1.3403,-1.3403,-1.3403,-1.3403,-1.3403,-1.3403,-1.3403,-1.3403,-1.3403,-1.3403,-1.3403,-1.3403,-1.3403,-1.3403,-1.3403,-1.3403,-1.339,0.0,0.0,0.0,0.0,-1.3146,-1.3146,0.0,0.0,0.0,0.0,0.0,0.0,-2.2928,-1.9634,-1.7258,-1.747,-1.4367,-1.2121,-1.2271,-1.242,-1.2501,-1.2501,-1.2501,-1.2501,-1.2501,-1.2501,-1.2501,-1.2501,-1.2501,-1.2501,-1.2501,-1.4253,-1.5157,-1.5157,-1.7208,-1.827,-1.827,-1.8497,-1.8572,-1.8572,-1.8572,-1.9553,-2.1291,-2.1291,-2.2285,-2.3957,-2.4179,-2.4401,-2.4636,-2.4636,-2.4636,-2.4636,-2.4636,-2.4636,-2.4636,-2.4636,0.0,0.0,0.0,0.0,0.0,0.0,0.0,0.0,0.0,0.0,0.0,0.0,0.0,0.0,0.0,0.0,0.0,0.0,0.0,0.0,0.0,0.0,0.0,0.0,-1.3403,-1.3403,-1.3403,-1.3403,-1.3403,-1.3403,-1.3403,-1.3403,-1.3403,-1.3403,-1.3403,-1.3403,-1.3403,-1.3403,-1.3403,-1.3403,0.0,0.0,0.0,-1.3403,-1.3403,-1.3403,-1.3403,-1.3403,-1.3403,-1.3403,-1.3403,-1.3403,-1.3403,-1.3403,-1.3403,-1.3403,-1.3403,-1.3403,-1.3403,-1.3403,-1.3403,-1.3403,-1.3403,-1.3403,-1.3403,-1.3403,0.0,0.0,0.0,0.0,0.0,0.0,-2.2928,-1.9634,-1.7258,-1.747,-1.4367,-1.2121,-1.2271,-1.242,-1.2501,-1.2501,-1.2501,-1.2501,-1.2501,-1.2501,-1.2501,-1.2501,-1.2501,-1.2501,-1.2501,-1.2881,-1.3112,-1.3112,-1.5089,-1.6074,-1.6151,-1.7815,-1.8572,-1.8572,-1.8572,-1.8799,-1.9176,-1.9176,-1.9403,-1.993,-2.1527,-2.3116,-2.4636,-2.4636,-2.4636,-2.4636,-2.4636,-2.4636,-2.4636,-2.4636,-2.4636,-2.4636,-2.4636,-2.4636,0.0,0.0,0.0,0.0,0.0,0.0,0.0,0.0,0.0,0.0,0.0,0.0,0.0,0.0,0.0,0.0,0.0,0.0,0.0,-1.348,-1.3403,-1.3403,-1.3403,-1.3403,-1.3403,-1.3403,-1.3403,-1.3403,-1.3403,-1.3403,-1.3403,-1.3403,-1.3403,-1.3403,-1.3403,-1.3403,-1.3403,-1.3403,-1.3403,-1.3403,-1.3403,-1.3403,-1.3403,-1.3403,-1.3403,0.0,-1.3403,-1.3403,-1.3403,-1.3403,-1.3403,-1.3403,-1.3403,-1.3403,-1.3403,-1.3403,-1.3403,-1.3403,-1.3403,-1.3403,-1.3403,-1.3403,0.0,0.0,0.0,0.0,0.0,0.0,-2.2928,-1.9634,-1.7258,-1.747,-1.4367,-1.2121,-1.2271,-1.242,-1.2501,-1.2501,-1.2501,-1.2501,-1.2501,-1.2501,-1.2501,-1.2501,-1.2501,-1.2501,-1.2501,-1.2501,-1.2501,-1.2501,-1.3491,-1.4022,-1.4022,-1.5089,-1.554,-1.554,-1.554,-1.6151,-1.7056,-1.7056,-1.7663,-1.8723,-1.9704,-2.0692,-2.1826,-2.3796,-2.4636,-2.4636,-2.4636,-2.4636,-2.4636,-2.4636,-2.4636,-2.4414,-2.3426,-2.3116,-2.2968,0.0,0.0,0.0,0.0,0.0,0.0,0.0,0.0,0.0,0.0,0.0,0.0,0.0,0.0,-1.3403,-1.3403,0.0,-1.3403,-1.3403,-1.3403,-1.3403,-1.3403,-1.3403,-1.3403,-1.3403,-1.3403,-1.3403,-1.3403,-1.3403,-1.3403,-1.3403,-1.3403,-1.3403,-1.3403,-1.3403,-1.3403,-1.3403,-1.3403,-1.3437,-1.3512,-1.3512,-1.3553,-1.362,-1.362,-1.362,-1.362,-1.362,-1.362,-1.362,-1.362,-1.362,-1.362,-1.362,-1.362,-1.362,-1.362,-1.3532,-1.3403,-1.3403,-1.3403,-1.341,0.0,0.0,0.0,0.0,0.0,0.0,0.0,-1.9982,-1.7661,-1.749,-1.4635,-1.255,-1.2306,-1.24,-1.2501,-1.2501,-1.2501,-1.2501,-1.2501,-1.2501,-1.2501,-1.2501,-1.2501,-1.2501,-1.2501,-1.2501,-1.2501,-1.2501,-1.2501,-1.2501,-1.2501,-1.2501,-1.2501,-1.2501,-1.2501,-1.3414,-1.4935,-1.4935,-1.5845,-1.7436,-1.7815,-1.7967,-1.8421,-2.2049,-2.3413,-2.3413,-2.3413,-2.3413,-2.3413,-2.3413,-2.3413,-2.3116,-2.1527,-2.0991,-2.0782,-1.9574,-1.924,0.0,0.0,0.0,0.0,0.0,0.0,0.0,0.0,-1.3403,-1.3403,-1.3403,-1.3403,-1.3403,-1.3403,-1.3403,-1.3403,-1.3403,-1.3403,-1.3403,-1.3403,-1.3403,-1.3403,-1.3403,-1.3403,-1.3403,-1.3403,-1.3403,-1.3403,-1.3403,-1.3403,-1.3403,-1.3403,-1.3431,-1.3444,-1.3444,-1.3471,-1.3546,-1.3668,-1.3668,-1.3729,-1.3838,-1.3838,-1.3838,-1.3838,-1.3838,-1.3838,-1.3838,-1.3838,-1.3838,-1.3838,-1.3838,-1.3838,-1.3838,-1.3838,-1.3695,-1.3485,-1.3485,-1.3485,-1.3505,0.0,0.0,0.0,0.0,0.0,0.0,0.0,0.0,-1.9158,-1.7429,-1.5705,-1.3972,-1.2305,-1.2332,-1.2501,-1.2501,-1.2501,-1.2501,-1.2501,-1.2501,-1.2501,-1.2501,-1.2501,-1.2501,-1.2501,-1.2501,-1.2501,-1.2501,-1.2501,-1.2501,-1.2501,-1.2501,-1.2501,-1.2501,-1.2501,-1.2656,-1.2804,-1.2804,-1.2958,-1.3337,-1.5157,-1.5845,-1.6074,-1.8421,-1.9252,-1.9252,-1.9252,-1.9252,-1.9252,-1.9252,-1.9252,-1.9252,-1.9025,-1.895,-1.8967,-1.9186,-1.924,-1.8858,-1.7359,-1.5597,-1.4052,-1.3804,-1.3562,-1.3403,0.0,-1.3403,-1.3403,-1.3403,-1.3403,-1.3403,-1.3403,-1.3403,-1.3403,-1.3403,-1.3403,-1.3403,-1.3403,-1.3403,-1.3403,-1.3403,-1.3403,-1.3403,-1.3403,-1.3403,-1.3403,-1.3403,-1.3403,-1.3403,-1.3403,-1.3532,-1.36,-1.36,-1.3729,-1.3797,-1.3817,-1.3817,-1.3824,-1.3838,-1.3838,-1.3838,-1.3838,-1.3838,-1.3838,-1.3838,-1.3838,-1.3838,-1.3838,-1.3838,-1.3838,-1.3838,-1.3838,-1.3824,-1.379,-1.379,-1.379,-1.379,0.0,0.0,0.0,0.0,0.0,0.0,0.0,0.0,0.0,-1.9008,-1.756,-1.5929,-1.3964,-1.2996,-1.2501,-1.2501,-1.2501,-1.2501,-1.2501,-1.2501,-1.2501,-1.2501,-1.2501,-1.2501,-1.2501,-1.2501,-1.2501,-1.2501,-1.2501,-1.2501,-1.2501,-1.2501,-1.2501,-1.2501,-1.2501,-1.2501,-1.2501,-1.2501,-1.2501,-1.2579,-1.3414,-1.3722,-1.3868,-1.4705,-1.5089,-1.5387,-1.7739,-1.8572,0.0,-1.8572,-1.8572,-1.8421,-1.7208,-1.691,-1.6757,-1.5872,-1.5624,-1.5602,-1.4877,-1.4052,-1.3403,-1.3403,-1.3403,-1.3403,-1.3403,-1.3403,-1.3403,-1.3403,-1.3403,-1.3403,-1.3403,-1.3403,-1.3403,-1.3403,-1.3403,-1.3403,-1.3403,-1.3403,-1.3403,-1.3403,-1.3478,-1.3498,-1.341,-1.3403,-1.3437,-1.3526,-1.3532,-1.3566,-1.3654,-1.3715,-1.3749,-1.3749,-1.381,-1.3885,-1.3973,-1.3973,-1.4021,-1.4109,-1.4109,-1.4109,-1.4109,-1.4109,-1.4109,-1.4109,-1.4109,-1.4109,-1.4109,-1.4109,-1.4109,-1.4109,-1.4109,-1.4109,-1.4089,-1.3905,-1.3838,-1.3851,0.0,0.0,0.0,0.0,0.0,0.0,0.0,0.0,0.0,0.0,-1.9222,-1.7636,-1.5197,-1.3999,-1.3112,-1.2579,-1.2501,-1.2501,-1.2501,-1.2501,-1.2501,-1.2501,-1.2501,-1.2501,-1.2501,-1.2501,-1.2501,-1.2501,-1.2501,-1.2501,-1.2501,-1.2501,-1.2501,-1.2501,-1.2501,-1.2501,-1.2501,-1.2501,-1.2501,-1.2501,-1.2501,-1.2501,-1.2501,-1.2501,-1.2501,-1.2881,-1.5845,-1.6904,-1.6904,-1.6904,-1.6904,-1.6684,-1.5223,-1.4796,-1.4712,-1.3436,-1.3119,-1.3261,-1.337,-1.3403,-1.3403,-1.3403,-1.3403,-1.3403,-1.3403,-1.3403,-1.3403,-1.3403,-1.3403,-1.3403,-1.3403,-1.3403,-1.3403,-1.3403,-1.3403,-1.3403,-1.3403,-1.3437,-1.3464,-1.3464,-1.3593,-1.3641,-1.3532,-1.3519,-1.3566,-1.3682,-1.3688,-1.3736,-1.3752,-1.3878,-1.3905,-1.3905,-1.3946,-1.4021,-1.4136,-1.4136,-1.419,-1.4299,-1.4299,-1.4299,-1.4299,-1.4299,-1.4299,-1.4299,-1.4299,-1.4299,-1.4299,-1.4299,-1.4299,-1.4299,-1.4299,-1.4299,-1.4272,-1.4048,-1.3966,-1.3987,0.0,0.0,0.0,0.0,0.0,0.0,0.0,0.0,0.0,0.0,0.0,0.0,0.0,-1.5278,-1.4629,-1.2656,-1.2501,-1.2501,-1.2501,-1.2501,-1.2501,-1.2501,-1.2501,-1.2501,-1.2501,-1.2501,-1.2501,-1.2501,-1.2501,-1.2501,-1.2501,-1.2501,-1.2501,-1.2501,-1.2501,-1.2501,-1.2501,-1.2501,-1.2501,-1.2501,-1.2501,-1.2501,-1.2501,-1.2501,-1.2501,-1.2501,-1.2656,-1.2656,-1.2656,-1.2656,-1.2656,-1.2677,-1.2749,-1.2804,-1.2865,-1.3159,-1.3275,-1.3397,-1.3397,-1.3403,-1.3403,-1.3403,-1.3403,-1.3403,-1.3403,-1.3403,-1.3403,-1.3403,-1.3403,-1.3403,-1.3403,-1.3403,-1.3403,-1.3403,-1.3403,-1.3403,-1.3403,-1.3532,-1.362,-1.362,-1.3749,-1.3831,-1.3831,-1.3824,-1.3831,-1.3745,-1.3745,-1.3838,-1.3838,-1.398,-1.4061,-1.4061,-1.4211,-1.4285,-1.4292,-1.4292,-1.4292,-1.4299,-1.4299,-1.4299,-1.4299,-1.4299,-1.4299,-1.4299,-1.4299,-1.4299,-1.4299,-1.4299,-1.4299,-1.4299,-1.4299,-1.4299,-1.4299,-1.4292,-1.4285,-1.4285,0.0,0.0,0.0,0.0,0.0,0.0,0.0,0.0,0.0,0.0,0.0,0.0,0.0,0.0,0.0,0.0,-1.4475,-1.3945,-1.2579,-1.2501,-1.2501,-1.2501,-1.2501,-1.2501,-1.2501,-1.2501,-1.2501,-1.2501,-1.2501,-1.2501,-1.2501,-1.2501,-1.2501,-1.2501,-1.2501,-1.2501,-1.2501,-1.2501,-1.2501,-1.2501,-1.2501,-1.2501,-1.2501,-1.2501,-1.2501,-1.2501,0.0,-1.2501,-1.2501,-1.2501,-1.2501,-1.2528,-1.2684,-1.28,-1.2942,-1.3234,-1.3363,-1.3403,-1.3403,-1.3403,-1.3403,-1.3403,-1.3403,-1.3403,-1.3403,-1.3403,-1.3403,-1.3403,-1.3403,-1.3403,-1.3403,-1.3403,-1.3403,-1.3403,-1.3485,-1.3553,-1.3553,-1.3675,-1.377,-1.377,-1.3905,-1.3994,-1.3994,-1.3899,-1.3885,-1.3987,-1.3994,-1.4034,-1.4136,-1.4197,-1.4224,-1.4224,-1.4272,-1.4299,-1.4299,-1.4299,-1.4299,-1.4299,-1.4299,-1.4299,-1.4306,-1.4394,-1.4441,-1.4448,-1.455,-1.459,-1.459,-1.459,-1.459,-1.459,-1.459,-1.459,-1.459,-1.459,-1.459,-1.4577,0.0,0.0,0.0,0.0,0.0,0.0,0.0,0.0,0.0,0.0,0.0,0.0,0.0,0.0,0.0,0.0,0.0,-1.5624,-1.3714,-1.3568,-1.3259,-1.2501,-1.2501,-1.2501,-1.2501,-1.2501,-1.2501,-1.2501,-1.2501,-1.2501,-1.2501,-1.2501,-1.2501,-1.2501,-1.2501,-1.2501,-1.2501,-1.2501,-1.2501,-1.2501,-1.2501,-1.2501,-1.2501,-1.2501,-1.2501,0.0,-1.2501,-1.2501,-1.2501,-1.2501,-1.2501,-1.2542,-1.2745,-1.2956,-1.3152,-1.3342,-1.3403,-1.3403,-1.3403,-1.3403,-1.3403,-1.3403,-1.3403,-1.3403,-1.3403,-1.3403,-1.3403,-1.3403,-1.3403,-1.3417,-1.3471,-1.3437,-1.3437,-1.3539,-1.36,-1.3648,-1.3695,-1.3831,-1.3926,-1.3926,-1.4061,-1.415,-1.415,-1.4061,-1.4048,-1.4143,-1.415,-1.4197,-1.4292,-1.4299,-1.4299,-1.4299,-1.4299,-1.4299,-1.4299,-1.4299,-1.4326,-1.4373,-1.4373,-1.4407,-1.4462,-1.455,-1.459,-1.4597,-1.4699,-1.474,-1.474,-1.474,-1.474,-1.474,-1.474,-1.474,-1.474,-1.474,-1.4774,-1.4801,0.0,0.0,0.0,0.0,0.0,0.0,0.0,0.0,0.0,0.0,0.0,0.0,0.0,0.0,0.0,0.0,0.0,0.0,-1.5743,-1.5523,-1.4621,-1.2733,-1.2579,-1.2501,-1.2501,-1.2501,-1.2501,-1.2501,-1.2501,-1.2501,-1.2501,-1.2501,-1.2501,-1.2501,-1.2501,-1.2501,-1.2501,-1.2501,-1.2501,-1.2501,-1.2501,-1.2501,-1.2501,-1.2501,-1.2501,-1.2501,-1.2501,-1.2501,-1.2501,-1.2501,-1.2508,-1.2562,-1.2868,-1.3159,-1.339,-1.3397,-1.3403,-1.3403,-1.3403,-1.3403,-1.3403,-1.3403,-1.3403,-1.3403,-1.3403,-1.3403,-1.3403,-1.3403,-1.341,-1.3458,-1.36,-1.3519,-1.3512,-1.3797,-1.3736,-1.3695,-1.3831,-1.3987,-1.4082,-1.4082,-1.4211,-1.4299,-1.4299,-1.4299,-1.4299,-1.4299,-1.4299,-1.4299,-1.4299,-1.4299,-1.4299,-1.4299,-1.4299,-1.4299,-1.4299,-1.4306,-1.438,-1.4523,-1.4523,-1.4597,-1.474,-1.4746,-1.4753,-1.4753,-1.476,-1.476,-1.476,-1.476,-1.476,-1.476,-1.476,-1.476,-1.476,-1.476,-1.4855,-1.4964,0.0,0.0,0.0,0.0,0.0,0.0,0.0,0.0,0.0,0.0,0.0,0.0,0.0,0.0,0.0,0.0,0.0,0.0,-1.7563,-1.6006,-1.5093,-1.4774,-1.3259,-1.2501,-1.2501,-1.2501,-1.2501,-1.2501,-1.2501,-1.2501,-1.2501,-1.2501,-1.2501,-1.2501,-1.2501,-1.2501,-1.2501,-1.2501,-1.2501,-1.2501,-1.2501,-1.2501,-1.2501,-1.2501,-1.2501,-1.2501,-1.2501,-1.2501,-1.2501,-1.2501,-1.2576,-1.2705,-1.2901,-1.3085,-1.3254,-1.337,-1.3403,-1.3403,-1.3403,-1.3403,-1.3403,-1.3403,-1.3403,-1.3403,-1.3403,-1.3403,-1.3403,-1.3403,-1.3492,-1.3587,-1.362,-1.3682,-1.3749,-1.3831,-1.3905,-1.3973,-1.4007,-1.4143,-1.4245,-1.4245,-1.4278,-1.4299,-1.4299,-1.4299,-1.4299,-1.4299,-1.4299,-1.4299,-1.4299,-1.4299,-1.4299,-1.4299,-1.4299,-1.4299,-1.4299,-1.4407,-1.4529,-1.4679,-1.4679,-1.4699,-1.4746,-1.4862,-1.4909,-1.4916,-1.5025,-1.5072,-1.5072,-1.5072,-1.5072,-1.5072,-1.5072,-1.5072,-1.5072,-1.5072,-1.5092,-1.512,0.0,0.0,0.0,0.0,0.0,0.0,0.0,0.0,0.0,0.0,0.0,0.0,0.0,0.0,0.0,0.0,0.0,0.0,0.0,-1.8336,-1.7479,-1.669,-1.4818,-1.3791,-1.3791,-1.2958,-1.2501,-1.2501,-1.2501,-1.2501,-1.2501,-1.2501,-1.2501,-1.2501,-1.2501,-1.2501,-1.2501,-1.2501,-1.2501,0.0,0.0,-1.2501,-1.2501,-1.2501,-1.2501,-1.2501,-1.2501,-1.2501,-1.2501,-1.2501,-1.2603,-1.2759,-1.2915,-1.3057,-1.32,-1.3356,-1.3403,-1.3403,-1.3403,-1.3403,-1.3403,-1.3403,-1.3403,-1.3403,-1.3403,-1.3403,-1.3403,-1.3403,-1.3519,-1.3648,-1.3709,-1.379,-1.3885,-1.4021,-1.4061,-1.4095,-1.4163,-1.4245,-1.4299,-1.4299,-1.4299,-1.4299,-1.4299,-1.4299,-1.4299,-1.4299,-1.4299,-1.4299,-1.4299,-1.4299,-1.4299,-1.4299,-1.436,-1.4428,-1.4489,-1.457,-1.4692,-1.4841,-1.4841,-1.4875,-1.4936,-1.5025,-1.5065,-1.5065,-1.5147,-1.5181,-1.5181,-1.5181,-1.5181,-1.5181,-1.5181,-1.5181,-1.5181,-1.5181,-1.5181,-1.5181,0.0,0.0,0.0,0.0,0.0,0.0,0.0,0.0,0.0,0.0,0.0,0.0,0.0,0.0,0.0,0.0,0.0,0.0,0.0,0.0,-2.0326,-1.861,-1.6766,-1.5887,-1.5913,-1.3945,-1.2881,-1.2881,-1.2656,-1.2501,-1.2501,-1.2501,-1.2501,-1.2501,-1.2501,-1.2501,-1.2501,-1.2501,-1.2501,-1.2501,-1.2501,-1.2501,-1.2501,0.0,-1.2501,-1.2501,-1.2501,-1.2501,-1.2501,-1.2501,-1.2589,-1.2732,-1.2908,-1.3044,-1.318,-1.3349,-1.3403,-1.3403,-1.3403,-1.3403,-1.3403,-1.3403,-1.3403,-1.3403,-1.3403,-1.3403,-1.3403,-1.3403,-1.3519,-1.3675,-1.3817,-1.3858,-1.3966,-1.4251,-1.419,-1.415,-1.4278,-1.4299,-1.4299,-1.4299,-1.4299,-1.4299,-1.4299,-1.4299,-1.4299,-1.4299,-1.4299,-1.4299,-1.4299,-1.4299,-1.4306,-1.4326,-1.4468,-1.4618,-1.4767,-1.4767,-1.4848,-1.4997,-1.4997,-1.5065,-1.5181,-1.5181,-1.5181,-1.5181,-1.5181,-1.5181,-1.5181,-1.5181,-1.5181,-1.5181,-1.5181,-1.5181,-1.5181,-1.5181,-1.5181,-1.5181,0.0,0.0,0.0,0.0,0.0,0.0,0.0,0.0,0.0,0.0,-2.2928,0.0,0.0,0.0,0.0,0.0,0.0,0.0,0.0,0.0,0.0,-2.0677,-1.8725,-1.7781,-1.8033,-1.6066,-1.5012,-1.5012,-1.3337,-1.2501,-1.2501,-1.2501,-1.2501,-1.2501,-1.2501,-1.2501,-1.2501,-1.2501,-1.2501,-1.2501,-1.2501,-1.2501,-1.2501,-1.2501,0.0,0.0,-1.2501,-1.2501,-1.2501,-1.2501,-1.2522,-1.2589,-1.2874,-1.3056,-1.3051,-1.3322,-1.3403,-1.3403,-1.3403,-1.3403,-1.3403,-1.3403,-1.3403,-1.3403,-1.3403,-1.3403,-1.3403,-1.3403,-1.3519,-1.3675,-1.3817,-1.3946,-1.4089,-1.4272,-1.4278,-1.4272,-1.4299,-1.4299,-1.4299,-1.4299,-1.4299,-1.4299,-1.4299,-1.4299,-1.4299,-1.4299,-1.4299,-1.4299,-1.4299,-1.4299,-1.4353,-1.4468,-1.4624,-1.4774,-1.493,-1.493,-1.5004,-1.5147,-1.5147,-1.516,-1.5181,-1.5181,-1.5181,-1.5181,-1.5181,-1.5181,-1.5181,-1.5181,-1.5181,-1.5181,-1.5181,-1.5181,-1.5181,-1.5181,-1.5181,-1.5181,0.0,0.0,0.0,0.0,0.0,0.0,0.0,0.0,0.0,0.0,-2.2928,-2.2928,0.0,0.0,0.0,0.0,0.0,0.0,0.0,0.0,0.0,-2.2275,-2.0497,-1.958,-1.9968,-1.7951,-1.6944,-1.7132,0.0,-1.4099,-1.4022,-1.2958,-1.2501,-1.2501,-1.2501,-1.2501,-1.2501,-1.2501,-1.2501,-1.2501,-1.2501,-1.2501,-1.2501,0.0,0.0,0.0,-1.2501,-1.2501,-1.2501,-1.2501,-1.2501,-1.2556,-1.2861,-1.2963,-1.3017,-1.3315,-1.3403,-1.3403,-1.3403,-1.3403,-1.3403,-1.3403,-1.3403,-1.3403,-1.3403,-1.3403,-1.3403,-1.3403,-1.3519,-1.3675,-1.3817,-1.3966,-1.4122,-1.4278,-1.4299,-1.4299,-1.4299,-1.4299,-1.4299,-1.4299,-1.4299,-1.4299,-1.4299,-1.4299,-1.4299,-1.4299,-1.4367,-1.4407,-1.4407,-1.4482,-1.4597,-1.4746,-1.4821,-1.493,-1.5079,-1.5079,-1.5113,-1.5181,-1.5181,-1.5181,-1.5181,-1.5181,-1.5181,-1.5181,-1.5181,-1.5181,-1.5181,-1.5181,-1.5181,-1.5181,-1.5181,-1.5181,-1.5181,-1.5181,-1.5181,-1.5181,0.0,0.0,0.0,0.0,0.0,0.0,0.0,-2.6306,-2.545,-2.3665,-2.3461,-2.3324,-2.2928,-2.2928,-2.2928,0.0,0.0,0.0,0.0,0.0,0.0,0.0,0.0,0.0,-2.1728,0.0,0.0,-1.9178,-1.7189,0.0,0.0,0.0,0.0,0.0,-1.3799,-1.3799,-1.3799,-1.3799,-1.3799,0.0,0.0,-1.3568,-1.3112,0.0,0.0,0.0,0.0,-1.2501,-1.2501,-1.2501,-1.2501,-1.2556,-1.2861,-1.2963,-1.3017,-1.3315,-1.3403,-1.3403,-1.3403,-1.3403,-1.3403,-1.3403,-1.3403,-1.3403,-1.3403,-1.3403,-1.3403,-1.3403,-1.3498,-1.3634,-1.381,-1.3939,-1.4082,-1.4272,-1.4299,-1.4299,-1.4299,-1.4299,-1.4299,-1.4299,-1.4299,-1.4299,-1.4299,-1.4299,-1.4299,-1.4299,-1.4462,-1.4563,-1.4563,-1.4706,-1.4841,-1.497,-1.5004,-1.5072,-1.5181,-1.5181,-1.5181,-1.5181,-1.5181,-1.5181,-1.5181,-1.5181,-1.5181,-1.5181,-1.5181,-1.5181,-1.5181,-1.5181,-1.5181,-1.5181,-1.5181,-1.5181,-1.5181,-1.5181,-1.5181,-1.5181,0.0,0.0,0.0,0.0,0.0,0.0,0.0,-2.8952,-2.7304,-2.5517,-2.5248,-2.4655,-2.3065,-2.2928,-2.2928,0.0,0.0,0.0,0.0,0.0,0.0,0.0,0.0,0.0,0.0,0.0,0.0,-2.0955,-1.9147,0.0,0.0,0.0,0.0,0.0,0.0,-1.8042,-1.8042,-1.8042,0.0,0.0,0.0,0.0,0.0,0.0,0.0,0.0,0.0,-1.2501,-1.2501,-1.2501,-1.2501,-1.2556,-1.2861,-1.2963,-1.3017,-1.3315,-1.3403,-1.3403,-1.3403,-1.3403,-1.3403,-1.3403,-1.3403,-1.3403,-1.3403,-1.3403,-1.3403,-1.3403,-1.341,-1.3505,-1.379,-1.3851,-1.396,-1.4251,-1.4299,-1.4299,-1.4299,-1.4299,-1.4299,-1.4299,-1.4299,-1.4299,-1.4299,-1.4299,-1.4299,-1.4299,-1.4563,-1.4719,-1.4719,-1.4869,-1.4957,-1.497,-1.5099,-1.5167,-1.5181,-1.5181,-1.5181,-1.5181,-1.5181,-1.5181,-1.5181,-1.5181,-1.5181,-1.5181,-1.5181,-1.5181,-1.5181,-1.5181,-1.5181,-1.5181,-1.5181,-1.5181,-1.5181,-1.5181,-1.5181,-1.5181,0.0,0.0,0.0,0.0,0.0,0.0,0.0,-3.0189,-2.9148,-2.737,-2.6172,-2.5248,-2.452,-2.3529,-2.2928,0.0,0.0,0.0,0.0,0.0,0.0,0.0,0.0,0.0,0.0,0.0,-2.2586,-2.2764,-2.1017,0.0,0.0,0.0,0.0,0.0,0.0,-1.8572,-1.8572,-1.8572,0.0,0.0,0.0,0.0,0.0,0.0,0.0,0.0,0.0,0.0,-1.2501,-1.2501,-1.2501,-1.2556,-1.2861,-1.2963,-1.3017,-1.3315,-1.3403,-1.3403,-1.3403,-1.3403,-1.3403,-1.3403,-1.3403,-1.3403,-1.3403,-1.3403,-1.3403,-1.3403,-1.3403,-1.3464,-1.3675,-1.3783,-1.3912,-1.4129,-1.4238,-1.4299,-1.4299,-1.4299,-1.4299,-1.4299,-1.4299,-1.4299,-1.4299,-1.4299,-1.4373,-1.455,-1.476,-1.4916,-1.5004,-1.5065,-1.5099,-1.5099,-1.5153,-1.5181,-1.5181,-1.5181,-1.5181,-1.5181,-1.5181,-1.5181,-1.5181,-1.5181,-1.5181,-1.5181,-1.5181,-1.5181,-1.5181,-1.5181,-1.5181,-1.5181,-1.5181,-1.5181,-1.5181,-1.5181,-1.5181,-1.5181,0.0,0.0,0.0,0.0,0.0,0.0,-3.1771,-3.1561,-3.0918,-2.9213,-2.7883,-2.689,-2.6373,-2.4723,-2.3665,-2.3665,0.0,0.0,0.0,0.0,0.0,0.0,0.0,0.0,0.0,0.0,-2.3434,-2.3647,-2.2611,-2.2105,0.0,0.0,-2.0391,-2.0391,0.0,0.0,0.0,0.0,0.0,0.0,0.0,0.0,0.0,0.0,0.0,0.0,0.0,0.0,0.0,0.0,0.0,-1.331,-1.3044,-1.2922,-1.3017,-1.3315,-1.3403,-1.3403,-1.3403,-1.3403,-1.3403,-1.3403,-1.3403,-1.3403,-1.3403,-1.3403,-1.3403,-1.3403,-1.3403,-1.3451,-1.36,-1.3743,-1.3892,-1.4048,-1.4197,-1.4299,-1.4299,-1.4299,-1.4299,-1.4299,-1.4299,-1.4299,-1.4299,-1.434,-1.4468,-1.4719,-1.4882,-1.5031,-1.5174,-1.5181,-1.5181,-1.5181,-1.5181,-1.5181,-1.5181,-1.5181,-1.5181,-1.5181,-1.5181,-1.5181,-1.5181,-1.5181,-1.5181,-1.5181,-1.5181,-1.5181,-1.5181,-1.5181,-1.5181,-1.5181,-1.5181,-1.5181,-1.5181,-1.5181,-1.5181,-1.5181,0.0,0.0,0.0,0.0,0.0,0.0,0.0,-3.3355,-3.2765,-3.0964,-3.0771,-3.0125,-2.8361,-2.6573,-2.545,-2.545,0.0,0.0,0.0,0.0,0.0,0.0,0.0,0.0,0.0,0.0,-2.3327,-2.3327,-2.3915,-2.4209,-2.4136,-2.4429,-2.4562,-2.4562,0.0,0.0,0.0,0.0,0.0,0.0,0.0,0.0,0.0,0.0,0.0,0.0,0.0,0.0,0.0,0.0,0.0,0.0,0.0,-1.284,-1.3017,-1.3315,-1.3403,-1.3403,-1.3403,-1.3403,-1.3403,-1.3403,-1.3403,-1.3403,-1.3403,-1.3403,-1.3403,-1.3403,-1.3403,-1.3451,-1.36,-1.3743,-1.3892,-1.4048,-1.4197,-1.4299,-1.4299,-1.4299,-1.4299,-1.4299,-1.4299,-1.4299,-1.4299,-1.4428,-1.457,-1.4726,-1.4882,-1.5031,-1.5174,-1.5181,-1.5181,-1.5181,-1.5181,-1.5181,-1.5181,-1.5181,-1.5181,-1.5181,-1.5181,-1.5181,-1.5181,-1.5181,-1.5181,-1.5181,-1.5181,-1.5181,-1.5181,-1.5181,-1.5181,-1.5181,-1.5181,-1.5181,-1.5181,-1.5181,-1.5181,-1.5181,0.0,0.0,0.0,0.0,0.0,0.0,0.0,-3.3418,-3.3228,-3.2619,-3.1561,-3.0578,-3.006,-2.8427,-2.737,-2.737,0.0,0.0,0.0,0.0,0.0,0.0,0.0,0.0,0.0,0.0,-2.3006,-2.3006,-2.3407,-2.3714,-2.3915,-2.4209,-2.4449,-2.4636,-2.4636,-2.4636,0.0,0.0,0.0,0.0,0.0,0.0,-2.1365,0.0,0.0,0.0,0.0,0.0,0.0,0.0,0.0,0.0,0.0,0.0,0.0,-1.3186,-1.3315,-1.3403,-1.3403,-1.3403,-1.3403,-1.3403,-1.3403,-1.3403,-1.3403,-1.3403,-1.3403,-1.3403,-1.3403,-1.3417,-1.3464,-1.3675,-1.3858,-1.3905,-1.4129,-1.4299,-1.4299,-1.4299,-1.4299,-1.4299,-1.4299,-1.4299,-1.4299,-1.4523,-1.4685,-1.4733,-1.497,-1.5133,-1.5181,-1.5181,-1.5181,-1.5181,-1.5181,-1.5181,-1.5181,-1.5181,-1.5181,-1.5181,-1.5181,-1.5181,-1.5181,-1.5181,-1.5181,-1.5181,-1.5181,-1.5181,-1.5181,-1.5181,-1.5181,-1.5181,-1.5181,-1.5181,-1.5181,-1.5181,-1.5181,-1.5181,0.0,0.0,0.0,0.0,0.0,0.0,0.0,-3.3418,-3.3418,-3.3418,-3.2428,-3.1771,-3.1771,-3.0254,-2.9213,-2.9213,0.0,0.0,0.0,0.0,0.0,0.0,0.0,0.0,0.0,-2.2928,-2.2928,-2.2928,-2.318,-2.342,-2.3607,-2.4022,-2.4302,-2.4476,-2.4583,-2.4636,0.0,0.0,0.0,0.0,0.0,0.0,-2.2583,0.0,0.0,0.0,0.0,0.0,0.0,0.0,0.0,0.0,0.0,0.0,0.0,0.0,-1.4962,-1.4303,-1.3631,-1.3403,-1.3403,-1.3403,-1.3403,-1.3403,-1.3403,-1.3403,-1.3403,-1.3403,-1.3403,-1.3403,-1.3403,-1.3641,-1.3838,-1.3838,-1.4095,-1.4299,-1.4299,-1.4299,-1.4299,-1.4299,-1.4299,-1.4299,-1.4299,-1.457,-1.474,-1.474,-1.5011,-1.5181,-1.5181,-1.5181,-1.5181,-1.5181,-1.5181,-1.5181,-1.5181,-1.5181,-1.5181,-1.5181,-1.5181,-1.5181,-1.5181,-1.5181,-1.5181,-1.5181,-1.5181,-1.5181,0.0,-1.5181,-1.5181,-1.5181,-1.5181,-1.5181,-1.5181,-1.5181,-1.5181,-1.5194,0.0,0.0,0.0,0.0,0.0,0.0,0.0,0.0,0.0,0.0,-3.3418,-3.3418,-3.3418,-3.1963,-3.0964,0.0,0.0,0.0,0.0,0.0,0.0,0.0,0.0,0.0,-2.2928,-2.2928,-2.2928,-2.2928,-2.3153,-2.33,-2.334,-2.3915,-2.4182,-2.4222,-2.4502,-2.4636,0.0,0.0,0.0,0.0,-2.4636,-2.4636,0.0,0.0,0.0,0.0,0.0,0.0,0.0,0.0,0.0,0.0,0.0,0.0,0.0,0.0,0.0,0.0,0.0,-1.348,-1.3403,-1.3403,-1.3403,-1.3403,-1.3403,-1.3403,0.0,-1.3403,-1.3403,-1.3403,-1.3403,-1.3634,-1.3831,-1.3838,-1.4089,-1.4285,-1.4299,-1.4299,-1.4299,-1.4299,-1.4299,-1.4299,-1.4299,-1.457,-1.474,-1.474,-1.5011,-1.5181,-1.5181,-1.5181,-1.5181,-1.5181,-1.5181,-1.5181,-1.5181,-1.5181,-1.5181,-1.5181,-1.5181,-1.5181,-1.5181,-1.5181,-1.5181,-1.5181,-1.5181,-1.5181,-1.5181,-1.5181,-1.5181,-1.5181,-1.5181,-1.5181,-1.5181,-1.5181,-1.5181,-1.5201,0.0,0.0,0.0,0.0,0.0,0.0,0.0,0.0,0.0,0.0,0.0,-3.3418,-3.3418,-3.3019,0.0,0.0,0.0,0.0,0.0,0.0,0.0,0.0,0.0,0.0,-2.2928,-2.2928,-2.2928,-2.2928,-2.2939,-2.31,-2.334,-2.3701,-2.3995,-2.4222,-2.4502,-2.4636,0.0,0.0,0.0,0.0,-2.4636,-2.4636,0.0,0.0,0.0,0.0,-2.4636,-2.4636,0.0,0.0,0.0,0.0,0.0,0.0,0.0,0.0,-1.7808,-1.6176,-1.5951,0.0,-1.3403,-1.3403,-1.3403,-1.3403,0.0,-1.3403,-1.3403,-1.3403,-1.3403,-1.3403,-1.3403,-1.3553,-1.3715,-1.3824,-1.4,-1.4163,-1.4285,-1.4299,-1.4299,-1.4299,-1.4299,-1.4299,-1.4299,-1.457,-1.474,-1.474,-1.5011,-1.5181,-1.5181,-1.5181,-1.5181,-1.5181,-1.5181,-1.5181,-1.5181,-1.5181,-1.5181,-1.5181,-1.5181,-1.5181,-1.5181,-1.5181,-1.5181,-1.5181,-1.5181,-1.5181,-1.5181,-1.5181,-1.5181,-1.5181,-1.5181,-1.5181,-1.5181,-1.5181,-1.5181,-1.5201,0.0,0.0,0.0,0.0,0.0,0.0,0.0,0.0,0.0,0.0,0.0,0.0,0.0,0.0,0.0,0.0,0.0,0.0,0.0,0.0,0.0,0.0,0.0,-2.2928,-2.2928,-2.2928,-2.2928,-2.2928,-2.2928,-2.2953,-2.3113,-2.342,-2.3728,-2.4022,-2.4449,-2.4636,0.0,0.0,0.0,0.0,-2.4636,0.0,0.0,0.0,0.0,0.0,-2.4636,-2.4636,0.0,-2.3339,-2.2967,-2.2806,0.0,0.0,0.0,0.0,-1.987,-1.7572,-1.8035,-1.5843,-1.3403,-1.3403,-1.3403,-1.3403,-1.3403,-1.3403,-1.3403,-1.3403,-1.3403,-1.3403,-1.3403,-1.3526,-1.3675,-1.3817,-1.3973,-1.4122,-1.4278,-1.4299,-1.4299,-1.4299,-1.4299,-1.4299,-1.4299,-1.4502,-1.4665,-1.4733,-1.4957,-1.5113,-1.5181,-1.5181,-1.5181,-1.5181,-1.5181,-1.5181,-1.5181,-1.5181,-1.5181,-1.5181,-1.5181,-1.5181,-1.5181,-1.5181,-1.5181,-1.5181,-1.5181,-1.5181,-1.5181,-1.5181,-1.5181,-1.5181,-1.5181,-1.5181,-1.5181,-1.5181,-1.5228,-1.5309,0.0,0.0,0.0,0.0,0.0,0.0,0.0,0.0,0.0,0.0,0.0,0.0,0.0,0.0,0.0,0.0,0.0,0.0,0.0,0.0,0.0,0.0,0.0,-2.2928,-2.2928,-2.2928,-2.2928,-2.2928,-2.2928,-2.2928,-2.2941,-2.318,-2.3487,-2.3794,-2.4289,-2.4529,0.0,0.0,0.0,-2.4636,-2.4636,0.0,0.0,0.0,0.0,0.0,0.0,0.0,0.0,-2.4636,-2.4636,-2.4636,-2.4636,0.0,0.0,0.0,0.0,0.0,-1.9655,-1.6721,-1.3403,-1.3403,-1.3403,-1.3403,-1.3403,-1.3403,-1.3403,-1.3403,-1.3403,-1.3403,-1.3403,-1.3505,-1.3648,-1.3732,-1.3987,-1.415,-1.4285,-1.4299,-1.4299,-1.4299,-1.4299,-1.4299,-1.4299,-1.4428,-1.4577,-1.4726,-1.4882,-1.5031,-1.5174,-1.5181,-1.5181,-1.5181,-1.5181,-1.5181,-1.5181,-1.5181,-1.5181,-1.5181,-1.5181,-1.5181,-1.5181,-1.5181,-1.5181,-1.5181,-1.5181,-1.5181,-1.5181,-1.5181,-1.5181,-1.5181,-1.5181,-1.5181,-1.5181,-1.5181,-1.5276,-1.5438,0.0,0.0,0.0,0.0,0.0,0.0,0.0,0.0,0.0,0.0,0.0,0.0,0.0,0.0,0.0,0.0,0.0,0.0,0.0,0.0,0.0,-2.5181,-2.3665,-2.2928,-2.2928,-2.2928,-2.2928,-2.2928,-2.2928,-2.2928,-2.2941,-2.318,-2.3487,-2.3768,-2.3861,-2.4035,-2.4262,0.0,0.0,-2.4636,-2.4636,0.0,0.0,0.0,0.0,0.0,0.0,0.0,0.0,-2.4636,-2.4636,-2.4636,-2.4636,0.0,0.0,0.0,0.0,0.0,-1.9463,-1.6529,-1.3403,-1.3403,-1.3403,-1.3403,-1.3403,-1.3403,-1.3403,-1.3403,-1.3403,-1.3403,-1.3403,-1.3417,-1.3526,-1.3797,-1.4082,-1.4272,-1.4299,-1.4299,-1.4299,-1.4299,-1.4299,-1.4299,-1.4299,-1.4428,-1.4577,-1.4726,-1.4882,-1.5031,-1.5174,-1.5181,-1.5181,-1.5181,-1.5181,-1.5181,-1.5181,-1.5181,-1.5181,-1.5181,-1.5181,-1.5181,-1.5181,-1.5181,-1.5181,-1.5181,-1.5181,-1.5181,-1.5181,-1.5181,-1.5181,-1.5181,-1.5181,-1.5181,-1.5181,-1.5181,-1.5276,-1.5452,0.0,0.0,0.0,0.0,0.0,0.0,0.0,0.0,0.0,0.0,0.0,0.0,0.0,0.0,0.0,0.0,0.0,0.0,0.0,0.0,-2.9196,-2.841,-2.5771,-2.3856,-2.2928,-2.2928,-2.2928,-2.2928,-2.2928,-2.2928,-2.2941,-2.318,-2.3407,-2.3541,-2.3701,-2.3848,-2.3968,-2.3968,-2.4048,-2.4168,0.0,0.0,0.0,0.0,0.0,0.0,0.0,0.0,0.0,0.0,-2.4636,-2.4636,-2.4636,0.0,0.0,0.0,0.0,0.0,-1.9413,-1.6512,-1.3403,-1.3403,-1.3403,-1.3403,-1.3403,-1.3403,-1.3403,-1.3403,-1.3403,-1.3403,-1.3403,-1.3403,-1.3498,-1.379,-1.4095,-1.4299,-1.4299,-1.4299,-1.4299,-1.4299,-1.4299,-1.4299,-1.4299,-1.436,-1.4489,-1.4719,-1.4808,-1.4943,-1.5167,-1.5181,-1.5181,-1.5181,-1.5181,-1.5181,-1.5181,-1.5181,-1.5181,-1.5181,-1.5181,-1.5181,-1.5181,-1.5181,-1.5181,-1.5181,-1.5181,-1.5181,-1.5181,-1.5181,-1.5181,-1.5181,-1.5181,-1.5181,-1.5201,-1.5371,-1.552,-1.5683,0.0,0.0,0.0,0.0,0.0,0.0,0.0,0.0,0.0,0.0,0.0,0.0,0.0,0.0,0.0,0.0,0.0,0.0,0.0,0.0,-3.124,-3.0836,-2.8213,-2.5704,-2.3529,-2.3133,-2.2928,-2.2928,-2.2928,-2.2928,-2.2928,-2.31,-2.322,-2.3233,-2.346,-2.3594,-2.3661,-2.3661,-2.3714,-2.3768,0.0,0.0,0.0,0.0,0.0,0.0,0.0,0.0,0.0,0.0,0.0,0.0,0.0,0.0,0.0,-2.4917,-2.2118,-1.9024,-1.9273,-1.6478,-1.3403,-1.3403,-1.3403,-1.3403,-1.3403,-1.3403,-1.3403,-1.3403,-1.3403,-1.3403,-1.3403,-1.3458,-1.358,-1.3804,-1.4095,-1.4299,-1.4299,-1.4299,-1.4299,-1.4299,-1.4299,-1.4299,-1.4299,-1.4299,-1.4421,-1.4719,-1.474,-1.4869,-1.5167,-1.5181,-1.5181,-1.5181,-1.5181,-1.5181,-1.5181,-1.5181,-1.5181,-1.5181,-1.5181,-1.5181,-1.5181,-1.5181,-1.5181,-1.5181,-1.5181,-1.5181,-1.5181,-1.5181,-1.5181,-1.5181,-1.5181,-1.5201,-1.5269,-1.554,-1.573,-1.5872,0.0,0.0,0.0,0.0,0.0,0.0,0.0,0.0,0.0,0.0,0.0,0.0,0.0,0.0,0.0,0.0,0.0,0.0,0.0,0.0,-3.2492,-3.0836,-3.0578,-2.8804,-2.5383,-2.3734,-2.2928,-2.2928,-2.2928,-2.2928,-2.2928,-2.2954,-2.2968,-2.2899,-2.2913,-2.3086,-2.3367,-2.3367,-2.3514,-2.3768,-2.3768,0.0,0.0,0.0,0.0,0.0,0.0,0.0,0.0,0.0,0.0,0.0,0.0,0.0,-2.4562,-2.4663,-2.1977,-1.8994,-1.9004,-1.6296,-1.3403,-1.3403,-1.3403,-1.3403,-1.3403,-1.3403,-1.3403,-1.3403,-1.3403,-1.3403,-1.3403,-1.3627,-1.3817,-1.3838,-1.4095,-1.4299,-1.4299,-1.4299,-1.4299,-1.4299,-1.4299,-1.4299,-1.4299,-1.4299,-1.4421,-1.4719,-1.474,-1.4869,-1.5167,-1.5181,-1.5181,-1.5181,-1.5181,-1.5181,-1.5181,-1.5181,-1.5181,-1.5181,-1.5181,-1.5181,-1.5181,-1.5181,-1.5181,-1.5181,-1.5181,-1.5181,-1.5181,-1.5181,-1.5181,-1.5181,-1.5181,-1.5269,-1.5411,-1.5581,-1.573,-1.5872,0.0,0.0,0.0,0.0,0.0,0.0,0.0,0.0,0.0,0.0,0.0,0.0,0.0,0.0,0.0,0.0,0.0,0.0,0.0,-3.4062,-3.3553,-3.2891,-3.0526,-2.8558,-2.7238,-2.545,-2.3992,-2.2928,-2.2928,-2.2928,-2.2928,-2.2928,-2.2928,-2.2928,-2.2928,-2.2926,-2.3033,-2.3033,-2.31,-2.3207,-2.3207,-2.3207,0.0,0.0,0.0,0.0,0.0,0.0,0.0,0.0,-2.4636,-2.4636,-2.4636,-2.4636,-2.4636,-2.4636,-2.1954,-1.8984,-1.8984,-1.6288,-1.3403,-1.3403,-1.3403,-1.3403,-1.3403,-1.3403,-1.3403,-1.3403,-1.3403,-1.3403,-1.3403,-1.3641,-1.3838,-1.3838,-1.4095,-1.4299,-1.4299,-1.4299,-1.4299,-1.4299,-1.4299,-1.4299,-1.4299,-1.4299,-1.438,-1.4584,-1.4685,-1.4828,-1.5038,-1.5133,-1.5181,-1.5181,-1.5181,-1.5181,-1.5181,-1.5181,-1.5181,-1.5181,-1.5181,-1.5181,-1.5181,-1.5181,-1.5181,-1.5181,-1.5181,-1.5181,-1.5181,-1.5181,-1.5181,-1.5194,-1.5289,-1.5418,-1.5574,-1.5716,-1.5866,-1.6001,0.0,0.0,0.0,0.0,0.0,0.0,0.0,0.0,0.0,0.0,0.0,0.0,0.0,0.0,0.0,0.0,0.0,0.0,-3.4922,-3.4512,-3.4277,-3.4277,-3.1055,-2.894,-2.8411,-2.6501,-2.4655,-2.2928,-2.2928,-2.2928,-2.2928,-2.2928,-2.2928,-2.2928,-2.2928,-2.2928,-2.2928,-2.2928,-2.2928,-2.2928,-2.2928,-2.2928,0.0,0.0,0.0,0.0,0.0,0.0,0.0,0.0,-2.4636,-2.4636,-2.4636,-2.4636,-2.4636,-2.4636,-2.1954,-1.8984,-1.8984,-1.6288,-1.3403,-1.3403,-1.3403,-1.3403,-1.3403,-1.3403,-1.3403,-1.3403,-1.3403,-1.3403,-1.3403,-1.3641,-1.3838,-1.3838,-1.4095,-1.4299,-1.4299,-1.4299,-1.4299,-1.4299,-1.4299,-1.4299,-1.4299,-1.4299,-1.436,-1.4502,-1.4652,-1.4808,-1.4964,-1.5106,-1.5181,-1.5181,-1.5181,-1.5181,-1.5181,-1.5181,-1.5181,-1.5181,-1.5181,-1.5181,-1.5181,-1.5181,-1.5181,-1.5181,-1.5181,-1.5181,-1.5181,-1.5181,-1.5181,-1.5201,-1.535,-1.5506,-1.5655,-1.5798,-1.5947,-1.6083,0.0,0.0,0.0,0.0,0.0,0.0,0.0,0.0,0.0,0.0,0.0,0.0,0.0,0.0,0.0,0.0,0.0,0.0,-3.541,-3.4961,-3.4707,-3.4707,-3.2543,-3.0593,-2.8826,-2.661,-2.4655,-2.2928,-2.2928,-2.2928,-2.2928,-2.2928,-2.2928,-2.2928,-2.2928,-2.2928,-2.2928,-2.2928,-2.2928,-2.2928,-2.2928,-2.2928,-2.2928,0.0,0.0,0.0,0.0,0.0,0.0,0.0,-2.4562,-2.4562,-2.4562,-2.4562,-2.4562,-2.4562,-2.1878,-1.8984,-1.8984,-1.6207,-1.3403,-1.3403,-1.3403,-1.3403,-1.3403,-1.3403,-1.3403,-1.3403,-1.3403,-1.3403,-1.3403,-1.3641,-1.3838,-1.3838,-1.4095,-1.4299,-1.4299,-1.4299,-1.4299,-1.4299,-1.4299,-1.4299,-1.4299,-1.4299,-1.436,-1.4502,-1.4652,-1.4808,-1.4964,-1.5106,-1.5181,-1.5181,-1.5181,-1.5181,-1.5181,-1.5181,-1.5181,-1.5181,-1.5181,-1.5181,-1.5181,-1.5181,-1.5181,-1.5181,-1.5181,-1.5181,-1.5181,-1.5181,-1.5181,-1.5201,-1.535,-1.5506,-1.5655,-1.5805,-1.5954,-1.6083,0.0,0.0,0.0,0.0,0.0,0.0,0.0,0.0,0.0,0.0,0.0,0.0,0.0,0.0,0.0,0.0,0.0,0.0,-3.584,-3.543,-3.5176,-3.5176,-3.1729,-2.9497,-2.8843,-2.5411,-2.3393,-2.2928,-2.2928,-2.2928,-2.2928,-2.2928,-2.2928,-2.2928,-2.2928,-2.2928,-2.2928,-2.2928,-2.2928,-2.2928,-2.2928,-2.2928,-2.2928,0.0,0.0,0.0,0.0,0.0,0.0,0.0,0.0,0.0,-2.4179,-2.2657,-2.0692,-2.2049,-1.9807,-1.6871,-1.6871,-1.5166,-1.3403,-1.3403,-1.3403,-1.3403,-1.3403,-1.3403,-1.3403,-1.3403,-1.3403,-1.3403,-1.3403,-1.3641,-1.3838,-1.3838,-1.4095,-1.4299,-1.4299,-1.4299,-1.4299,-1.4299,-1.4299,-1.4299,-1.4299,-1.4299,-1.4319,-1.436,-1.4597,-1.476,-1.4808,-1.5045,-1.5181,-1.5181,-1.5181,-1.5181,-1.5181,-1.5181,-1.5181,-1.5181,-1.5181,-1.5181,-1.5181,-1.5181,-1.5181,-1.5181,-1.5181,-1.5181,-1.5181,-1.5181,-1.5248,-1.5357,-1.5513,-1.5662,-1.5811,-1.5961,-1.6042,-1.6083,0.0,0.0,0.0,0.0,0.0,0.0,0.0,0.0,0.0,0.0,-3.6016,-3.6016,0.0,0.0,0.0,0.0,0.0,0.0,0.0,-3.5781,-3.5644,-3.5644,-3.1663,-2.8668,-2.6825,-2.4343,-2.3046,-2.3046,-2.2926,-2.2928,-2.2928,-2.2928,-2.2928,-2.2928,-2.2928,-2.2928,-2.2928,-2.2928,-2.2928,-2.2928,-2.2928,-2.2928,-2.2928,0.0,0.0,0.0,0.0,0.0,0.0,0.0,0.0,0.0,-2.2049,-2.0542,-1.8819,-2.0124,-1.8329,-1.6027,-1.6023,-1.4741,-1.3403,-1.3403,-1.3403,-1.3403,-1.3403,-1.3403,-1.3403,-1.3403,-1.3403,-1.3403,-1.3403,-1.3641,-1.3838,-1.3838,-1.4095,-1.4299,-1.4299,-1.4299,-1.4299,-1.4299,-1.4299,-1.4299,-1.4299,-1.4299,-1.4299,-1.4299,-1.4516,-1.4672,-1.4733,-1.497,-1.5126,-1.5181,-1.5181,-1.5181,-1.5181,-1.5181,-1.5181,-1.5181,-1.5181,-1.5181,-1.5181,-1.5181,-1.5181,-1.5181,-1.5181,-1.5181,-1.5181,-1.5181,-1.5269,-1.5425,-1.5581,-1.5723,-1.5872,-1.6029,-1.6083,-1.6083,0.0,0.0,0.0,0.0,0.0,0.0,0.0,0.0,0.0,0.0,-3.6016,-3.6016,0.0,0.0,0.0,0.0,0.0,0.0,0.0,0.0,-3.5947,-3.5724,-3.1791,-2.7834,-2.3879,-2.3514,-2.3354,-2.3327,-2.302,-2.2928,-2.2928,-2.2928,-2.2928,-2.2928,-2.2928,-2.2928,-2.2928,-2.2928,-2.2928,-2.2928,-2.2928,-2.2928,-2.2928,-2.2928,0.0,0.0,0.0,0.0,0.0,0.0,0.0,0.0,-1.9101,-1.8345,-1.8082,-1.8432,-1.718,-1.5734,-1.5908,-1.4646,-1.3403,-1.3403,-1.3403,-1.3403,-1.3403,-1.3403,-1.3403,-1.3403,-1.3403,-1.3403,-1.3403,-1.3641,-1.3838,-1.3838,-1.4095,-1.4299,-1.4299,-1.4299,-1.4299,-1.4299,-1.4299,-1.4299,-1.4299,-1.4299,-1.4299,-1.4299,-1.4434,-1.4577,-1.4733,-1.4889,-1.5038,-1.5174,-1.5181,-1.5181,-1.5181,-1.5181,-1.5181,-1.5181,-1.5181,-1.5181,-1.5181,-1.5181,-1.5181,-1.5181,-1.5181,-1.5181,-1.5181,-1.5201,-1.5296,-1.5445,-1.5601,-1.5744,-1.5893,-1.6029,-1.6083,-1.6083,0.0,0.0,0.0,0.0,0.0,0.0,0.0,0.0,0.0,0.0,0.0,0.0,0.0,0.0,0.0,0.0,0.0,0.0,0.0,0.0,-3.5314,-3.3882,-2.9823,-2.654,-2.4187,-2.3821,-2.3554,-2.3327,-2.302,-2.2928,-2.2928,-2.2928,-2.2928,-2.2928,-2.2928,-2.2928,-2.2928,-2.2928,-2.2928,-2.2928,-2.2928,-2.2928,-2.2928,-2.2928,-2.3006,0.0,0.0,0.0,0.0,0.0,0.0,0.0,-1.8194,-1.638,-1.4107,-1.5744,-1.4993,-1.3676,-1.3712,-1.352,-1.3403,-1.3403,-1.3403,-1.3403,-1.3403,-1.3403,-1.3403,-1.3403,-1.3403,-1.3403,-1.3403,-1.3641,-1.3838,-1.3838,-1.4095,-1.4299,-1.4299,-1.4299,-1.4299,-1.4299,-1.4299,-1.4299,-1.4299,-1.4299,-1.4299,-1.4299,-1.4434,-1.4577,-1.4733,-1.4889,-1.5038,-1.5174,-1.5181,-1.5181,-1.5181,-1.5181,-1.5181,-1.5181,-1.5181,-1.5181,-1.5181,-1.5181,-1.5181,-1.5181,-1.5181,-1.5181,-1.5194,-1.5309,-1.5452,-1.5601,-1.575,-1.59,-1.6035,-1.6069,-1.6083,-1.6083,0.0,0.0,0.0,0.0,0.0,0.0,0.0,0.0,0.0,0.0,0.0,0.0,0.0,0.0,0.0,0.0,0.0,0.0,0.0,0.0,-3.2455,-3.0539,-2.8386,-2.6388,-2.4409,-2.4128,-2.3834,-2.3541,-2.3233,-2.3006,-2.2928,-2.2928,-2.2928,-2.2928,-2.2928,-2.2928,-2.2928,-2.2928,-2.2928,-2.2928,-2.2928,-2.2928,-2.2928,-2.2928,-2.306,-2.3367,-2.3661,0.0,0.0,0.0,0.0,0.0,0.0,0.0,-1.2747,-1.3819,-1.3634,-1.2976,-1.3044,-1.3227,-1.3403,-1.3403,-1.3403,-1.3403,-1.3403,-1.3403,-1.3403,-1.3403,-1.3403,-1.3403,-1.3403,-1.3587,-1.3763,-1.3831,-1.4034,-1.4217,-1.4292,-1.4299,-1.4299,-1.4299,-1.4299,-1.4299,-1.4299,-1.4299,-1.4299,-1.4299,-1.4367,-1.4509,-1.4726,-1.4814,-1.4957,-1.5174,-1.5181,-1.5181,-1.5181,-1.5181,-1.5181,-1.5181,-1.5181,-1.5181,-1.5181,-1.5181,-1.5181,-1.5181,-1.5181,-1.5181,-1.5194,-1.535,-1.5499,-1.5655,-1.5798,-1.5947,-1.6083,-1.6083,-1.6083,-1.6083,0.0,0.0,0.0,0.0,0.0,0.0,0.0,0.0,0.0,0.0,0.0,0.0,0.0,0.0,0.0,0.0,0.0,0.0,0.0,0.0,0.0,-2.7578,-2.7215,-2.6284,-2.4636,-2.4396,-2.4142,-2.3848,-2.3554,-2.3247,-2.2939,-2.2886,-2.2928,-2.2928,-2.2928,-2.2928,-2.2928,-2.2928,-2.2928,-2.2928,-2.2928,-2.2928,-2.2941,-2.2926,-2.314,-2.3447,-2.3741,-2.3805,-2.3267,-2.0164,0.0,0.0,0.0,0.0,-1.2986,-1.2729,-1.282,-1.299,-1.3105,-1.3268,-1.3403,-1.3403,-1.3403,-1.3403,-1.3403,-1.3403,-1.3403,-1.3403,-1.3403,-1.3403,-1.3403,-1.3526,-1.3675,-1.3817,-1.3973,-1.4122,-1.4278,-1.4299,-1.4299,-1.4299,-1.4299,-1.4299,-1.4299,-1.4299,-1.4299,-1.4299,-1.4299,-1.4428,-1.4726,-1.474,-1.4875,-1.5174,-1.5181,-1.5181,-1.5181,-1.5181,-1.5181,-1.5181,-1.5181,-1.5181,-1.5181,-1.5181,-1.5181,-1.5181,-1.5181,-1.5181,-1.5194,-1.5377,-1.5527,-1.5655,-1.5825,-1.5967,-1.6083,-1.6083,-1.6083,-1.6083,0.0,0.0,0.0,0.0,0.0,0.0,0.0,0.0,0.0,0.0,-3.1087,-3.1087,0.0,0.0,0.0,0.0,0.0,0.0,0.0,0.0,0.0,-2.7505,-2.5859,-2.4844,-2.4636,-2.4596,-2.4436,-2.4142,-2.3848,-2.3554,-2.326,-2.2993,-2.2928,-2.2928,-2.2928,-2.2928,-2.2928,-2.2928,-2.2928,-2.2928,-2.2928,-2.2928,-2.2954,-2.3166,-2.3447,-2.3754,-2.4035,-2.3206,-2.1853,-2.1354,-2.0005,0.0,0.0,0.0,-1.4782,-1.3056,-1.2739,-1.2963,-1.2983,-1.3193,-1.3403,-1.3403,-1.3403,-1.3403,-1.3403,-1.3403,-1.3403,-1.3403,-1.3403,-1.3403,-1.3403,-1.3526,-1.3675,-1.3817,-1.3973,-1.4122,-1.4278,-1.4299,-1.4299,-1.4299,-1.4299,-1.4299,-1.4299,-1.4299,-1.4299,-1.4299,-1.4299,-1.4428,-1.4726,-1.474,-1.4875,-1.5174,-1.5181,-1.5181,-1.5181,-1.5181,-1.5181,-1.5181,-1.5181,-1.5181,-1.5181,-1.5181,-1.5181,-1.5181,-1.5181,-1.5181,-1.5208,-1.5493,-1.5622,-1.5662,-1.594,-1.6062,-1.6083,-1.6083,-1.6083,-1.6083,0.0,0.0,0.0,0.0,0.0,0.0,0.0,0.0,0.0,0.0,0.0,-3.031,0.0,0.0,0.0,-3.031,0.0,0.0,0.0,0.0,0.0,-2.5859,-2.5065,-2.4636,-2.4636,-2.4636,-2.4489,-2.4209,-2.4075,-2.3781,-2.3327,-2.3193,-2.3033,-2.2928,-2.2928,-2.2928,-2.2928,-2.2928,-2.2966,-2.3126,-2.3126,-2.322,-2.338,-2.3527,-2.3754,-2.4035,-2.4155,-2.3784,-2.3116,-2.1975,-2.0991,-1.993,-1.7891,0.0,0.0,0.0,-1.372,-1.2996,-1.3166,-1.3302,-1.3403,-1.3403,-1.3403,-1.3403,-1.3403,-1.3403,-1.3403,-1.3403,-1.3403,-1.3403,-1.3403,-1.3458,-1.3573,-1.3804,-1.3899,-1.4027,-1.4265,-1.4299,-1.4299,-1.4299,-1.4299,-1.4299,-1.4299,-1.4299,-1.4299,-1.4299,-1.4299,-1.4428,-1.4726,-1.474,-1.4875,-1.5174,-1.5181,-1.5181,-1.5181,-1.5181,-1.5181,-1.5181,-1.5181,-1.5181,-1.5181,-1.5181,-1.5181,-1.5181,-1.5181,-1.5228,-1.533,-1.5547,-1.5689,-1.5778,-1.5995,-1.6083,-1.6083,-1.6083,-1.6083,-1.6083,0.0,0.0,0.0,0.0,0.0,0.0,0.0,0.0,0.0,0.0,0.0,0.0,0.0,0.0,0.0,0.0,-2.7563,0.0,0.0,0.0,0.0,-2.4636,-2.4636,-2.4636,-2.4636,-2.4636,-2.4529,-2.4315,-2.4235,-2.3941,-2.3434,-2.3367,-2.3207,-2.2979,-2.2899,-2.2968,-2.2979,-2.2979,-2.3153,-2.3434,-2.3434,-2.3567,-2.3781,-2.3848,-2.4022,-2.4209,-2.4289,-2.4449,-2.4327,-2.2881,-2.236,-2.1975,-2.0005,-1.827,0.0,0.0,0.0,-1.3071,-1.3329,-1.3403,-1.3403,-1.3403,-1.3403,-1.3403,-1.3403,-1.3403,-1.3403,-1.3403,-1.3403,-1.3403,-1.3403,-1.3403,-1.3498,-1.379,-1.3838,-1.3946,-1.4258,-1.4299,-1.4299,-1.4299,-1.4299,-1.4299,-1.4299,-1.4299,-1.4299,-1.4299,-1.4299,-1.4428,-1.4726,-1.474,-1.4875,-1.5174,-1.5181,-1.5181,-1.5181,-1.5181,-1.5181,-1.5181,-1.5181,-1.5181,-1.5181,-1.5181,-1.5181,-1.5181,-1.5181,-1.5269,-1.5425,-1.5574,-1.5723,-1.5866,-1.6022,-1.6083,-1.6083,-1.6083,-1.6083,-1.6083,0.0,0.0,0.0,0.0,0.0,0.0,0.0,0.0,0.0,0.0,0.0,0.0,-2.4918,-2.4918,-2.4918,-2.4918,-2.477,-2.471,-2.4636,-2.4636,0.0,-2.4636,-2.4636,0.0,-2.4636,-2.4636,-2.4549,-2.4609,-2.4342,-2.4048,-2.3741,-2.346,-2.3313,-2.3287,-2.2993,-2.3033,-2.33,-2.33,-2.3474,-2.3754,-2.3754,-2.3754,-2.3794,-2.4075,-2.4195,-2.4235,-2.4516,-2.4623,-2.4562,-2.4488,-2.4414,-2.4105,-2.2049,-2.1365,-2.0586,0.0,0.0,0.0,-1.3356,-1.3403,-1.3403,-1.3403,-1.3403,-1.3403,-1.3403,-1.3403,-1.3403,-1.3403,-1.3403,-1.3403,-1.3403,-1.3403,-1.3498,-1.379,-1.3838,-1.3946,-1.4258,-1.4299,-1.4299,-1.4299,-1.4299,-1.4299,-1.4299,-1.4299,-1.4299,-1.4299,-1.4299,-1.4428,-1.4726,-1.474,-1.4875,-1.5174,-1.5181,-1.5181,-1.5181,-1.5181,-1.5181,-1.5181,-1.5181,-1.5181,-1.5181,-1.5181,-1.5181,-1.5181,-1.5181,-1.5269,-1.5425,-1.5574,-1.5723,-1.5866,-1.6022,-1.6083,-1.6083,-1.6083,-1.6083,-1.6083,0.0,0.0,0.0,0.0,0.0,0.0,0.0,0.0,0.0,0.0,0.0,0.0,0.0,-2.4636,-2.4636,-2.4636,-2.4636,-2.4636,-2.4636,-2.4636,0.0,-2.4636,-2.4636,-2.4636,-2.4636,-2.4636,-2.4636,-2.4636,-2.4529,-2.4329,-2.4048,-2.3941,-2.3794,-2.3594,-2.33,-2.3327,-2.3607,-2.3607,-2.3781,-2.4048,-2.4048,-2.4155,-2.4342,-2.4436,-2.4476,-2.4489,-2.4596,-2.4636,-2.4636,-2.4636,-2.4636,-2.4488,-2.3722,-2.2657,-2.0846,-1.7066,-1.4677,-1.3329,-1.339,-1.3403,-1.3403,-1.3403,-1.3403,-1.3403,-1.3403,-1.3403,-1.3403,-1.3403,-1.3403,-1.3403,-1.3403,-1.3403,-1.3464,-1.3675,-1.3783,-1.3912,-1.4122,-1.4238,-1.4299,-1.4299,-1.4299,-1.4299,-1.4299,-1.4299,-1.4299,-1.4299,-1.4299,-1.4428,-1.4726,-1.474,-1.4875,-1.5174,-1.5181,-1.5181,-1.5181,-1.5181,-1.5181,-1.5181,-1.5181,-1.5181,-1.5181,-1.5181,-1.5181,-1.5187,-1.5289,-1.5418,-1.556,-1.5615,-1.5778,-1.6008,-1.6062,-1.6083,-1.6083,-1.6083,-1.6083,-1.6083,0.0,0.0,0.0,0.0,0.0,0.0,0.0,0.0,0.0,-2.4636,0.0,0.0,0.0,0.0,-2.4636,-2.4636,-2.4636,-2.4636,-2.4636,-2.4636,-2.4636,-2.4636,-2.4636,-2.4636,-2.4636,-2.4636,-2.4636,-2.4636,-2.4636,-2.4489,-2.4209,-2.4209,-2.4102,-2.3901,-2.3714,-2.3728,-2.3915,-2.3915,-2.4088,-2.4342,-2.4342,-2.4462,-2.4636,-2.4636,-2.4636,-2.4636,-2.4636,-2.4636,-2.4636,-2.4636,-2.4703,-2.4783,-2.4783,-2.3455,-2.136,-1.815,-1.5926,-1.4293,-1.3562,-1.3403,-1.3403,-1.3403,-1.3403,-1.3403,-1.3403,-1.3403,-1.3403,-1.3403,-1.3403,-1.3403,-1.3403,-1.3403,-1.3451,-1.3607,-1.3749,-1.3892,-1.4048,-1.4204,-1.4299,-1.4299,-1.4299,-1.4299,-1.4299,-1.4299,-1.4299,-1.4299,-1.4299,-1.4428,-1.4726,-1.474,-1.4875,-1.5174,-1.5181,-1.5181,-1.5181,-1.5181,-1.5181,-1.5181,-1.5181,-1.5181,-1.5181,-1.5181,-1.5181,-1.5194,-1.5343,-1.5499,-1.5642,-1.5689,-1.5859,-1.6083,-1.6083,-1.6083,-1.6083,-1.6083,-1.6083,-1.6083,0.0,0.0,0.0,0.0,0.0,0.0,0.0,0.0,-2.4636,-2.4636,0.0,0.0,0.0,0.0,0.0,-2.4636,-2.4636,-2.4636,-2.4636,-2.4636,-2.4636,-2.4636,0.0,0.0,-2.4636,-2.4636,-2.4636,-2.4636,-2.4636,-2.4489,-2.4222,-2.4222,-2.4222,-2.4222,-2.4222,-2.4222,-2.4222,-2.4222,-2.4382,-2.4636,-2.4636,-2.4636,-2.4636,-2.4636,-2.4636,-2.4636,-2.4636,-2.4636,-2.4636,-2.4649,-2.4836,-2.5077,-2.509,-2.3996,-2.228,-2.0199,-1.8186,-1.6164,0.0,0.0,0.0,-1.3403,-1.3403,-1.3403,-1.3403,-1.3403,-1.3403,-1.3403,-1.3403,-1.3403,-1.3403,-1.3403,-1.3451,-1.36,-1.3743,-1.3892,-1.4041,-1.4197,-1.4299,-1.4299,-1.4299,-1.4299,-1.4299,-1.4299,-1.4299,-1.4299,-1.4299,-1.4428,-1.4726,-1.4746,-1.4882,-1.5174,-1.5181,-1.5181,-1.5181,-1.5181,-1.5181,-1.5181,-1.5181,-1.5181,-1.5181,-1.5181,-1.5181,-1.5194,-1.535,-1.5499,-1.5649,-1.5791,-1.594,-1.6083,-1.6083,-1.6083,-1.6083,-1.6083,-1.6083,-1.6083,0.0,0.0,0.0,0.0,0.0,0.0,-2.4636,-2.4636,-2.4636,0.0,0.0,0.0,-2.4636,-2.4636,-2.4636,-2.4636,-2.4636,-2.4636,-2.4636,-2.4636,-2.4636,-2.4636,-2.4636,-2.4636,-2.4636,-2.4636,-2.4636,-2.4636,-2.4636,-2.4596,-2.4516,-2.4516,-2.4516,-2.4516,-2.4516,-2.4516,-2.4516,-2.4516,-2.4569,-2.4636,-2.4636,-2.4636,-2.4636,-2.4636,-2.4636,-2.4636,-2.4636,-2.4636,-2.4676,-2.489,-2.501,-2.5117,-2.5331,-2.4148,-2.2595,-2.1964,-1.9313,-1.6483,-1.5917,0.0,0.0,0.0,0.0,0.0,-1.3403,-1.3403,-1.3403,-1.3403,-1.3403,-1.3403,-1.3403,-1.3403,-1.3417,-1.3458,-1.3675,-1.3858,-1.3899,-1.4129,-1.4299,-1.4299,-1.4299,-1.4299,-1.4299,-1.4299,-1.4299,-1.4299,-1.4299,-1.4428,-1.4726,-1.4943,-1.5099,-1.5181,-1.5181,-1.5181,-1.5181,-1.5181,-1.5181,-1.5181,-1.5181,-1.5181,-1.5181,-1.5181,-1.5181,-1.5194,-1.5459,-1.5601,-1.5649,-1.5791,-1.594,-1.6083,-1.6083,-1.6083,-1.6083,-1.6083,-1.6083,-1.6083,0.0,0.0,0.0,0.0,0.0,-2.4636,-2.4636,-2.4636,-2.4636,0.0,0.0,0.0,-2.4636,-2.4636,-2.4636,-2.4636,-2.4636,-2.4636,-2.4636,-2.4636,-2.4636,-2.4636,-2.4636,-2.4636,-2.4636,-2.4636,-2.4636,-2.4636,-2.4636,-2.4636,-2.4636,-2.4636,-2.4636,-2.4636,-2.4636,-2.4636,-2.4636,-2.4636,-2.4636,-2.4636,-2.4636,-2.4636,-2.4636,-2.4636,-2.4716,-2.4823,-2.4823,-2.4903,-2.5024,-2.5197,-2.5344,-2.5491,-2.5785,-2.5114,-2.4037,-2.3155,-2.1162,-1.9085,-1.8191,-1.641,-1.4698,-1.4698,0.0,0.0,-1.3403,-1.3403,-1.3403,-1.3403,-1.3403,-1.3403,-1.3403,-1.3403,-1.3403,-1.3403,-1.3648,-1.3838,-1.3838,-1.4109,-1.4299,-1.4299,-1.4299,-1.4299,-1.4299,-1.4299,-1.4299,-1.4299,-1.4299,-1.4428,-1.4726,-1.5025,-1.5181,-1.5181,-1.5181,-1.5181,-1.5181,-1.5181,-1.5181,-1.5181,-1.5181,-1.5181,-1.5181,-1.5181,-1.5181,-1.5201,-1.5506,-1.5642,-1.5655,-1.5866,-1.6001,-1.6083,-1.6083,-1.6083,-1.6083,-1.6083,-1.6083,-1.6083,0.0,0.0,-2.4636,-2.4636,-2.4636,-2.4636,-2.4636,-2.4636,-2.4636,0.0,-2.4636,-2.4636,-2.4636,-2.4636,-2.4636,-2.4636,-2.4636,-2.4636,-2.4636,-2.4636,-2.4636,-2.4636,-2.4636,-2.4636,-2.4636,-2.4636,-2.4636,-2.4636,-2.4636,-2.4636,-2.4636,-2.4636,-2.4636,-2.4636,-2.4636,-2.4636,-2.4636,-2.4636,-2.4649,-2.469,-2.4576,-2.4649,-2.469,-2.469,-2.4863,-2.513,-2.513,-2.5291,-2.5518,-2.5545,-2.5758,-2.613,-2.6306,-2.6386,-2.5977,-2.4031,-2.33,-2.2659,-2.0797,0.0,0.0,-1.6647,-1.5185,0.0,-1.348,-1.3403,-1.3403,-1.3403,-1.3403,-1.3403,-1.3403,-1.3403,-1.3403,-1.3403,-1.3648,-1.3838,-1.3838,-1.4109,-1.4299,-1.4299,-1.4299,-1.4299,-1.4299,-1.4299,-1.4299,-1.4299,-1.4333,-1.4462,-1.4726,-1.5025,-1.5181,-1.5181,-1.5181,-1.5181,-1.5181,-1.5181,-1.5181,-1.5181,-1.5181,-1.5181,-1.5181,-1.5181,-1.5194,-1.5221,-1.5513,-1.5649,-1.5683,-1.5967,-1.6083,-1.6083,-1.6083,-1.6083,-1.6083,-1.6083,-1.6083,-1.6083,0.0,0.0,-2.4636,-2.4636,-2.4636,-2.4636,-2.4636,-2.4636,-2.4636,-2.4636,-2.4636,-2.4636,-2.4636,-2.4636,-2.4636,-2.4636,-2.4636,-2.4636,-2.4636,-2.4636,-2.4636,-2.4636,-2.4636,-2.4636,-2.4636,-2.4636,-2.4636,-2.4636,-2.4636,-2.4636,-2.4636,-2.4636,-2.4636,-2.4636,-2.4636,-2.4636,-2.4636,-2.4636,-2.477,-2.497,-2.473,-2.4783,-2.4997,-2.4997,-2.517,-2.5424,-2.5424,-2.5464,-2.5545,-2.5785,-2.6066,-2.6319,-2.6373,-2.6386,-2.6307,-2.5898,-2.4522,-2.298,-2.2568,-2.0878,-1.8851,-1.7057,-1.6328,0.0,-1.3811,-1.3403,-1.3403,-1.3403,-1.3403,-1.3403,-1.3403,-1.3403,-1.3403,-1.3403,-1.3648,-1.3838,-1.3838,-1.4109,-1.4299,-1.4299,-1.4299,-1.4299,-1.4299,-1.4299,-1.4299,-1.4299,-1.4523,-1.4679,-1.4733,-1.5025,-1.5181,-1.5181,-1.5181,-1.5181,-1.5181,-1.5181,-1.5181,-1.5181,-1.5181,-1.5181,-1.5181,-1.5181,-1.5248,-1.5377,-1.556,-1.5703,-1.5825,-1.6008,-1.6083,-1.6083,-1.6083,-1.6083,-1.6083,-1.6083,-1.6083,-1.6083,-2.4636,-2.4636,-2.4636,-2.4636,-2.4636,-2.4636,-2.4636,-2.4636,-2.4636,-2.4636,-2.4636,-2.4636,-2.4636,-2.4636,-2.4636,-2.4636,-2.4636,0.0,0.0,-2.4636,-2.4636,-2.4636,-2.4636,-2.4636,-2.4636,-2.4636,-2.4636,-2.4636,-2.4636,-2.4636,-2.4636,-2.4636,-2.4716,-2.4863,-2.4863,-2.4943,-2.5077,-2.5077,-2.5157,-2.5264,-2.497,-2.5037,-2.5291,-2.5291,-2.5478,-2.5732,-2.5732,-2.5825,-2.5972,-2.6119,-2.6266,-2.6386,-2.6386,-2.6386,-2.6386,-2.6386,-2.5568,-2.4761,-2.4761,-2.314,-2.12,-2.014,-1.8191,0.0,0.0,-1.4135,-1.3403,-1.3403,-1.3403,-1.3403,-1.3403,-1.3403,-1.3403,-1.3403,-1.3648,-1.3838,-1.3838,-1.4109,-1.4299,-1.4299,-1.4299,-1.4299,-1.4299,-1.4299,-1.4299,-1.4299,-1.457,-1.474,-1.474,-1.5025,-1.5181,-1.5181,-1.5181,-1.5181,-1.5181,-1.5181,-1.5181,-1.5181,-1.5181,-1.5181,-1.5181,-1.5181,-1.5269,-1.5418,-1.5574,-1.5723,-1.5866,-1.6015,-1.6083,-1.6083,-1.6083,-1.6083,-1.6083,-1.6083,-1.6083,-1.6083,-2.481,-2.4756,-2.4716,-2.4716,-2.4676,-2.4636,-2.4636,0.0,-2.4636,-2.4636,-2.469,-2.4703,-2.4649,-2.4636,-2.4636,-2.4636,-2.4636,0.0,-2.4636,-2.4636,-2.4636,-2.4636,-2.4636,-2.4636,-2.4636,-2.4636,-2.4636,-2.4636,-2.469,-2.4716,-2.4716,-2.4783,-2.493,-2.5157,-2.5157,-2.5291,-2.5518,-2.5518,-2.5545,-2.5571,-2.5344,-2.5384,-2.5598,-2.5598,-2.5785,-2.6117,-2.6117,-2.6186,-2.6386,-2.6386,-2.6386,-2.6386,-2.6386,-2.6386,-2.6386,-2.6386,-2.6386,-2.6386,-2.6386,-2.5092,-2.362,-2.322,-2.0463,-1.762,0.0,0.0,0.0,-1.3486,-1.3403,-1.3403,-1.3403,-1.3403,-1.3403,-1.3403,-1.3648,-1.3838,-1.3838,-1.4109,-1.4299,-1.4299,-1.4299,-1.4299,-1.4299,-1.4299,-1.4299,-1.4299,-1.457,-1.474,-1.474,-1.5025,-1.5181,-1.5181,-1.5181,-1.5181,-1.5181,-1.5181,-1.5181,-1.5181,-1.5181,-1.5181,-1.5181,-1.5181,-1.5282,-1.5459,-1.5588,-1.5737,-1.5906,-1.6029,-1.6083,-1.6083,-1.6083,-1.6083,-1.6083,-1.6083,-1.6083,-1.6083,-2.5411,-2.5211,-2.5024,-2.5024,-2.481,-2.4636,0.0,0.0,-2.4636,-2.4636,-2.4863,-2.493,-2.4663,-2.4636,-2.4636,-2.4636,-2.4636,-2.4636,-2.4636,-2.4636,-2.4636,-2.4636,-2.4636,-2.4636,-2.4636,-2.4636,-2.4636,-2.4636,-2.4903,-2.5024,-2.5037,-2.5291,-2.5438,-2.5464,-2.5464,-2.5478,-2.5518,-2.5518,-2.5665,-2.5905,-2.5943,-2.5956,-2.5905,-2.5905,-2.6079,-2.6333,-2.6333,-2.636,-2.6386,-2.6386,-2.6386,-2.6386,-2.6386,-2.6386,-2.6386,-2.6386,-2.6386,-2.6386,-2.6386,-2.6228,-2.5568,-2.3632,-2.274,-2.1351,-1.7456,0.0,-1.5671,-1.3811,0.0,-1.3403,-1.3403,0.0,0.0,-1.3403,-1.3648,-1.3838,-1.3838,-1.4109,-1.4299,-1.4299,-1.4299,-1.4299,-1.4299,-1.4299,-1.4299,-1.4299,-1.457,-1.474,-1.474,-1.5025,-1.5181,-1.5181,-1.5181,-1.5181,-1.5181,-1.5181,-1.5181,-1.5181,-1.5181,-1.5181,-1.5181,-1.5181,-1.5343,-1.5615,-1.5635,-1.5798,-1.6056,-1.6076,-1.6083,-1.6083,-1.6083,-1.6083,-1.6083,-1.6083,-1.6083,-1.6083,-2.5585,-2.5411,-2.5331,-2.5331,-2.5224,0.0,0.0,0.0,-2.5144,-2.5144,-2.5251,-2.5291,-2.5157,-2.5144,-2.5144,-2.5144,-2.5144,-2.5144,-2.5144,-2.5144,-2.5144,-2.5144,-2.3909,-2.329,-2.329,-2.2048,-2.1971,-2.329,-2.3401,-2.4087,-2.5331,-2.4201,-2.3711,-2.386,-2.386,-2.3947,-2.4174,-2.5466,-2.6092,-2.6213,-2.6213,-2.6213,-2.6213,-2.6213,-2.6279,-2.6386,-2.6386,-2.6386,-2.6386,-2.6386,-2.6386,-2.6386,-2.6386,-2.6386,-2.6386,-2.6386,-2.6386,-2.6386,-2.6386,-2.6386,-2.6149,-2.5251,-2.4031,-2.2327,-1.9248,-1.7547,-1.5999,-1.3811,0.0,0.0,0.0,0.0,0.0,0.0,-1.3648,-1.3838,-1.3838,-1.4109,-1.4299,-1.4299,-1.4299,-1.4299,-1.4299,-1.4299,-1.4299,-1.4299,-1.457,-1.474,-1.474,-1.5025,-1.5181,-1.5181,-1.5181,-1.5181,-1.5181,-1.5181,-1.5181,-1.5181,-1.5181,-1.5181,-1.5181,-1.5181,-1.535,-1.5642,-1.5642,-1.5805,-1.6083,-1.6083,-1.6083,-1.6083,-1.6083,-1.6083,-1.6083,-1.6083,-1.6083,-1.6083,-2.5838,-2.5692,-2.5638,-2.5638,-2.5571,-2.5518,0.0,-2.5585,-2.5598,-2.5518,-2.5585,-2.5598,-2.5518,-2.5518,-2.5518,-2.5518,-2.5518,-2.5518,-2.5518,-2.4956,-2.4649,-2.4649,-2.2531,-2.1435,-2.1435,-1.9855,-1.9777,-2.1435,-2.1502,-2.2315,-2.3813,-2.2319,-2.1739,-2.1907,-2.1907,-2.2009,-2.2327,-2.3952,-2.4933,-2.5489,-2.5489,-2.5819,-2.6386,-2.6386,-2.6386,-2.6386,-2.6386,-2.6386,-2.6386,-2.6386,-2.6386,-2.6386,-2.6386,-2.6386,-2.6386,-2.6386,-2.6386,-2.6386,-2.6386,-2.6386,-2.6386,-2.6386,-2.5171,-2.33,-2.0554,-1.8689,-1.6729,-1.3969,-1.3403,0.0,0.0,0.0,-1.3417,-1.3458,0.0,-1.3858,-1.3899,-1.4129,-1.4299,-1.4299,-1.4299,-1.4299,-1.4299,-1.4299,-1.4299,-1.4299,-1.457,-1.474,-1.474,-1.5025,-1.5181,-1.5181,-1.5181,-1.5181,-1.5181,-1.5181,-1.5181,-1.5181,-1.5181,-1.5181,-1.5181,-1.5228,-1.5391,-1.5642,-1.5683,-1.5845,-1.6083,-1.6083,-1.6083,-1.6083,-1.6083,-1.6083,-1.6083,-1.6083,-1.6083,-1.6083,-2.636,-2.6132,-2.5945,-2.5945,-2.5705,-2.5518,-2.5518,-2.5758,-2.5838,-2.5545,-2.5758,-2.5825,-2.5545,-2.5518,-2.5518,-2.5518,-2.5518,-2.5518,-2.5518,-2.356,-2.2377,-2.2377,-2.0323,-1.9141,-1.9141,-1.9063,-1.9063,-1.9141,-1.9442,-1.9622,-1.9712,-1.9856,-1.9968,-1.9978,-1.9978,-1.9978,-1.9988,-2.0069,-2.1281,-2.322,-2.322,-2.4522,-2.6386,-2.6386,-2.6386,-2.6386,-2.6386,-2.6386,-2.6386,-2.6386,-2.6386,0.0,0.0,0.0,0.0,0.0,0.0,0.0,0.0,0.0,0.0,-2.6386,-2.6386,-2.5171,0.0,0.0,-1.8607,0.0,0.0,0.0,0.0,0.0,0.0,0.0,0.0,0.0,0.0,-1.4197,-1.4299,-1.4299,-1.4299,-1.4299,-1.4299,-1.4299,-1.4299,-1.4299,-1.457,-1.474,-1.474,-1.5025,-1.5181,-1.5181,-1.5181,-1.5181,-1.5181,-1.5181,-1.5181,-1.5181,-1.5181,-1.5181,-1.5187,-1.5337,-1.5493,-1.5649,-1.5784,-1.5934,-1.6083,-1.6083,-1.6083,-1.6083,-1.6083,-1.6083,-1.6083,-1.6083,-1.6083,-1.6083,-2.2086,-2.203,-2.2852,-2.5754,-2.6159,-2.5609,-2.4157,-2.5216,-2.5714,-2.4091,-2.5295,-2.6199,-2.6106,-2.6092,-2.6092,-2.6092,-2.6092,-2.5453,-2.4,-2.3198,-2.2168,-2.0804,-1.8631,-1.7423,-1.7423,-1.5983,-1.5983,-1.7423,-1.7566,-1.8332,-1.9705,-1.8326,-1.771,-1.771,-1.771,-1.771,-1.7792,-1.9258,-2.0312,-2.112,-2.2487,-2.4442,-2.6386,-2.6386,-2.6386,-2.6386,-2.6386,-2.6386,0.0,-2.6386,-2.6386,-2.6386,-2.6386,-2.6386,-2.6386,-2.6386,-2.6386,-2.6386,0.0,0.0,-2.6386,-2.6386,0.0,0.0,0.0,0.0,0.0,0.0,0.0,0.0,0.0,0.0,0.0,0.0,0.0,0.0,0.0,-1.4204,-1.4299,-1.4299,-1.4299,-1.4299,-1.4299,-1.4299,-1.4299,-1.4299,-1.457,-1.474,-1.474,-1.5025,-1.5181,-1.5181,-1.5181,-1.5181,-1.5181,-1.5181,-1.5181,-1.5181,-1.5181,-1.5181,-1.5187,-1.5343,-1.5493,-1.5649,-1.5791,-1.594,-1.6083,-1.6083,-1.6083,-1.6083,-1.6083,-1.6083,-1.6083,-1.6083,-1.6083,-1.6083,-1.9907,-1.9907,-2.0797,-2.3632,-2.4111,-2.3632,-2.2166,-2.314,-2.3552,-2.2166,-2.322,-2.4111,-2.4111,-2.4111,-2.4111,-2.4111,-2.4111,-2.3472,-2.2086,-2.119,-2.014,-1.877,-1.6656,-1.5432,-1.5432,-1.4135,-1.4052,-1.5432,-1.5432,-1.6164,-1.7556,-1.6164,-1.5432,-1.5432,-1.5432,-1.5432,-1.5597,-1.6983,-1.8037,-1.9014,-2.1925,-2.3952,-2.533,-2.607,-2.6386,-2.6386,0.0,-2.6386,-2.6386,-2.6386,-2.6386,-2.6386,-2.6386,-2.6386,-2.6386,-2.6386,-2.6386,-2.6386,-2.6386,-2.6386,0.0,-2.6386,-2.6386,0.0,-2.362,0.0,-2.2301,0.0,0.0,0.0,0.0,0.0,0.0,0.0,0.0,0.0,0.0,-1.4238,-1.4299,-1.4299,-1.4299,-1.4299,-1.4299,-1.4299,-1.4319,-1.4373,-1.4604,-1.4767,-1.4821,-1.5052,-1.5181,-1.5181,-1.5181,-1.5181,-1.5181,-1.5181,-1.5181,-1.5181,-1.5181,-1.5208,-1.5269,-1.5418,-1.5574,-1.5723,-1.5872,-1.5988,-1.6083,-1.6083,-1.6083,-1.6083,-1.6083,-1.6083,-1.6083,-1.6083,-1.6083,-1.6083,-1.9582,-1.9582,-1.9582,-1.9582,-1.9745,-1.9826,-1.9745,-1.9826,-1.9826,-1.9745,-1.9826,-1.9907,-1.9907,-1.9907,-1.9907,-1.9907,-1.9907,-1.9826,-1.9745,-1.7792,-1.6565,-1.6483,-1.4458,-1.3403,-1.3403,-1.3403,-1.3403,-1.3403,-1.3403,-1.3403,-1.3403,-1.3403,-1.3403,-1.3403,-1.3403,-1.3403,-1.3403,-1.3403,-1.4623,-1.6975,-2.1109,-2.282,-2.314,-2.5251,-2.6149,-2.6228,-2.6386,-2.6386,-2.6386,-2.6386,-2.6386,-2.6386,-2.6386,-2.6386,-2.6386,-2.6386,-2.6386,-2.6386,-2.6413,-2.6413,-2.6413,-2.6426,-2.6426,0.0,0.0,0.0,-2.3132,0.0,0.0,0.0,0.0,0.0,0.0,0.0,0.0,0.0,0.0,-1.4299,-1.4299,-1.4299,-1.4299,-1.4299,-1.4299,-1.4299,-1.436,-1.4502,-1.4652,-1.4808,-1.4964,-1.5106,-1.5181,-1.5181,-1.5181,-1.5181,-1.5181,-1.5181,-1.5181,-1.5181,-1.5181,-1.5262,-1.5418,-1.5567,-1.5716,-1.5859,-1.6015,-1.6083,-1.6083,-1.6083,-1.6083,-1.6083,-1.6083,-1.6083,-1.6083,-1.6083,-1.6083,-1.6083,-1.5028,-1.5028,-1.5028,-1.5028,-1.7719,-1.9339,-1.771,-1.8851,-1.9339,-1.7629,-1.8851,-1.9907,-1.9907,-1.9907,-1.9907,-1.9907,-1.9907,-1.9176,-1.7547,-1.6893,-1.5917,-1.4293,-1.3728,-1.3403,-1.3403,-1.3403,-1.3403,-1.3403,-1.3403,-1.3403,-1.3403,-1.3403,-1.3403,-1.3403,-1.3403,-1.3403,-1.3403,-1.3403,-1.4623,-1.6729,-1.7783,-1.9248,-2.0797,-2.1362,-2.2579,-2.4191,-2.5819,-2.6386,-2.6386,-2.6386,-2.6386,-2.6386,-2.6386,-2.6386,-2.6386,-2.6386,-2.6386,-2.644,-2.6653,-2.6707,-2.676,-2.6987,-2.7041,-2.696,0.0,0.0,0.0,0.0,0.0,0.0,0.0,0.0,0.0,0.0,0.0,0.0,0.0,-1.4299,-1.4299,-1.4299,-1.4299,-1.4299,-1.4299,-1.4299,-1.436,-1.4502,-1.4652,-1.4808,-1.4964,-1.5106,-1.5181,-1.5181,-1.5181,-1.5181,-1.5181,-1.5181,-1.5181,-1.5181,-1.5181,-1.5262,-1.5418,-1.5567,-1.5716,-1.5859,-1.6015,-1.6083,-1.6083,-1.6083,-1.6083,-1.6083,-1.6083,-1.6083,-1.6083,-1.6083,-1.6083,-1.6083,-1.3403,-1.3403,-1.3403,-1.3403,-1.544,-1.6656,-1.535,-1.6254,-1.6574,-1.535,-1.6254,-1.7065,-1.7065,-1.7065,-1.7065,-1.7065,-1.7065,-1.6492,-1.5267,-1.5185,-1.4623,-1.3486,-1.3403,-1.3403,-1.3403,-1.3403,-1.3403,-1.3403,-1.3403,-1.3403,-1.3403,-1.3403,-1.3403,-1.3403,-1.3403,-1.3403,-1.3403,-1.3403,-1.4135,-1.5267,-1.6246,-1.7384,0.0,-1.9501,-2.12,-2.322,-2.4522,-2.5568,-2.6386,-2.6386,-2.6386,-2.6413,-2.6533,-2.6573,-2.66,-2.6734,-2.6774,-2.6814,-2.6974,-2.7014,-2.7054,-2.7228,-2.7268,-2.7268,-2.7268,-2.7362,-2.7112,0.0,-2.5687,-2.5059,0.0,0.0,0.0,0.0,0.0,0.0,0.0,-1.4299,-1.4299,-1.4299,-1.4299,-1.4299,-1.4299,-1.4353,-1.4455,-1.4604,-1.4753,-1.4909,-1.5059,-1.514,-1.5181,-1.5181,-1.5181,-1.5181,-1.5181,-1.5181,-1.5181,-1.5181,-1.5181,-1.5296,-1.5513,-1.5601,-1.5757,-1.5961,-1.6042,-1.6083,-1.6083,-1.6083,-1.6083,-1.6083,-1.6083,-1.6083,-1.6083,-1.6083,-1.6083,-1.6083,-1.3403,-1.3403,-1.3403,-1.3403,-1.3403,-1.3403,-1.3403,-1.3403,-1.3403,-1.3403,-1.3403,-1.3403,-1.3403,-1.3403,-1.3403,-1.3403,-1.3403,-1.3403,-1.3403,-1.3403,-1.3403,-1.3403,-1.3403,-1.3403,-1.3403,-1.3403,-1.3403,-1.3403,-1.3403,-1.3403,-1.3403,-1.3403,-1.3403,-1.3403,-1.3403,-1.3403,-1.3403,-1.3403,-1.3403,-1.3562,-1.5432,-1.6164,-1.641,-1.8309,-2.0434,-2.2303,-2.2659,-2.4357,-2.6453,-2.6453,-2.6466,-2.6547,-2.68,-2.6881,-2.6934,-2.7188,-2.7268,-2.7268,-2.7308,-2.7321,-2.7335,-2.7375,-2.7375,-2.7375,-2.7375,-2.7575,-2.7762,-2.7762,-2.7963,-2.8136,0.0,0.0,0.0,0.0,0.0,0.0,0.0,-1.4476,-1.4299,-1.4299,-1.4299,0.0,-1.4326,-1.4441,-1.4577,-1.4726,-1.4882,-1.5031,-1.5174,-1.5181,-1.5181,-1.5181,-1.5181,-1.5181,-1.5181,-1.5181,-1.5181,-1.5181,-1.5201,-1.5364,-1.5642,-1.5655,-1.5818,-1.6083,-1.6083,-1.6083,-1.6083,-1.6083,-1.6083,-1.6083,-1.6083,-1.6083,-1.6083,-1.6083,-1.6083,-1.6083,-1.3403,-1.3403,-1.3403,-1.3403,-1.3403,-1.3403,-1.3403,-1.3403,-1.3403,-1.3403,-1.3403,-1.3403,-1.3403,-1.3403,-1.3403,-1.3403,-1.3403,-1.3403,-1.3403,-1.3403,-1.3403,-1.3403,-1.3403,-1.3403,-1.3403,-1.3403,-1.3403,-1.3403,-1.3403,-1.3403,-1.3403,-1.3403,-1.3403,-1.3403,-1.3403,-1.3403,-1.3403,-1.3403,-1.3403,-1.3397,-1.3804,-1.3969,-1.3983,-1.4528,-1.6068,-1.822,-2.0289,-2.347,-2.6747,-2.6747,-2.6907,-2.7121,-2.7175,-2.7188,-2.7201,-2.7255,-2.7268,-2.7321,-2.7562,-2.7629,-2.7682,-2.8006,-2.8073,-2.8073,-2.8073,-2.8114,-2.8154,-2.8154,-2.8194,-2.7617,-2.5641,0.0,0.0,0.0,0.0,0.0,0.0,0.0,-1.4299,-1.4299,-1.4299,-1.4346,-1.4462,-1.4496,-1.4577,-1.4726,-1.4882,-1.5031,-1.5174,-1.5181,-1.5181,-1.5181,-1.5181,-1.5181,0.0,-1.5181,-1.5181,-1.5181,-1.5309,-1.5466,-1.5642,-1.5764,-1.5913,-1.6083,-1.6083,-1.6083,-1.6083,-1.6083,-1.6083,-1.6083,-1.6083,-1.6083,-1.6083,-1.6083,-1.6083,-1.6083,-1.3403,-1.3403,-1.3403,-1.3403,-1.3403,-1.3403,-1.3403,-1.3403,-1.3403,-1.3403,-1.3403,-1.3403,-1.3403,-1.3403,-1.3403,-1.3403,-1.3403,-1.3403,-1.3403,-1.3403,-1.3403,-1.3403,-1.3403,-1.3403,-1.3403,-1.3403,-1.3403,-1.3403,-1.3403,-1.3403,-1.3403,-1.3403,-1.3403,-1.3403,-1.3403,-1.3403,-1.3403,-1.3403,-1.3403,-1.341,-1.3485,-1.3519,-1.3539,-1.3682,-1.5078,-1.7339,-1.9771,-2.266,-2.5577,-2.6688,-2.7148,-2.7295,-2.7442,-2.7495,-2.7522,-2.7752,-2.7805,-2.7749,-2.7896,-2.7923,-2.7963,-2.8194,-2.8221,-2.8221,-2.8221,-2.8221,-2.8221,-2.8221,-2.8221,-2.7448,-2.5117,-2.3824,0.0,0.0,0.0,0.0,0.0,0.0,-1.4407,-1.4407,-1.4482,-1.4557,-1.4624,-1.4699,-1.478,-1.4855,-1.4997,-1.5113,-1.5181,-1.5181,-1.5181,-1.5181,-1.5181,0.0,-1.5181,0.0,-1.5181,-1.5181,-1.5337,-1.5493,-1.5642,-1.5784,-1.594,-1.6083,-1.6083,-1.6083,-1.6083,-1.6083,-1.6083,-1.6083,-1.6083,-1.6083,-1.6083,-1.6083,-1.6083,-1.6083,-1.3403,-1.3403,-1.3403,-1.3403,-1.3403,-1.3403,-1.3403,-1.3403,-1.3403,-1.3403,-1.3403,-1.3403,-1.3403,-1.3403,-1.3403,-1.3403,-1.3403,-1.3403,-1.3403,-1.3403,-1.3403,-1.3403,-1.3403,-1.3403,-1.3403,-1.3403,-1.3403,-1.3403,-1.3403,-1.3403,-1.3403,-1.3403,-1.3403,-1.3403,-1.3403,-1.3417,-1.3451,-1.3451,-1.3464,-1.3505,-1.3627,-1.3675,-1.3688,-1.3831,-1.4993,-1.6864,-1.9673,-2.1663,-2.3241,-2.5841,-2.7112,-2.7495,-2.7722,-2.7789,-2.7843,-2.8154,-2.8221,-2.8221,-2.8221,-2.8221,-2.8221,-2.8221,-2.8221,-2.8221,-2.8221,-2.8221,-2.8221,-2.8221,-2.8221,-2.7643,-2.5885,-2.5555,0.0,0.0,0.0,0.0,0.0,0.0,-1.4563,-1.4563,-1.4665,-1.4753,-1.4787,-1.4903,-1.4984,-1.5011,-1.512,-1.5181,-1.5181,-1.5181,-1.5181,-1.5181,-1.5181,-1.5181,-1.5181,0.0,-1.5201,-1.5235,-1.5384,-1.554,-1.5689,-1.5832,-1.5967,-1.6083,-1.6083,-1.6083,-1.6083,-1.6083,-1.6083,-1.6083,-1.6083,-1.6083,-1.6083,-1.6083,-1.6083,-1.6083,-1.3403,-1.3403,-1.3403,-1.3403,-1.3403,-1.3403,-1.3403,-1.3403,-1.3403,-1.3403,-1.3403,-1.3403,-1.3403,-1.3403,-1.3403,-1.3403,-1.3403,-1.3403,-1.3403,-1.3403,-1.3403,-1.3403,-1.3403,-1.3403,-1.3403,-1.3403,-1.3403,-1.3403,0.0,-1.3403,-1.3403,-1.3403,-1.3403,-1.3403,-1.3403,0.0,0.0,-1.3607,-1.3682,-1.3797,-1.3817,-1.3824,-1.3838,-1.3994,-1.4222,-1.501,-1.954,-1.9962,-1.9026,-2.3499,-2.6343,-2.8154,-2.8181,-2.8181,-2.8194,-2.8221,-2.8221,-2.8221,-2.8221,-2.8221,-2.8221,-2.8221,-2.8221,-2.8221,-2.8221,-2.8221,-2.8221,-2.8221,-2.8221,-2.823,-2.8241,-2.8208,-2.7413,0.0,0.0,0.0,0.0,0.0,-1.4719,-1.4719,0.0,0.0,-1.4936,-1.4964,-1.5025,-1.5153,-1.5174,-1.5181,-1.5181,-1.5181,-1.5181,-1.5181,-1.5181,-1.5181,-1.5181,-1.5181,-1.5255,-1.5391,-1.5547,-1.5689,-1.5839,-1.5988,-1.6069,-1.6083,-1.6083,-1.6083,-1.6083,-1.6083,-1.6083,-1.6083,-1.6083,-1.6083,-1.6083,-1.6083,-1.6083,-1.6083,-1.3403,-1.3403,-1.3403,-1.3403,-1.3403,-1.3403,-1.3403,-1.3403,-1.3403,-1.3403,-1.3403,-1.3403,-1.3403,-1.3403,-1.3403,-1.3403,-1.3403,-1.3403,-1.3403,-1.3403,-1.3403,-1.3403,-1.3403,-1.3403,-1.3403,-1.3403,-1.3403,-1.3403,0.0,-1.3403,-1.3403,-1.3403,-1.3451,0.0,0.0,-1.362,-1.3756,-1.3756,-1.379,-1.3851,-1.3939,-1.398,-1.3994,-1.415,-1.4211,-1.465,-1.8,-1.854,-1.8279,-2.148,-2.4166,-2.6066,-2.6066,-2.7096,-2.8221,-2.8221,-2.8221,-2.8221,-2.8221,-2.8221,-2.8274,-2.8377,-2.8417,-2.847,-2.8644,-2.8684,-2.8684,-2.8684,-2.8684,-2.8724,-2.8845,-2.8871,-2.8104,-2.5894,0.0,0.0,0.0,0.0,0.0,-1.5059,0.0,-1.5031,-1.5092,-1.5099,-1.512,-1.5181,-1.5181,-1.5181,-1.5181,-1.5181,-1.5181,-1.5181,0.0,-1.5181,-1.5181,-1.5276,-1.535,-1.5411,-1.5655,-1.5798,-1.5859,-1.6008,-1.6083,-1.6083,-1.6083,-1.6083,-1.6083,-1.6083,-1.6083,-1.6083,-1.6083,-1.6083,-1.6083,-1.6083,-1.6083,-1.6083,-1.3403,-1.3403,-1.3403,-1.3403,-1.3403,-1.3403,-1.3403,-1.3403,-1.3403,-1.3403,-1.3403,-1.3403,-1.3403,-1.3403,-1.3403,-1.3403,-1.3403,-1.3403,-1.3403,-1.3403,-1.3403,-1.3403,-1.3403,-1.3403,-1.3403,-1.3403,-1.3403,-1.3403,-1.3403,0.0,0.0,0.0,0.0,0.0,-1.3688,-1.377,-1.3905,-1.3905,-1.3933,-1.3987,-1.4095,-1.4136,-1.415,-1.4258,-1.4299,-1.4646,-1.6984,-1.7326,-1.7159,-1.9401,-2.178,-2.3914,-2.4543,-2.6321,-2.8248,-2.8257,-2.8283,-2.8297,-2.8377,-2.8404,-2.8457,-2.8684,-2.8738,-2.8791,-2.8991,-2.9045,-2.9045,-2.9045,-2.9045,-2.9072,-2.9152,-2.9165,-2.839,-2.6121,0.0,0.0,0.0,-1.7959,0.0,-1.5217,-1.512,-1.5181,-1.5181,-1.5181,-1.5181,-1.5181,-1.5181,-1.5181,-1.5181,-1.5181,0.0,0.0,0.0,0.0,-1.5248,-1.5357,-1.5452,-1.554,-1.575,-1.5879,-1.5927,-1.6035,-1.6083,-1.6083,-1.6083,-1.6083,-1.6083,-1.6083,-1.6083,-1.6083,-1.6083,-1.6083,-1.6083,-1.6083,-1.6083,-1.6083,-1.3403,-1.3403,-1.3403,-1.3403,-1.3403,-1.3403,-1.3403,-1.3403,-1.3403,-1.3403,-1.3403,-1.3403,-1.3403,-1.3403,-1.3403,-1.3403,-1.3403,-1.3403,-1.3403,-1.3403,-1.3403,-1.3403,-1.3403,-1.3403,-1.3403,-1.3403,-1.3403,-1.3403,0.0,0.0,-1.3403,0.0,-1.3702,-1.3838,-1.3838,-1.3926,-1.4068,-1.4068,-1.4156,-1.4292,-1.4299,-1.4299,-1.4299,-1.4299,-1.4299,-1.4646,-1.6984,-1.629,-1.4734,-1.7071,-1.954,-2.2039,-2.4075,-2.6321,-2.8288,-2.8511,-2.8604,-2.8671,-2.8951,-2.9032,-2.9032,-2.9032,-2.9032,-2.9032,-2.9045,-2.9045,-2.9045,-2.9045,-2.9045,-2.9125,-2.9419,-2.9486,-2.8754,-2.6545,0.0,0.0,0.0,-1.6744,0.0,-1.5181,-1.5181,-1.5181,-1.5181,-1.5181,-1.5181,-1.5181,-1.5181,-1.5181,-1.5181,-1.5181,0.0,-1.5181,-1.5181,0.0,-1.5404,-1.5411,-1.556,-1.5845,-1.5852,-1.5934,-1.6076,-1.6083,-1.6083,-1.6083,-1.6083,-1.6083,-1.6083,-1.6083,-1.6083,-1.6083,-1.6083,-1.6083,-1.6083,-1.6083,-1.6083,-1.6083,-1.3403,-1.3403,-1.3403,-1.3403,-1.3403,-1.3403,-1.3403,-1.3403,-1.3403,-1.3403,-1.3403,-1.3403,-1.3403,-1.3403,-1.3403,-1.3403,-1.3403,-1.3403,-1.3403,-1.3403,-1.3403,-1.3403,-1.3403,-1.3403,-1.3403,-1.3403,-1.3451,-1.3559,0.0,0.0,0.0,-1.3749,-1.3851,-1.4,-1.4,-1.4082,-1.4231,-1.4231,-1.4258,-1.4299,-1.4299,-1.4299,-1.4299,-1.4299,-1.4299,-1.4387,-1.5168,-1.4974,-1.4531,-1.5319,-1.7194,-1.9731,-2.206,-2.5568,-2.8778,-2.8871,-2.8898,-2.8925,-2.9018,-2.9045,-2.9085,-2.9285,-2.9339,-2.9392,-2.9593,-2.9633,-2.9633,-2.9633,-2.9633,-2.9659,-2.9766,-2.978,-2.9538,-2.8886,-2.8076,0.0,-2.1912,0.0,-1.8972,-1.565,-1.5181,-1.5181,-1.5181,-1.5181,-1.5181,-1.5181,-1.5181,-1.5181,-1.5181,0.0,0.0,0.0,-1.5181,0.0,-1.5411,-1.5513,-1.5662,-1.5852,-1.5961,-1.6035,-1.6083,-1.6083,-1.6083,-1.6083,-1.6083,-1.6083,-1.6083,-1.6083,-1.6083,-1.6083,-1.6083,-1.6083,-1.6083,-1.6083,-1.6083,-1.6083,-1.3403,-1.3403,-1.3403,-1.3403,-1.3403,-1.3403,-1.3403,-1.3403,-1.3403,-1.3403,-1.3403,-1.3403,-1.3403,-1.3403,-1.3403,-1.3403,-1.3403,-1.3403,-1.3403,-1.3403,-1.3403,-1.3403,-1.3458,-1.3485,-1.3485,-1.3539,0.0,-1.3709,-1.3709,-1.3783,-1.3926,-1.3926,-1.4007,-1.4156,-1.4156,-1.4211,-1.4299,-1.4299,-1.4299,-1.4299,-1.4299,-1.4299,-1.4299,-1.4299,-1.4299,-1.4306,-1.436,-1.4434,-1.4523,-1.4577,-1.622,-1.8785,-2.1302,-2.4765,-2.8079,-2.8969,-2.9205,-2.9232,-2.9339,-2.9366,-2.9419,-2.9606,-2.9646,-2.9419,-2.8681,-2.8526,-2.8526,-2.8526,-2.9272,-2.9913,-2.9913,-2.9913,-2.9913,-2.9913,-2.9092,-2.7057,-2.3106,0.0,-1.9706,0.0,0.0,-1.5181,-1.5181,-1.5181,-1.5181,-1.5181,-1.5181,-1.5181,-1.5181,0.0,-1.5181,-1.5181,-1.5242,-1.5343,-1.5493,-1.5642,-1.5791,-1.594,-1.6035,-1.6083,-1.6083,-1.6083,-1.6083,-1.6083,-1.6083,-1.6083,-1.6083,-1.6083,-1.6083,-1.6083,-1.6083,-1.6083,-1.6083,-1.6083,-1.6083,-1.6083,-1.3403,-1.3403,-1.3403,-1.3403,-1.3403,-1.3403,-1.3403,-1.3403,-1.3403,-1.3403,-1.3403,-1.3403,-1.3403,-1.3403,-1.3403,-1.3417,-1.3403,-1.3403,-1.3403,-1.341,-1.3417,-1.3417,-1.3559,-1.3641,-1.3641,-1.3777,-1.3844,-1.3858,-1.3865,-1.3946,-1.4089,-1.4089,-1.4163,-1.4299,-1.4299,-1.4299,-1.4299,-1.4299,-1.4299,-1.4299,-1.4299,-1.4299,-1.4299,-1.4312,-1.4312,-1.4333,-1.4475,-1.4536,-1.4563,-1.4706,-1.6301,-1.88,-2.1245,-2.3748,-2.6182,-2.8767,-2.9424,-2.93,-2.9565,-2.9541,-2.9362,-2.9362,-2.9362,-2.8809,-2.6502,-2.5957,-2.5957,-2.5957,-2.7792,-2.9362,-2.9362,-2.9362,-2.9362,-2.9362,-2.7431,-2.5036,-2.2556,-2.0344,-1.7949,-1.5462,0.0,0.0,-1.5181,-1.5181,-1.5181,0.0,-1.5181,-1.5187,0.0,0.0,-1.5201,-1.5201,-1.535,-1.5499,-1.5649,-1.5784,-1.5934,-1.6083,-1.6083,-1.6083,-1.6083,-1.6083,-1.6083,-1.6083,-1.6083,-1.6083,-1.6083,-1.6083,-1.6083,-1.6083,-1.6083,-1.6083,-1.6083,-1.6083,-1.6083,-1.6083,-1.3403,-1.3403,-1.3403,-1.3403,-1.3403,-1.3403,-1.3403,-1.3403,-1.3403,-1.3403,-1.3403,-1.3403,-1.3403,-1.3403,-1.3451,-1.3566,-1.3464,-1.3403,-1.3403,-1.3512,-1.3573,-1.3573,-1.3715,-1.379,-1.379,-1.3824,-1.3899,-1.4014,-1.4136,-1.4211,-1.4245,-1.4245,-1.4265,-1.4299,-1.4299,-1.4299,-1.4299,-1.4299,-1.4299,-1.4299,-1.4299,-1.4299,-1.4312,-1.4421,-1.4462,-1.4482,-1.4631,-1.476,-1.4869,-1.4903,-1.5375,-1.642,-1.8896,-2.0114,-2.1801,-2.7988,-2.8437,-2.6984,-2.7045,-2.5684,-2.4215,-2.4215,-2.4306,-2.4123,-2.3473,-2.3381,-2.3381,-2.3381,-2.3838,-2.4215,-2.4215,-2.4215,-2.4215,-2.4215,-2.3747,-2.2556,-2.0067,-1.9233,-1.7949,0.0,-1.5181,-1.5181,-1.5181,-1.5181,-1.5181,0.0,0.0,-1.5235,-1.535,-1.5357,-1.5357,-1.5357,-1.5506,-1.5655,-1.5805,-1.5839,-1.5934,-1.6083,-1.6083,-1.6083,-1.6083,-1.6083,-1.6083,-1.6083,-1.6083,-1.6083,-1.6083,-1.6083,-1.6083,-1.6083,-1.6083,-1.6083,-1.6083,-1.6083,-1.6083,-1.6083,-1.3403,-1.3403,-1.3403,-1.3403,-1.3403,-1.3403,-1.3403,-1.3403,-1.3403,-1.3403,-1.3403,-1.3424,-1.3498,-1.3505,-1.3566,-1.3715,-1.3593,-1.3532,-1.36,-1.3682,-1.3729,-1.3729,-1.3865,-1.3946,-1.3946,-1.4014,-1.4089,-1.4177,-1.4258,-1.4299,-1.4299,-1.4299,-1.4299,-1.4299,-1.4299,-1.4299,-1.4299,-1.4299,-1.4299,-1.4299,-1.4299,-1.434,-1.4407,-1.4482,-1.4557,-1.4638,-1.4787,-1.4903,-1.4984,-1.5045,-1.512,-1.5643,-1.8135,-1.8871,-1.9882,-2.5025,-2.5593,-2.458,-2.4489,-2.3564,-2.2464,-2.2464,-2.1728,-2.0899,-2.0899,-2.0806,-2.0806,-2.0806,-2.1728,-2.2464,-2.2464,-2.2464,-2.2464,-2.2464,-2.2464,-2.1636,-1.9242,-1.8871,-1.7949,-1.5462,-1.5181,-1.5181,-1.5181,-1.5181,-1.5215,-1.5282,-1.5289,0.0,-1.5506,-1.5574,-1.5581,-1.552,-1.5662,-1.5778,-1.5852,-1.5927,-1.6001,-1.6083,-1.6083,-1.6083,-1.6083,-1.6083,-1.6083,-1.6083,-1.6083,-1.6083,-1.6083,-1.6083,-1.6083,-1.6083,-1.6083,-1.6083,-1.6083,-1.6083,-1.6083,-1.6083,-1.3403,-1.3403,-1.3403,-1.3403,-1.3403,-1.3403,-1.3403,-1.3403,-1.341,-1.3431,-1.3437,-1.3492,-1.3648,-1.3661,-1.3722,-1.3865,-1.3763,-1.3736,-1.3745,-1.3865,-1.3878,-1.3878,-1.4021,-1.4109,-1.4109,-1.4231,-1.4299,-1.4299,-1.4299,-1.4299,-1.4299,-1.4299,-1.4299,-1.4299,-1.4299,-1.4299,-1.4299,-1.4299,-1.4312,-1.4333,-1.4333,-1.4421,-1.455,-1.457,-1.4658,-1.4794,-1.495,-1.5004,-1.5025,-1.514,-1.5181,-1.5549,-1.767,-1.8313,-1.8778,-2.0806,-2.1452,-2.1544,-2.1912,-2.1636,-2.136,-2.136,-1.9882,-1.8313,-1.8313,-1.8313,-1.8313,-1.8313,-1.9974,-2.136,-2.136,-2.136,-2.136,-2.136,-2.136,-2.0714,-1.8592,0.0,-1.7577,-1.5462,-1.5201,-1.5215,-1.5215,-1.5242,-1.5303,-1.5438,-1.5445,-1.5513,-1.5662,-1.5784,-1.5811,-1.571,-1.5825,-1.5886,-1.5886,-1.6015,-1.6083,-1.6083,-1.6083,-1.6083,-1.6083,-1.6083,-1.6083,-1.6083,-1.6083,-1.6083,-1.6083,-1.6083,-1.6083,-1.6083,-1.6083,-1.6083,-1.6083,-1.6083,-1.6083,-1.6083,-1.3403,-1.3403,-1.3403,-1.3403,-1.3403,-1.3403,-1.3403,-1.3403,-1.3444,-1.3573,-1.3593,-1.3648,-1.379,-1.3804,-1.3871,-1.4021,-1.4014,-1.396,-1.3844,-1.3966,-1.4034,-1.4034,-1.4183,-1.4265,-1.4265,-1.4285,-1.4299,-1.4299,-1.4299,-1.4299,-1.4299,-1.4299,-1.4299,-1.4299,-1.4299,-1.4299,-1.4299,-1.4299,-1.4367,-1.4475,-1.4475,-1.457,-1.4719,-1.4848,-1.4916,-1.495,-1.5099,-1.5147,-1.5153,-1.5174,-1.5181,-1.5275,-1.5643,-1.5737,-1.583,-1.6198,-1.6292,-1.6752,-1.8871,-1.7949,-1.6292,-1.6292,-1.6018,-1.5737,-1.5737,-1.5737,-1.5737,-1.5737,-1.6104,-1.6292,-1.6292,-1.6292,-1.6292,-1.6292,-1.6292,-1.6198,-1.583,0.0,-1.5643,-1.5275,-1.5296,-1.5377,-1.5377,-1.5493,-1.5581,-1.5601,-1.5601,-1.5669,-1.5811,-1.5839,-1.59,-1.6008,-1.6035,-1.6049,-1.6049,-1.6069,-1.6083,-1.6083,-1.6083,-1.6083,-1.6083,-1.6083,-1.6083,-1.6083,-1.6083,-1.6083,-1.6083,-1.6083,-1.6083,-1.6083,-1.6083,-1.6083,-1.6083,-1.6083,-1.6083,-1.6083,-1.3403,-1.3403,-1.3403,-1.3403,-1.3403,-1.3431,-1.3512,-1.3526,-1.358,-1.3722,-1.3743,-1.3797,-1.3946,-1.3966,-1.4027,-1.4183,-1.4197,-1.4163,-1.4095,-1.4156,-1.4197,-1.4197,-1.4265,-1.4299,-1.4299,-1.4299,-1.4299,-1.4299,-1.4299,-1.4299,-1.4299,-1.4299,-1.4299,-1.4299,-1.4299,-1.434,-1.4414,-1.4414,-1.4502,-1.4631,-1.4631,-1.4726,-1.4869,-1.4943,-1.5018,-1.5092,-1.516,-1.5181,-1.5181,-1.5181,-1.5181,-1.5181,-1.5181,-1.5181,-1.5181,-1.5181,-1.5181,-1.5462,-1.6565,-1.6104,-1.5181,-1.5181,-1.5181,-1.5181,-1.5181,-1.5248,-1.5303,-1.5303,-1.5371,-1.5432,-1.5432,-1.5432,-1.5432,-1.5432,-1.5432,0.0,-1.5432,-1.5432,-1.5432,-1.5432,-1.5493,-1.5533,-1.5533,-1.5594,-1.5669,-1.575,-1.5757,-1.5818,-1.5967,-1.5974,-1.6008,-1.6083,-1.6083,-1.6083,-1.6083,-1.6083,-1.6083,-1.6083,-1.6083,-1.6083,-1.6083,-1.6083,-1.6083,-1.6083,-1.6083,-1.6083,-1.6083,-1.6083,-1.6083,-1.6083,-1.6083,-1.6083,-1.6083,-1.6083,-1.6083,-1.6083,-1.3403,-1.3403,-1.3403,-1.3403,-1.3431,-1.3492,-1.3614,-1.3654,-1.3729,-1.3871,-1.3892,-1.3953,-1.4109,-1.4122,-1.417,-1.4292,-1.4299,-1.4299,-1.4299,-1.4299,-1.4299,-1.4299,-1.4299,-1.4299,-1.4299,-1.4299,-1.4299,-1.4299,-1.4299,-1.4299,-1.4299,-1.4299,-1.4319,-1.4346,-1.4346,-1.4428,-1.4563,-1.4563,-1.4652,-1.4794,-1.4794,-1.4882,-1.5018,-1.5018,-1.5086,-1.5181,-1.5181,-1.5181,-1.5181,-1.5181,-1.5181,-1.5181,-1.5181,-1.5181,-1.5181,-1.5181,-1.5181,-1.5181,-1.5181,-1.5181,-1.5194,-1.5228,-1.5235,-1.5248,-1.5282,-1.5377,-1.5466,-1.5466,-1.5554,-1.5642,-1.5642,-1.5642,-1.5642,-1.5642,0.0,-1.5642,-1.5642,-1.5642,-1.5642,-1.5642,-1.5669,-1.5689,-1.5689,-1.5723,-1.5791,-1.59,-1.5906,-1.5954,-1.6076,-1.6083,-1.6083,-1.6083,-1.6083,-1.6083,-1.6083,-1.6083,-1.6083,-1.6083,-1.6083,-1.6083,-1.6083,-1.6083,-1.6083,-1.6083,-1.6083,-1.6083,-1.6083,-1.6083,-1.6083,-1.6083,-1.6083,-1.6083,-1.6083,-1.6083,-1.6083,-1.6083,-1.3403,-1.3403,-1.3403,-1.3403,-1.3519,-1.3614,-1.3627,-1.3743,-1.3878,-1.4034,-1.4055,-1.4116,-1.4265,-1.4285,-1.4285,-1.4299,-1.4299,-1.4299,-1.4299,-1.4299,-1.4299,-1.4299,-1.4299,-1.4299,-1.4299,-1.4299,-1.4299,-1.4299,-1.4299,-1.4299,-1.4299,-1.4299,-1.4373,-1.4496,-1.4496,-1.4577,-1.4719,-1.4719,-1.4814,-1.495,-1.495,-1.5038,-1.5167,-1.5167,-1.5174,-1.5181,-1.5181,-1.5181,-1.5181,-1.5181,-1.5181,-1.5181,-1.5181,-1.5181,-1.5181,-1.5181,-1.5181,-1.5181,-1.5181,-1.5181,-1.5215,-1.5357,-1.5391,-1.5432,-1.5574,-1.5615,-1.5622,-1.5622,-1.5635,-1.5642,-1.5642,-1.5642,-1.5642,-1.5642,0.0,0.0,-1.5642,-1.5642,-1.5642,-1.5642,-1.5757,-1.5839,-1.5839,-1.5967,-1.6056,-1.6062,-1.6062,-1.6069,-1.6083,-1.6083,-1.6083,-1.6083,-1.6083,-1.6083,-1.6083,-1.6083,-1.6083,-1.6083,-1.6083,-1.6083,-1.6083,-1.6083,-1.6083,-1.6083,-1.6083,-1.6083,-1.6083,-1.6083,-1.6083,-1.6083,-1.6083,-1.6083,-1.6083,-1.6083,-1.6083,-1.6083,-1.3403,-1.3478,-1.3546,-1.3546,-1.3661,-1.379,-1.3892,-1.3946,-1.4041,-1.419,-1.4211,-1.4238,-1.4292,-1.4299,-1.4299,-1.4299,-1.4299,-1.4299,-1.4299,-1.4299,-1.4299,-1.4299,-1.4299,-1.4299,-1.4299,-1.4299,-1.4299,-1.4299,-1.4299,-1.4299,-1.4299,-1.4387,-1.4462,-1.4516,-1.4611,-1.474,-1.4882,-1.4882,-1.497,-1.5099,-1.5099,-1.5133,-1.5181,-1.5181,-1.5181,-1.5181,-1.5181,-1.5181,-1.5181,-1.5181,-1.5181,-1.5181,-1.5181,-1.5181,-1.5201,-1.5296,-1.5323,-1.5343,-1.5438,-1.5398,-1.5364,-1.5513,-1.5554,-1.5567,-1.5628,-1.571,-1.5771,-1.5771,-1.5845,-1.5913,-1.5913,-1.5913,-1.5913,-1.5913,0.0,-1.5913,-1.5913,-1.5913,-1.5913,-1.5913,-1.5961,-1.5995,-1.5995,-1.6049,-1.6083,-1.6083,-1.6083,-1.6083,-1.6083,-1.6083,-1.6083,-1.6083,-1.6083,-1.6083,-1.6083,-1.6083,-1.6083,-1.6083,-1.6083,-1.6083,-1.6083,-1.6083,-1.6083,-1.6083,-1.6083,-1.6083,-1.6083,-1.6083,-1.6083,-1.6083,-1.6083,-1.6083,-1.6083,-1.6083,-1.6083,-1.6083,-1.3464,-1.3559,-1.3641,-1.3688,-1.3817,-1.3946,-1.4055,-1.4116,-1.4183,-1.4285,-1.4299,-1.4299,-1.4299,-1.4299,-1.4299,-1.4299,-1.4299,-1.4299,-1.4299,-1.4299,-1.4299,-1.4299,-1.4299,-1.4299,-1.4299,-1.4299,-1.4299,-1.4299,-1.4346,-1.4367,-1.4367,-1.4516,-1.4611,-1.4658,-1.4767,-1.4896,-1.5038,-1.5038,-1.5092,-1.5181,-1.5181,-1.5181,-1.5181,-1.5181,-1.5181,-1.5181,-1.5181,-1.5181,-1.5181,-1.5181,-1.5181,-1.5181,-1.5181,-1.5215,-1.5276,-1.5377,-1.5445,-1.5513,-1.5669,-1.5628,-1.5574,-1.5683,-1.571,-1.5716,-1.5764,-1.5852,-1.5927,-1.5927,-1.6008,-1.6083,-1.6083,-1.6083,-1.6083,-1.6083,-1.6083,-1.6083,-1.6083,-1.6083,-1.6083,-1.6083,-1.6083,-1.6083,-1.6083,-1.6083,-1.6083,-1.6083,-1.6083,-1.6083,-1.6083,-1.6083,-1.6083,-1.6083,-1.6083,-1.6083,-1.6083,-1.6083,-1.6083,-1.6083,-1.6083,-1.6083,-1.6083,-1.6083,-1.6083,-1.6083,-1.6083,-1.6083,-1.6083,-1.6083,-1.6083,-1.6083,-1.6083,-1.6083,-1.6083,-1.6083,-1.6083,-1.6083,-1.36,-1.3634,-1.3675,-1.3817,-1.3973,-1.4075,-1.4075,-1.4204,-1.4299,-1.4299,-1.4299,-1.4299,-1.4299,-1.4299,-1.4299,-1.4299,-1.4299,-1.4299,-1.4299,-1.4299,-1.4299,-1.4299,-1.4299,-1.4299,-1.4299,-1.4299,-1.4299,-1.4299,-1.4441,-1.4516,-1.4516,-1.4672,-1.4821,-1.497,-1.497,-1.5052,-1.5181,-1.5181,-1.5181,-1.5181,-1.5181,-1.5181,-1.5181,-1.5181,-1.5181,-1.5181,-1.5181,-1.5181,-1.5181,-1.5181,-1.5181,-1.5181,-1.5181,-1.5289,-1.5411,-1.5411,-1.552,-1.5676,-1.5818,-1.5852,-1.5852,-1.5852,-1.5852,-1.5893,-1.6049,-1.6083,-1.6083,-1.6083,-1.6083,-1.6083,-1.6083,-1.6083,-1.6083,-1.6083,-1.6083,-1.6083,-1.6083,-1.6083,-1.6083,-1.6083,-1.6083,-1.6083,-1.6083,-1.6083,-1.6083,-1.6083,-1.6083,-1.6083,-1.6083,-1.6083,-1.6083,-1.6083,-1.6083,-1.6083,-1.6083,-1.6083,-1.6083,-1.6083,-1.6083,-1.6083,-1.6083,-1.6083,-1.6083,-1.6083,-1.6083,-1.6083,-1.6083,-1.6083,-1.6083,-1.6083,-1.6083,-1.6083,-1.6083,-1.6083,-1.6083,-1.6083,-1.362,-1.3797,-1.3953,-1.3994,-1.4129,-1.4231,-1.4231,-1.4272,-1.4299,-1.4299,-1.4299,-1.4299,-1.4299,-1.4299,-1.4299,-1.4299,-1.4299,-1.4299,-1.4299,-1.4299,-1.4299,-1.4299,-1.4299,-1.4299,-1.4299,-1.4394,-1.4448,-1.4448,-1.4597,-1.4672,-1.4672,-1.4828,-1.493,-1.4977,-1.5072,-1.5147,-1.5181,-1.5181,-1.5181,-1.5181,-1.5181,-1.5181,-1.5181,-1.5181,-1.5181,-1.5181,-1.5181,-1.5181,-1.5181,-1.5181,-1.5181,-1.5201,-1.5309,-1.5371,-1.5452,-1.5662,-1.5757,-1.5825,-1.5974,-1.6015,-1.6015,-1.6015,-1.6015,-1.6029,-1.6069,-1.6083,-1.6083,-1.6083,-1.6083,-1.6083,-1.6083,-1.6083,-1.6083,-1.6083,-1.6083,-1.6083,-1.6083,-1.6083,-1.6083,-1.6083,-1.6083,-1.6083,-1.6083,-1.6083,-1.6083,-1.6083,-1.6083,-1.6083,-1.6083,-1.6083,-1.6083,-1.6083,-1.6083,-1.6083,-1.6083,-1.6083,-1.6083,-1.6083,-1.6083,-1.6083,-1.6083,-1.6083,-1.6083,-1.6083,-1.6083,-1.6083,-1.6083,-1.6083,-1.6083,-1.6083,-1.6083,-1.6083,-1.6083,-1.6083,-1.6083,-1.6083,-1.3783,-1.3946,-1.4089,-1.415,-1.4238,-1.4299,-1.4299,-1.4299,-1.4299,-1.4299,-1.4299,-1.4299,-1.4299,-1.4299,-1.4299,-1.4299,-1.4299,-1.4299,-1.4299,-1.4299,-1.4299,-1.4299,-1.4353,-1.438,-1.438,-1.4468,-1.4543,-1.4604,-1.4753,-1.4828,-1.4835,-1.4984,-1.5052,-1.5059,-1.5147,-1.5181,-1.5181,-1.5181,-1.5181,-1.5181,-1.5181,-1.5181,-1.5181,-1.5181,-1.5181,-1.5181,-1.5181,-1.5181,-1.5181,-1.5181,-1.5221,-1.5289,-1.5377,-1.5493,-1.5622,-1.5798,-1.5893,-1.5961,-1.6056,-1.6083,-1.6083,-1.6083,-1.6083,-1.6083,-1.6083,-1.6083,-1.6083,-1.6083,-1.6083,-1.6083,-1.6083,-1.6083,-1.6083,-1.6083,-1.6083,-1.6083,-1.6083,-1.6083,-1.6083,-1.6083,-1.6083,-1.6083,-1.6083,-1.6083,-1.6083,-1.6083,-1.6083,-1.6083,-1.6083,-1.6083,-1.6083,-1.6083,-1.6083,-1.6083,-1.6083,-1.6083,-1.6083,-1.6083,-1.6083,-1.6083,-1.6083,-1.6083,-1.6083,-1.6083,-1.6083,-1.6083,-1.6083,-1.6083,-1.6083,-1.6083,-1.6083,-1.6083,-1.6083,-1.6083,-1.6083,-1.6083,-1.4021,-1.4082,-1.4136,-1.4278,-1.4299,-1.4299,-1.4299,-1.4299,-1.4299,-1.4299,-1.4299,-1.4299,-1.4299,-1.4299,-1.4299,-1.4299,-1.4299,-1.4299,-1.4299,-1.4299,-1.4306,-1.4319,-1.4441,-1.4523,-1.455,-1.455,-1.4618,-1.476,-1.4916,-1.4991,-1.4991,-1.512,-1.5181,-1.5181,-1.5181,-1.5181,-1.5181,-1.5181,-1.5181,-1.5181,-1.5181,-1.5181,-1.5181,-1.5181,-1.5181,-1.5181,-1.5181,-1.5181,-1.5181,-1.5181,-1.5282,-1.5411,-1.5425,-1.5622,-1.5859,-1.5866,-1.5974,-1.6083,-1.6083,-1.6083,-1.6083,-1.6083,-1.6083,-1.6083,-1.6083,-1.6083,-1.6083,-1.6083,-1.6083,-1.6083,-1.6083,-1.6083,-1.6083,-1.6083,-1.6083,-1.6083,-1.6083,-1.6083,-1.6083,-1.6083,-1.6083,-1.6083,-1.6083,-1.6083,-1.6083,-1.6083,-1.6083,-1.6083,-1.6083,-1.6083,-1.6083,-1.6083,-1.6083,-1.6083,-1.6083,-1.6083,-1.6083,-1.6083,-1.6083,-1.6083,-1.6083,-1.6083,-1.6083,-1.6083,-1.6083,-1.6083,-1.6083,-1.6083,-1.6083,-1.6083,-1.6083,-1.6083,-1.6083,-1.6083,-1.6083,-1.6083,-1.4061,-1.417,-1.4265,-1.4292,-1.4299,-1.4299,-1.4299,-1.4299,-1.4299,-1.4299,-1.4299,-1.4299,-1.4299,-1.4299,-1.4299,-1.4299,-1.4299,-1.4299,-1.4299,-1.4299,-1.4346,-1.4462,-1.4496,-1.4624,-1.4869,-1.4869,-1.4889,-1.4923,-1.5065,-1.514,-1.514,-1.5167,-1.5181,-1.5181,-1.5181,-1.5181,-1.5181,-1.5181,-1.5181,-1.5181,-1.5181,-1.5181,-1.5181,-1.5181,-1.5181,-1.5181,-1.5181,-1.5181,-1.5181,-1.5181,-1.5282,-1.5432,-1.5554,-1.571,-1.5879,-1.5995,-1.6056,-1.6083,-1.6083,-1.6083,-1.6083,-1.6083,-1.6083,-1.6083,-1.6083,-1.6083,-1.6083,-1.6083,-1.6083,-1.6083,-1.6083,-1.6083,-1.6083,-1.6083,-1.6083,-1.6083,-1.6083,-1.6083,-1.6083,-1.6083,-1.6083,-1.6083,-1.6083,-1.6083,-1.6083,-1.6083,-1.6083,-1.6083,-1.6083,-1.6083,-1.6083,-1.6083,-1.6083,-1.6083,-1.6083,-1.6083,-1.6083,-1.6083,-1.6083,-1.6083,-1.6083,-1.6083,-1.6083,-1.6083,-1.6083,-1.6083,-1.6083,-1.6083,-1.6083,-1.6083,-1.6083,-1.6083,-1.6083,-1.6083,-1.6083,-1.6083,-1.4163,-1.4245,-1.4299,-1.4299,-1.4299,-1.4299,-1.4299,-1.4299,-1.4299,-1.4299,-1.4299,-1.4299,-1.4299,-1.4299,-1.4299,-1.4299,-1.4299,-1.4299,-1.4299,-1.4367,-1.4434,-1.4509,-1.4652,-1.4808,-1.497,-1.5038,-1.5072,-1.5072,-1.5147,-1.5181,-1.5181,-1.5181,-1.5181,-1.5181,-1.5181,-1.5181,-1.5181,-1.5181,-1.5181,-1.5181,-1.5181,-1.5181,-1.5181,-1.5181,-1.5181,-1.5181,-1.5181,-1.5181,-1.5194,-1.5269,-1.5391,-1.5547,-1.5696,-1.5845,-1.5981,-1.6056,-1.6083,-1.6083,-1.6083,-1.6083,-1.6083,-1.6083,-1.6083,-1.6083,-1.6083,-1.6083,-1.6083,-1.6083,-1.6083,-1.6083,-1.6083,-1.6083,-1.6083,-1.6083,-1.6083,-1.6083,-1.6083,-1.6083,-1.6083,-1.6083,-1.6083,-1.6083,-1.6083,-1.6083,-1.6083,-1.6083,-1.6083,-1.6083,-1.6083,-1.6083,-1.6083,-1.6083,-1.6083,-1.6083,-1.6083,-1.6083,-1.6083,-1.6083,-1.6083,-1.6083,-1.6083,-1.6083,-1.6083,-1.6083,-1.6083,-1.6083,-1.6083,-1.6083,-1.6083,-1.6083,-1.6083,-1.6083,-1.6083,-1.6083,-1.6083,-1.6083,-1.4278,-1.4299,-1.4299,-1.4299,-1.4299,-1.4299,-1.4299,-1.4299,-1.4299,-1.4299,-1.4299,-1.4299,-1.4299,-1.4299,-1.4299,-1.4299,-1.4299,-1.4312,-1.4333,-1.4448,-1.4536,-1.459,-1.4835,-1.4984,-1.5004,-1.512,-1.5181,-1.5181,-1.5181,-1.5181,-1.5181,-1.5181,-1.5181,-1.5181,-1.5181,-1.5181,-1.5181,-1.5181,-1.5181,-1.5181,-1.5181,-1.5181,-1.5181,-1.5181,-1.5181,-1.5181,-1.5181,-1.5201,-1.5242,-1.5371,-1.5527,-1.5696,-1.5818,-1.5961,-1.6083,-1.6083,-1.6083,-1.6083,-1.6083,-1.6083,-1.6083,-1.6083,-1.6083,-1.6083,-1.6083,-1.6083,-1.6083,-1.6083,-1.6083,-1.6083,-1.6083,-1.6083,-1.6083,-1.6083,-1.6083,-1.6083,-1.6083,-1.6083,-1.6083,-1.6083,-1.6083,-1.6083,-1.6083,-1.6083,-1.6083,-1.6083,-1.6083,-1.6083,-1.6083,-1.6083,-1.6083,-1.6083,-1.6083,-1.6083,-1.6083,-1.6083,-1.6083,-1.6083,-1.6083,-1.6083,-1.6083,-1.6083,-1.6083,-1.6083,-1.6083,-1.6083,-1.6083,-1.6083,-1.6083,-1.6083,-1.6083,-1.6083,-1.6083,-1.6083,-1.6083,-1.6083,-1.4299,-1.4299,-1.4299,-1.4299,-1.4299,-1.4299,-1.4299,-1.4299,-1.4299,-1.4299,-1.4299,-1.4299,-1.4299,-1.4299,-1.4299,-1.4299,-1.4299,-1.4353,-1.4475,-1.4502,-1.4631,-1.4896,-1.495,-1.5031,-1.5153,-1.5174,-1.5181,-1.5181,-1.5181,-1.5181,-1.5181,-1.5181,-1.5181,-1.5181,-1.5181,-1.5181,-1.5181,-1.5181,-1.5181,-1.5181,-1.5181,-1.5181,-1.5181,-1.5181,-1.5181,-1.5181,-1.5181,-1.5269,-1.5384,-1.5404,-1.5594,-1.5825,-1.5845,-1.5961,-1.6083,-1.6083,-1.6083,-1.6083,-1.6083,-1.6083,-1.6083,-1.6083,-1.6083,-1.6083,-1.6083,-1.6083,-1.6083,-1.6083,-1.6083,-1.6083,-1.6083,-1.6083,-1.6083,-1.6083,-1.6083,-1.6083,-1.6083,-1.6083,-1.6083,-1.6083,-1.6083,-1.6083,-1.6083,-1.6083,-1.6083,-1.6083,-1.6083,-1.6083,-1.6083,-1.6083,-1.6083,-1.6083,-1.6083,-1.6083,-1.6083,-1.6083,-1.6083,-1.6083,-1.6083,-1.6083,-1.6083,-1.6083,-1.6083,-1.6083,-1.6083,-1.6083,-1.6083,-1.6083,-1.6083,-1.6083,-1.6083,-1.6083,-1.6083,-1.6083,-1.6083,-1.6083,-1.4299,-1.4299,-1.4299,-1.4299,-1.4299,-1.4299,-1.4299,-1.4299,-1.4299,-1.4299,-1.4299,-1.4299,-1.4299,-1.4299,-1.4299,-1.4299,-1.4373,-1.4441,-1.4509,-1.4672,-1.4828,-1.4964,-1.5045,-1.512,-1.5181,-1.5181,-1.5181,-1.5181,-1.5181,-1.5181,-1.5181,-1.5181,-1.5181,-1.5181,-1.5181,-1.5181,-1.5181,-1.5181,-1.5181,-1.5181,-1.5181,-1.5181,-1.5181,-1.5181,-1.5181,-1.5194,-1.5276,-1.535,-1.5438,-1.5601,-1.5744,-1.5866,-1.5954,-1.6029,-1.6083,-1.6083,-1.6083,-1.6083,-1.6083,-1.6083,-1.6083,-1.6083,-1.6083,-1.6083,-1.6083,-1.6083,-1.6083,-1.6083,-1.6083,-1.6083,-1.6083,-1.6083,-1.6083,-1.6083,-1.6083,-1.6083,-1.6083,-1.6083,-1.6083,-1.6083,-1.6083,-1.6083,-1.6083,-1.6083,-1.6083,-1.6083,-1.6083,-1.6083,-1.6083,-1.6083,-1.6083,-1.6083,-1.6083,-1.6083,-1.6083,-1.6083,-1.6083,-1.6083,-1.6083,-1.6083,-1.6083,-1.6083,-1.6083,-1.6083,-1.6083,-1.6083,-1.6083,-1.6083,-1.6083,-1.6083,-1.6083,-1.6083,-1.6083,-1.6083,-1.6083,-1.6083]},{"header":{"parameterUnit":"m.s-1","parameterCategory":1,"la1":30.6,"la2":28.766,"lo1":-90.7593,"lo2":-88.6598,"dy":0.0162,"dx":0.0183,"nx":116,"ny":114,"refTime":"2023-10-20T12:00:00:Z","depth":0,"parameterNumber":3,"parameterNumberName":"V-component_of_WINDS"},"data":[0.0,0.0,0.0,0.0,0.0,0.0,0.0,0.0,0.0,0.0,0.0,0.0,0.0,0.0,0.0,0.0,0.0,0.0,0.0,0.0,0.0,0.0,0.0,0.0,0.0,0.0,0.0,0.0,0.0,0.0,0.0,0.0,0.0,0.0,0.0,0.0,0.0,0.0,0.0,0.0,0.0,0.0,0.0,0.0,0.0,0.0,0.0,0.0,0.0,0.0,0.0,0.0,0.0,0.0,0.0,0.0,0.0,0.0,0.0,0.0,0.0,0.0,0.0,0.0,0.0,0.0,0.0,0.0,0.0,0.0,0.0,0.0,0.0,0.0,0.0,0.0,0.0,0.0,0.0,0.0,0.0,0.0,0.0,0.0,0.0,0.0,0.0,0.0,0.0,0.0,0.0,0.0,0.0,0.0,0.0,0.0,0.0,0.0,0.0,0.0,0.0,0.0,0.0,0.0,0.0,0.0,0.0,0.0,0.0,0.0,0.0,0.0,0.0,0.0,0.0,0.0,0.0,0.0,0.0,0.0,0.0,0.0,0.0,0.0,0.0,0.0,0.0,0.0,0.0,0.0,0.0,0.0,0.0,0.0,0.0,0.0,0.0,0.0,0.0,0.0,0.0,0.0,0.0,0.0,0.0,0.0,0.0,0.0,0.0,0.0,0.0,0.0,0.0,0.0,0.0,0.0,0.0,0.0,0.0,0.0,0.0,0.0,0.0,0.0,0.0,0.0,0.0,0.0,0.0,0.0,0.0,0.0,0.0,0.0,0.0,0.0,0.0,0.0,0.0,0.0,0.0,0.0,0.0,0.0,0.0,0.0,0.0,0.0,0.0,0.0,0.0,0.0,0.0,0.0,0.0,0.0,0.0,0.0,0.0,0.0,0.0,0.0,0.0,0.0,0.0,0.0,0.0,0.0,0.0,0.0,0.0,0.0,0.0,0.0,0.0,0.0,0.0,0.0,0.0,0.0,0.0,0.0,0.0,0.0,0.0,0.0,0.0,0.0,0.0,0.0,0.0,0.0,0.0,0.0,0.0,0.0,0.0,0.0,0.0,0.0,0.0,0.0,0.0,0.0,0.0,0.0,0.0,0.0,0.0,0.0,0.0,0.0,0.0,0.0,0.0,0.0,0.0,0.0,0.0,0.0,0.0,0.0,0.0,0.0,0.0,0.0,0.0,0.0,0.0,0.0,0.0,0.0,0.0,0.0,0.0,0.0,0.0,0.0,0.0,0.0,0.0,0.0,0.0,0.0,0.0,0.0,0.0,0.0,0.0,0.0,0.0,0.0,0.0,0.0,0.0,0.0,0.0,0.0,0.0,0.0,0.0,0.0,0.0,0.0,0.0,0.0,0.0,0.0,0.0,0.0,0.0,0.0,0.0,0.0,0.0,0.0,0.0,0.0,0.0,0.0,0.0,0.0,0.0,0.0,0.0,0.0,0.0,0.0,0.0,0.0,0.0,0.0,0.0,0.0,0.0,0.0,0.0,0.0,0.0,0.0,0.0,0.0,0.0,0.0,0.0,0.0,0.0,0.0,0.0,0.0,0.0,0.0,0.0,0.0,0.0,0.0,0.0,0.0,0.0,0.0,0.0,0.0,0.0,0.0,0.0,0.0,0.0,0.0,0.0,0.0,0.0,0.0,0.0,0.0,0.0,0.0,0.0,0.0,0.0,0.0,0.0,0.0,0.0,0.0,0.0,0.0,0.0,0.0,0.0,0.0,0.0,0.0,0.0,0.0,0.0,0.0,0.0,0.0,0.0,0.0,0.0,0.0,0.0,0.0,0.0,0.0,0.0,0.0,0.0,0.0,0.0,0.0,0.0,0.0,0.0,0.0,0.0,0.0,0.0,0.0,0.0,0.0,0.0,0.0,0.0,0.0,0.0,0.0,0.0,0.0,0.0,0.0,0.0,0.0,0.0,0.0,0.0,0.0,0.0,0.0,0.0,0.0,0.0,0.0,0.0,0.0,0.0,0.0,0.0,0.0,0.0,0.0,0.0,0.0,0.0,0.0,0.0,0.0,0.0,0.0,0.0,0.0,0.0,0.0,0.0,0.0,0.0,0.0,0.0,0.0,0.0,0.0,0.0,0.0,0.0,0.0,0.0,0.0,0.0,0.0,0.0,0.0,0.0,0.0,0.0,0.0,0.0,0.0,0.0,0.0,0.0,0.0,0.0,0.0,0.0,0.0,0.0,0.0,0.0,0.0,0.0,0.0,0.0,0.0,0.0,0.0,0.0,0.0,0.0,0.0,0.0,0.0,0.0,0.0,0.0,0.0,0.0,0.0,0.0,0.0,0.0,0.0,0.0,0.0,0.0,0.0,0.0,0.0,0.0,0.0,0.0,0.0,0.0,0.0,0.0,0.0,0.0,0.0,0.0,0.0,0.0,0.0,0.0,0.0,0.0,0.0,0.0,0.0,0.0,0.0,0.0,0.0,0.0,0.0,0.0,0.0,0.0,0.0,0.0,0.0,0.0,0.0,0.0,0.0,0.0,0.0,0.0,0.0,0.0,0.0,0.0,0.0,0.0,0.0,0.0,0.0,0.0,0.0,0.0,0.0,0.0,0.0,0.0,0.0,0.0,0.0,0.0,0.0,0.0,0.0,0.0,0.0,0.0,0.0,0.0,0.0,0.0,0.0,0.0,0.0,0.0,0.0,0.0,0.0,0.0,0.0,0.0,0.0,0.0,0.0,0.0,0.0,0.0,0.0,0.0,0.0,0.0,0.0,0.0,0.0,0.0,0.0,0.0,0.0,0.0,0.0,0.0,0.0,0.0,0.0,0.0,0.0,0.0,0.0,0.0,0.0,0.0,0.0,0.0,0.0,0.0,0.0,0.0,0.0,0.0,0.0,0.0,0.0,0.0,0.0,0.0,0.0,0.0,0.0,0.0,0.0,0.0,0.0,0.0,0.0,0.0,0.0,0.0,0.0,0.0,0.0,0.0,0.0,0.0,0.0,0.0,0.0,0.0,0.0,0.0,0.0,0.0,0.0,0.0,0.0,0.0,0.0,0.0,0.0,0.0,0.0,0.0,0.0,0.0,0.0,0.0,0.0,0.0,0.0,0.0,0.0,0.0,0.0,0.0,0.0,0.0,0.0,0.0,0.0,0.0,0.0,0.0,0.0,0.0,0.0,0.0,0.0,0.0,0.0,0.0,0.0,0.0,0.0,0.0,0.0,0.0,0.0,0.0,0.0,0.0,0.0,0.0,0.0,0.0,0.0,0.0,0.0,0.0,0.0,0.0,0.0,0.0,0.0,0.0,0.0,0.0,0.0,0.0,0.0,0.0,0.0,0.0,0.0,0.0,0.0,0.0,0.0,0.0,0.0,0.0,0.0,0.0,0.0,0.0,0.0,0.0,0.0,0.0,0.0,0.0,0.0,0.0,0.0,0.0,0.0,0.0,0.0,0.0,0.0,0.0,0.0,0.0,0.0,0.0,0.0,0.0,0.0,0.0,0.0,0.0,0.0,0.0,0.0,0.0,0.0,0.0,0.0,0.0,0.0,0.0,0.0,0.0,0.0,0.0,0.0,0.0,0.0,0.0,0.0,0.0,0.0,0.0,0.0,0.0,0.0,0.0,0.0,0.0,0.0,0.0,0.0,0.0,0.0,0.0,0.0,0.0,0.0,0.0,0.0,0.0,0.0,0.0,0.0,0.0,0.0,0.0,0.0,0.0,0.0,0.0,0.0,0.0,0.0,0.0,0.0,0.0,0.0,0.0,0.0,0.0,0.0,0.0,0.0,0.0,0.0,0.0,0.0,0.0,0.0,0.0,0.0,0.0,0.0,0.0,0.0,0.0,0.0,0.0,0.0,0.0,0.0,0.0,0.0,0.0,0.0,0.0,0.0,0.0,0.0,0.0,0.0,0.0,0.0,0.0,0.0,0.0,0.0,0.0,0.0,0.0,0.0,0.0,0.0,0.0,0.0,0.0,0.0,0.0,0.0,0.0,0.0,0.0,0.0,0.0,0.0,0.0,0.0,0.0,0.0,0.0,0.0,0.0,0.0,0.0,0.0,0.0,0.0,0.0,0.0,0.0,0.0,0.0,0.0,0.0,0.0,0.0,0.0,0.0,0.0,0.0,0.0,0.0,0.0,0.0,0.0,0.0,0.0,0.0,0.0,0.0,0.0,0.0,0.0,0.0,0.0,0.0,0.0,0.0,0.0,0.0,0.0,0.0,0.0,0.0,0.0,0.0,0.0,0.0,0.0,0.0,0.0,0.0,0.0,0.0,0.0,0.0,0.0,0.0,0.0,0.0,0.0,0.0,0.0,0.0,0.0,0.0,0.0,0.0,0.0,0.0,0.0,0.0,0.0,0.0,0.0,0.0,0.0,0.0,0.0,0.0,0.0,0.0,0.0,0.0,0.0,0.0,0.0,0.0,0.0,0.0,0.0,0.0,0.0,0.0,0.0,0.0,0.0,0.0,0.0,0.0,0.0,0.0,0.0,0.0,0.0,0.0,0.0,0.0,0.0,0.0,0.0,0.0,0.0,0.0,0.0,0.0,0.0,0.0,0.0,0.0,0.0,0.0,0.0,0.0,0.0,0.0,0.0,0.0,0.0,0.0,0.0,0.0,0.0,0.0,0.0,0.0,0.0,0.0,0.0,0.0,0.0,0.0,0.0,0.0,0.0,0.0,0.0,0.0,0.0,0.0,0.0,0.0,0.0,0.0,0.0,0.0,0.0,0.0,0.0,0.0,0.0,0.0,0.0,0.0,0.0,0.0,0.0,0.0,0.0,0.0,0.0,0.0,0.0,0.0,0.0,0.0,0.0,0.0,0.0,0.0,0.0,0.0,0.0,0.0,0.0,0.0,0.0,0.0,0.0,0.0,0.0,0.0,0.0,0.0,0.0,0.0,0.0,0.0,0.0,0.0,0.0,0.0,0.0,0.0,0.0,0.0,0.0,0.0,0.0,0.0,0.0,0.0,0.0,0.0,0.0,0.0,0.0,0.0,0.0,0.0,0.0,0.0,0.0,0.0,0.0,0.0,0.0,0.0,0.0,0.0,0.0,0.0,0.0,0.0,0.0,0.0,0.0,0.0,0.0,0.0,0.0,0.0,0.0,0.0,0.0,0.0,0.0,0.0,0.0,0.0,0.0,0.0,0.0,0.0,0.0,0.0,0.0,0.0,0.0,0.0,0.0,0.0,0.0,0.0,0.0,0.0,0.0,0.0,0.0,0.0,0.0,0.0,0.0,0.0,0.0,0.0,0.0,0.0,0.0,0.0,0.0,0.0,0.0,0.0,0.0,0.0,0.0,0.0,0.0,0.0,0.0,0.0,0.0,0.0,0.0,0.0,0.0,0.0,0.0,0.0,0.0,0.0,0.0,0.0,0.0,0.0,0.0,0.0,0.0,0.0,0.0,0.0,0.0,0.0,0.0,0.0,0.0,0.0,0.0,0.0,0.0,0.0,0.0,0.0,0.0,0.0,0.0,0.0,0.0,0.0,0.0,0.0,0.0,0.0,0.0,0.0,0.0,0.0,0.0,0.0,0.0,0.0,0.0,0.0,0.0,0.0,0.0,0.0,0.0,0.0,0.0,0.0,0.0,0.0,0.0,0.0,0.0,0.0,0.0,0.0,0.0,0.0,0.0,0.0,0.0,0.0,0.0,0.0,0.0,0.0,0.0,0.0,0.0,0.0,0.0,0.0,0.0,0.0,0.0,0.0,0.0,0.0,0.0,0.0,0.0,0.0,0.0,0.0,0.0,0.0,0.0,0.0,0.0,0.0,0.0,0.0,0.0,0.0,0.0,0.0,0.0,0.0,0.0,0.0,0.0,0.0,0.0,0.0,0.0,0.0,0.0,0.0,0.0,0.0,0.0,0.0,0.0,0.0,0.0,0.0,0.0,0.0,0.0,0.0,0.0,0.0,0.0,0.0,0.0,0.0,0.0,0.0,0.0,0.0,0.0,0.0,0.0,0.0,0.0,0.0,0.0,0.0,0.0,0.0,0.0,0.0,0.0,0.0,0.0,0.0,0.0,0.0,0.0,0.0,0.0,0.0,0.0,0.0,0.0,0.0,0.0,0.0,0.0,0.0,0.0,0.0,0.0,0.0,0.0,0.0,0.0,0.0,0.0,0.0,0.0,6.5157,6.5018,0.0,0.0,0.0,0.0,0.0,0.0,0.0,0.0,0.0,0.0,0.0,0.0,0.0,0.0,0.0,0.0,0.0,0.0,0.0,0.0,0.0,0.0,0.0,0.0,0.0,0.0,0.0,0.0,0.0,0.0,0.0,0.0,0.0,0.0,0.0,0.0,0.0,6.0809,6.0046,5.9693,5.9736,5.9313,5.8875,5.8459,0.0,0.0,0.0,0.0,0.0,0.0,0.0,0.0,0.0,0.0,0.0,0.0,0.0,0.0,0.0,0.0,0.0,0.0,0.0,0.0,0.0,0.0,0.0,0.0,0.0,0.0,0.0,0.0,0.0,0.0,0.0,0.0,0.0,0.0,0.0,0.0,0.0,0.0,0.0,0.0,0.0,0.0,0.0,0.0,0.0,0.0,0.0,0.0,0.0,0.0,0.0,0.0,0.0,0.0,0.0,0.0,0.0,0.0,0.0,0.0,0.0,0.0,0.0,0.0,0.0,0.0,0.0,0.0,0.0,0.0,6.6623,6.6439,0.0,0.0,0.0,0.0,0.0,0.0,0.0,0.0,0.0,0.0,0.0,0.0,0.0,0.0,0.0,0.0,0.0,0.0,0.0,0.0,0.0,0.0,0.0,6.0661,6.1011,6.1557,6.1965,6.2422,0.0,0.0,0.0,0.0,0.0,0.0,6.3183,6.3077,6.3006,6.3006,6.2178,6.1493,6.0823,6.0681,6.0242,5.9474,5.8703,0.0,0.0,0.0,0.0,0.0,0.0,0.0,0.0,0.0,0.0,0.0,0.0,0.0,0.0,0.0,0.0,0.0,0.0,0.0,0.0,0.0,0.0,0.0,0.0,0.0,0.0,0.0,0.0,0.0,0.0,0.0,0.0,0.0,0.0,0.0,0.0,0.0,0.0,0.0,0.0,0.0,0.0,0.0,0.0,0.0,0.0,0.0,0.0,0.0,0.0,0.0,0.0,0.0,0.0,0.0,0.0,0.0,0.0,0.0,0.0,0.0,0.0,0.0,6.7687,6.7687,6.7687,6.7687,6.7687,6.7687,6.7687,6.7687,6.7687,6.7687,0.0,0.0,0.0,0.0,0.0,0.0,0.0,0.0,0.0,0.0,0.0,0.0,0.0,0.0,0.0,0.0,0.0,0.0,0.0,0.0,0.0,6.167,6.2247,6.1654,6.3453,6.4368,6.3786,0.0,0.0,0.0,0.0,0.0,6.4713,6.4076,6.3722,6.3722,6.3012,6.258,6.2472,6.1788,6.1371,6.1229,6.0427,6.0055,6.0055,0.0,0.0,0.0,0.0,0.0,0.0,0.0,0.0,0.0,0.0,0.0,0.0,0.0,0.0,0.0,0.0,0.0,0.0,0.0,0.0,0.0,0.0,0.0,0.0,0.0,0.0,0.0,0.0,0.0,0.0,0.0,0.0,0.0,0.0,0.0,0.0,0.0,0.0,0.0,0.0,0.0,6.7369,6.7515,0.0,0.0,0.0,0.0,0.0,0.0,0.0,0.0,0.0,0.0,0.0,0.0,0.0,6.7687,6.7687,6.7687,6.7687,6.7687,6.7687,6.7687,6.7687,6.7687,6.7687,6.7687,6.7687,0.0,6.7687,6.7687,0.0,0.0,0.0,0.0,0.0,0.0,0.0,0.0,0.0,0.0,0.0,0.0,0.0,0.0,0.0,0.0,0.0,0.0,0.0,0.0,0.0,6.313,6.373,6.4295,6.5274,6.5949,6.6033,6.6365,0.0,0.0,0.0,6.6517,6.6517,6.6184,6.5822,6.5388,6.5048,6.4667,6.423,6.3865,6.3428,6.2964,6.2631,6.1724,6.0397,6.0397,0.0,0.0,0.0,0.0,0.0,0.0,0.0,0.0,0.0,0.0,0.0,0.0,0.0,0.0,0.0,0.0,0.0,0.0,0.0,0.0,0.0,0.0,0.0,0.0,0.0,0.0,0.0,0.0,0.0,0.0,0.0,0.0,0.0,0.0,0.0,0.0,0.0,0.0,0.0,6.7687,6.7687,6.7687,6.7687,6.7687,0.0,0.0,0.0,0.0,0.0,0.0,0.0,0.0,0.0,6.7687,6.7687,6.7687,6.7687,6.7687,6.7687,6.7687,6.7687,6.7687,6.7687,6.7687,6.7687,6.7714,6.7996,6.8173,6.8148,6.7836,6.7687,6.7687,0.0,0.0,0.0,0.0,6.8173,6.821,0.0,0.0,0.0,0.0,0.0,0.0,0.0,0.0,0.0,0.0,0.0,0.0,6.398,6.4273,6.4971,6.6366,6.6696,6.7063,6.765,6.7687,6.7687,6.7687,6.7687,6.7687,6.7687,6.7687,6.7393,6.6806,6.6586,6.6182,6.5595,6.5411,6.4971,6.442,6.442,6.3148,6.0997,6.0997,6.0997,6.0997,0.0,0.0,0.0,0.0,0.0,0.0,0.0,0.0,0.0,0.0,0.0,0.0,0.0,0.0,0.0,0.0,0.0,0.0,0.0,0.0,0.0,0.0,0.0,0.0,0.0,0.0,0.0,0.0,0.0,0.0,0.0,0.0,0.0,0.0,0.0,0.0,0.0,6.7687,6.7687,6.7687,6.7687,6.7687,0.0,0.0,0.0,0.0,0.0,0.0,6.8097,6.8308,6.8419,6.8419,6.8629,6.874,6.874,6.874,6.874,6.874,6.874,6.874,6.874,6.874,6.874,6.8765,6.9178,6.9326,6.9303,6.8432,6.8123,6.8123,6.8123,6.8123,6.8173,6.8544,6.8705,6.8795,0.0,0.0,0.0,0.0,0.0,0.0,0.0,0.0,0.0,0.0,0.0,6.3135,6.398,6.4787,6.5595,6.6439,6.7173,6.765,6.7687,6.7687,6.7687,6.7687,6.7687,6.7687,6.7687,6.7687,6.7677,6.7614,6.688,6.6476,6.6402,6.5668,6.5301,6.5264,6.5264,6.4296,6.2679,6.2679,6.2679,6.2679,6.2679,0.0,0.0,0.0,0.0,0.0,0.0,0.0,0.0,0.0,0.0,0.0,0.0,0.0,0.0,0.0,0.0,0.0,0.0,0.0,0.0,0.0,0.0,0.0,0.0,0.0,0.0,0.0,0.0,0.0,0.0,0.0,0.0,0.0,0.0,0.0,0.0,0.0,0.0,6.7687,6.7687,0.0,0.0,0.0,0.0,6.8416,6.8464,6.8682,6.919,7.0005,7.0458,7.0458,7.1195,7.1593,7.1593,7.1593,7.1593,7.1593,7.1593,7.1593,7.1593,7.1593,7.1593,7.1593,7.1614,7.1635,7.1501,6.9892,6.9231,6.9231,6.9231,6.9231,6.9231,6.9251,6.9272,6.9353,0.0,0.0,0.0,0.0,0.0,0.0,0.0,0.0,6.278,6.278,6.3601,6.4452,6.5305,6.6418,6.7404,6.8227,6.8267,6.8344,6.8705,6.8072,6.7863,6.8185,6.7878,6.7687,6.7687,6.7687,6.7687,6.7687,6.7393,6.7247,6.7247,6.699,6.6549,6.6072,6.6072,6.5448,6.442,6.442,6.442,6.442,6.442,6.442,0.0,0.0,0.0,0.0,0.0,0.0,0.0,0.0,0.0,0.0,0.0,0.0,0.0,0.0,0.0,0.0,0.0,0.0,0.0,0.0,0.0,0.0,0.0,0.0,0.0,0.0,0.0,0.0,0.0,0.0,0.0,0.0,0.0,0.0,0.0,0.0,0.0,6.8682,6.9199,0.0,6.9559,7.0031,7.0421,7.0621,7.0605,7.0691,7.088,7.1203,7.1354,7.1354,7.1677,7.179,7.179,7.179,7.179,7.179,7.179,7.179,7.179,7.179,7.179,7.1811,7.2168,7.23,7.2299,7.2088,7.1555,7.0863,7.0352,7.0163,7.0128,6.9891,6.9811,6.9883,0.0,0.0,0.0,0.0,0.0,0.0,0.0,0.0,6.3086,6.3086,6.4294,6.5448,6.6272,6.7396,6.8427,6.9237,6.8978,6.8913,6.9272,6.8637,6.8392,6.8773,6.844,6.8235,6.8235,6.8047,6.7982,6.7982,6.7784,6.7687,6.7687,6.7687,6.7393,6.688,6.688,6.6623,6.6109,6.6109,6.5815,6.5301,6.5301,6.5301,6.5338,0.0,0.0,0.0,0.0,0.0,0.0,0.0,0.0,0.0,0.0,0.0,0.0,0.0,0.0,0.0,0.0,0.0,0.0,0.0,0.0,0.0,0.0,0.0,0.0,0.0,0.0,0.0,0.0,0.0,0.0,0.0,0.0,0.0,0.0,6.9941,6.9738,7.0122,7.0654,7.1014,7.1014,7.1467,7.1889,7.207,7.209,7.2168,7.2357,7.2642,7.2794,7.2794,7.306,7.3231,7.3231,7.3231,7.3231,7.3231,7.3231,7.3231,7.3231,7.3231,7.3231,7.3231,7.3573,7.3746,7.38,7.4181,7.3904,7.3098,7.2033,7.1558,7.1557,7.1336,7.1242,7.1274,0.0,0.0,0.0,0.0,0.0,0.0,0.0,6.3262,6.3609,6.3646,6.483,6.5955,6.6766,6.7674,6.8524,6.9277,6.9333,6.9333,6.9353,6.9333,6.9313,6.9313,6.9313,6.9313,6.9313,6.8795,6.8535,6.8535,6.8007,6.7741,6.7741,6.7714,6.7687,6.7687,6.7687,6.7687,6.7687,6.7687,6.6806,6.5375,6.5375,6.5375,6.5485,0.0,0.0,0.0,0.0,0.0,0.0,0.0,0.0,0.0,0.0,0.0,0.0,0.0,0.0,0.0,0.0,0.0,0.0,0.0,0.0,0.0,0.0,0.0,0.0,0.0,0.0,0.0,0.0,0.0,0.0,0.0,0.0,0.0,7.1886,7.1848,7.1811,7.1831,7.1869,7.1869,7.1869,7.1907,7.2166,7.265,7.2685,7.2948,7.3563,7.4322,7.4745,7.4745,7.5553,7.6015,7.6015,7.6015,7.6015,7.6015,7.6015,7.6015,7.6015,7.6015,7.6015,7.6015,7.6015,7.6015,7.6015,7.6015,7.6015,7.5822,7.4168,7.3538,7.3538,7.3514,7.3514,7.3514,0.0,0.0,0.0,0.0,0.0,0.0,6.278,6.3262,6.3817,6.4472,6.5993,6.7372,6.8227,6.9387,7.021,7.0425,7.0095,7.0061,7.0448,6.972,6.9313,6.9313,6.9313,6.9313,6.9313,6.9148,6.9085,6.9085,6.8521,6.8284,6.8284,6.7852,6.7687,6.7687,6.7687,6.7687,6.7687,6.7687,6.743,6.7026,6.7026,6.7026,6.7063,0.0,0.0,0.0,0.0,0.0,0.0,0.0,0.0,0.0,0.0,0.0,0.0,0.0,0.0,0.0,0.0,0.0,0.0,0.0,0.0,0.0,0.0,0.0,0.0,0.0,0.0,0.0,0.0,0.0,0.0,0.0,7.4334,7.3992,7.3421,7.2774,7.2538,7.2958,7.3543,7.3887,7.3887,7.4462,7.4894,7.5042,7.5058,7.5142,7.5308,7.5515,7.563,7.563,7.5861,7.6015,7.6015,7.6015,7.6015,7.6015,7.6015,7.6015,7.6015,7.6015,7.6015,7.6015,7.6015,7.6015,7.6015,7.6015,7.6015,7.5899,7.4822,7.4361,7.4322,7.3745,7.3514,7.3514,0.0,0.0,0.0,0.0,0.0,0.0,6.278,6.3453,6.4254,6.5062,6.6792,6.8265,6.9123,7.0235,7.0898,7.0898,7.0622,7.0593,7.0885,7.0314,6.9974,6.9974,6.9974,6.9974,6.9974,6.9738,6.9645,6.9645,6.9106,6.8862,6.884,6.8535,6.8368,6.8368,6.8368,6.8235,6.8021,6.8021,6.7904,6.7687,6.7687,6.7687,6.7687,6.7687,6.7687,6.7687,6.7687,6.7687,6.7687,6.7687,0.0,0.0,0.0,0.0,0.0,0.0,0.0,0.0,0.0,0.0,0.0,0.0,0.0,0.0,0.0,0.0,0.0,0.0,0.0,0.0,0.0,0.0,0.0,0.0,7.5463,7.531,7.485,7.4353,7.4143,7.4524,7.4976,7.5245,7.5245,7.5707,7.6015,7.6015,7.6015,7.6015,7.6015,7.6015,7.6015,7.6015,7.6015,7.6015,7.6015,7.6015,7.6015,7.6015,7.6015,7.6015,7.6015,7.6015,7.6015,7.6015,7.6015,7.6015,7.6015,7.6015,7.6015,7.5938,0.0,0.0,0.0,0.0,7.4553,7.4553,0.0,0.0,0.0,0.0,0.0,0.0,6.278,6.3723,6.469,6.5483,6.7232,6.8744,6.959,7.0437,7.0898,7.0898,7.0898,7.0898,7.0898,7.0898,7.0898,7.0898,7.0898,7.0898,7.0898,7.0448,7.0179,7.0179,6.9664,6.9393,6.9393,6.9333,6.9313,6.9313,6.9313,6.9042,6.8567,6.8567,6.8333,6.7889,6.781,6.7731,6.7687,6.7687,6.7687,6.7687,6.7687,6.7687,6.7687,6.7687,0.0,0.0,0.0,0.0,0.0,0.0,0.0,0.0,0.0,0.0,0.0,0.0,0.0,0.0,0.0,0.0,0.0,0.0,0.0,0.0,0.0,0.0,0.0,0.0,7.6015,7.6015,7.6015,7.6015,7.6015,7.6015,7.6015,7.6015,7.6015,7.6015,7.6015,7.6015,7.6015,7.6015,7.6015,7.6015,0.0,0.0,0.0,7.6015,7.6015,7.6015,7.6015,7.6015,7.6015,7.6015,7.6015,7.6015,7.6015,7.6015,7.6015,7.6015,7.6015,7.6015,7.6015,7.6015,7.6015,7.6015,7.6015,7.6015,7.6015,7.6015,0.0,0.0,0.0,0.0,0.0,0.0,6.278,6.3723,6.469,6.5483,6.7232,6.8744,6.959,7.0437,7.0898,7.0898,7.0898,7.0898,7.0898,7.0898,7.0898,7.0898,7.0898,7.0898,7.0898,7.0791,7.0748,7.0748,7.0233,6.9974,6.9957,6.9511,6.9313,6.9313,6.9313,6.9251,6.9148,6.9148,6.9085,6.8935,6.8535,6.8097,6.7687,6.7687,6.7687,6.7687,6.7687,6.7687,6.7687,6.7687,6.7687,6.7687,6.7687,6.7687,0.0,0.0,0.0,0.0,0.0,0.0,0.0,0.0,0.0,0.0,0.0,0.0,0.0,0.0,0.0,0.0,0.0,0.0,0.0,7.5962,7.6015,7.6015,7.6015,7.6015,7.6015,7.6015,7.6015,7.6015,7.6015,7.6015,7.6015,7.6015,7.6015,7.6015,7.6015,7.6015,7.6015,7.6015,7.6015,7.6015,7.6015,7.6015,7.6015,7.6015,7.6015,0.0,7.6015,7.6015,7.6015,7.6015,7.6015,7.6015,7.6015,7.6015,7.6015,7.6015,7.6015,7.6015,7.6015,7.6015,7.6015,7.6015,0.0,0.0,0.0,0.0,0.0,0.0,6.278,6.3723,6.469,6.5483,6.7232,6.8744,6.959,7.0437,7.0898,7.0898,7.0898,7.0898,7.0898,7.0898,7.0898,7.0898,7.0898,7.0898,7.0898,7.0898,7.0898,7.0898,7.0637,7.0494,7.0494,7.0233,7.0095,7.0095,7.0095,6.9957,6.9701,6.9701,6.955,6.9272,6.8999,6.875,6.844,6.7904,6.7687,6.7687,6.7687,6.7687,6.7687,6.7687,6.7687,6.7767,6.8033,6.8097,6.8395,0.0,0.0,0.0,0.0,0.0,0.0,0.0,0.0,0.0,0.0,0.0,0.0,0.0,0.0,7.6015,7.6015,0.0,7.6015,7.6015,7.6015,7.6015,7.6015,7.6015,7.6015,7.6015,7.6015,7.6015,7.6015,7.6015,7.6015,7.6015,7.6015,7.6015,7.6015,7.6015,7.6015,7.6015,7.6015,7.6207,7.663,7.663,7.6861,7.7246,7.7246,7.7246,7.7246,7.7246,7.7246,7.7246,7.7246,7.7246,7.7246,7.7246,7.7246,7.7246,7.7246,7.6746,7.6015,7.6015,7.6015,7.6053,0.0,0.0,0.0,0.0,0.0,0.0,0.0,6.3615,6.4501,6.5275,6.7054,6.8548,6.9346,7.0321,7.0898,7.0898,7.0898,7.0898,7.0898,7.0898,7.0898,7.0898,7.0898,7.0898,7.0898,7.0898,7.0898,7.0898,7.0898,7.0898,7.0898,7.0898,7.0898,7.0898,7.0898,7.0652,7.0266,7.0266,7.0026,6.9607,6.9511,6.9472,6.9353,6.8368,6.7996,6.7996,6.7996,6.7996,6.7996,6.7996,6.7996,6.8097,6.8535,6.866,6.905,7.1186,7.1803,0.0,0.0,0.0,0.0,0.0,0.0,0.0,0.0,7.6015,7.6015,7.6015,7.6015,7.6015,7.6015,7.6015,7.6015,7.6015,7.6015,7.6015,7.6015,7.6015,7.6015,7.6015,7.6015,7.6015,7.6015,7.6015,7.6015,7.6015,7.6015,7.6015,7.6015,7.6169,7.6245,7.6245,7.6399,7.6823,7.7515,7.7515,7.7861,7.8477,7.8477,7.8477,7.8477,7.8477,7.8477,7.8477,7.8477,7.8477,7.8477,7.8477,7.8477,7.8477,7.8477,7.7669,7.6476,7.6476,7.6476,7.6592,0.0,0.0,0.0,0.0,0.0,0.0,0.0,0.0,6.3909,6.4483,6.637,6.7914,6.8473,6.9937,7.0898,7.0898,7.0898,7.0898,7.0898,7.0898,7.0898,7.0898,7.0898,7.0898,7.0898,7.0898,7.0898,7.0898,7.0898,7.0898,7.0898,7.0898,7.0898,7.0898,7.0898,7.0871,7.0805,7.0805,7.0777,7.0666,7.0179,7.0026,6.9974,6.9353,6.9127,6.9127,6.9127,6.9127,6.9127,6.9127,6.9127,6.9127,6.919,6.921,6.957,7.1291,7.1803,7.2267,7.4448,7.5396,7.5818,7.5864,7.5947,7.6015,0.0,7.6015,7.6015,7.6015,7.6015,7.6015,7.6015,7.6015,7.6015,7.6015,7.6015,7.6015,7.6015,7.6015,7.6015,7.6015,7.6015,7.6015,7.6015,7.6015,7.6015,7.6015,7.6015,7.6015,7.6015,7.6746,7.713,7.713,7.7861,7.8246,7.8361,7.8361,7.84,7.8477,7.8477,7.8477,7.8477,7.8477,7.8477,7.8477,7.8477,7.8477,7.8477,7.8477,7.8477,7.8477,7.8477,7.84,7.8207,7.8207,7.8207,7.8207,0.0,0.0,0.0,0.0,0.0,0.0,0.0,0.0,0.0,6.3913,6.5823,6.7321,6.7875,6.9697,7.0898,7.0898,7.0898,7.0898,7.0898,7.0898,7.0898,7.0898,7.0898,7.0898,7.0898,7.0898,7.0898,7.0898,7.0898,7.0898,7.0898,7.0898,7.0898,7.0898,7.0898,7.0898,7.0898,7.0898,7.0898,7.0885,7.0652,7.0593,7.0524,7.0314,7.0233,7.0129,6.953,6.9313,0.0,6.9313,6.9313,6.9353,6.9664,7.0098,7.0818,7.2342,7.3115,7.3798,7.5222,7.5818,7.6015,7.6015,7.6015,7.6015,7.6015,7.6015,7.6015,7.6015,7.6015,7.6015,7.6015,7.6015,7.6015,7.6015,7.6015,7.6015,7.6015,7.6015,7.6015,7.6015,7.6438,7.6553,7.6053,7.6015,7.6207,7.6707,7.6746,7.6938,7.7438,7.7784,7.7977,7.7977,7.8323,7.8746,7.9246,7.9246,7.9515,8.0015,8.0015,8.0015,8.0015,8.0015,8.0015,8.0015,8.0015,8.0015,8.0015,8.0015,8.0015,8.0015,8.0015,8.0015,7.99,7.8861,7.8477,7.8554,0.0,0.0,0.0,0.0,0.0,0.0,0.0,0.0,0.0,0.0,6.5153,6.6692,6.785,6.9582,7.0748,7.0885,7.0898,7.0898,7.0898,7.0898,7.0898,7.0898,7.0898,7.0898,7.0898,7.0898,7.0898,7.0898,7.0898,7.0898,7.0898,7.0898,7.0898,7.0898,7.0898,7.0898,7.0898,7.0898,7.0898,7.0898,7.0898,7.0898,7.0898,7.0898,7.0898,7.0791,7.0026,6.9738,6.9738,6.9738,6.9738,6.9831,7.0484,7.1134,7.1909,7.3389,7.4399,7.5207,7.5822,7.6015,7.6015,7.6015,7.6015,7.6015,7.6015,7.6015,7.6015,7.6015,7.6015,7.6015,7.6015,7.6015,7.6015,7.6015,7.6015,7.6015,7.6015,7.6207,7.6361,7.6361,7.7092,7.7361,7.6746,7.6669,7.6938,7.7592,7.763,7.79,7.8492,7.8707,7.8861,7.8861,7.9092,7.9515,8.0169,8.0169,8.0477,8.1093,8.1093,8.1093,8.1093,8.1093,8.1093,8.1093,8.1093,8.1093,8.1093,8.1093,8.1093,8.1093,8.1093,8.1093,8.0939,7.9669,7.9208,7.9323,0.0,0.0,0.0,0.0,0.0,0.0,0.0,0.0,0.0,0.0,0.0,0.0,0.0,6.9633,7.033,7.0871,7.0898,7.0898,7.0898,7.0898,7.0898,7.0898,7.0898,7.0898,7.0898,7.0898,7.0898,7.0898,7.0898,7.0898,7.0898,7.0898,7.0898,7.0898,7.0898,7.0898,7.0898,7.0898,7.0898,7.0898,7.0898,7.0898,7.0898,7.0898,7.0898,7.0898,7.0871,7.0871,7.0871,7.0871,7.0871,7.0986,7.1846,7.2154,7.25,7.4154,7.5284,7.5976,7.5976,7.6015,7.6015,7.6015,7.6015,7.6015,7.6015,7.6015,7.6015,7.6015,7.6015,7.6015,7.6015,7.6015,7.6015,7.6015,7.6015,7.6015,7.6015,7.6746,7.7246,7.7246,7.7977,7.8438,7.8438,7.84,7.8438,7.8453,7.8453,7.8477,7.8477,7.9285,7.9746,7.9746,8.0592,8.1016,8.1054,8.1054,8.1054,8.1093,8.1093,8.1093,8.1093,8.1093,8.1093,8.1093,8.1093,8.1093,8.1093,8.1093,8.1093,8.1093,8.1093,8.1093,8.1093,8.1054,8.1016,8.1016,0.0,0.0,0.0,0.0,0.0,0.0,0.0,0.0,0.0,0.0,0.0,0.0,0.0,0.0,0.0,0.0,7.0362,7.0509,7.0885,7.0898,7.0898,7.0898,7.0898,7.0898,7.0898,7.0898,7.0898,7.0898,7.0898,7.0898,7.0898,7.0898,7.0898,7.0898,7.0898,7.0898,7.0898,7.0898,7.0898,7.0898,7.0898,7.0898,7.0898,7.0898,7.0898,7.0898,0.0,7.0898,7.0898,7.0898,7.0898,7.1052,7.1937,7.2591,7.3399,7.5053,7.5784,7.6015,7.6015,7.6015,7.6015,7.6015,7.6015,7.6015,7.6015,7.6015,7.6015,7.6015,7.6015,7.6015,7.6015,7.6015,7.6015,7.6015,7.6476,7.6861,7.6861,7.7553,7.8092,7.8092,7.8861,7.9361,7.9361,7.8823,7.8746,7.9323,7.9361,7.9592,8.0169,8.0516,8.0669,8.0669,8.0939,8.1093,8.1093,8.1093,8.1093,8.1093,8.1093,8.1093,8.1131,8.1631,8.19,8.1939,8.2516,8.2747,8.2747,8.2747,8.2747,8.2747,8.2747,8.2747,8.2747,8.2747,8.2747,8.267,0.0,0.0,0.0,0.0,0.0,0.0,0.0,0.0,0.0,0.0,0.0,0.0,0.0,0.0,0.0,0.0,0.0,6.9756,7.0554,7.0622,7.0681,7.0898,7.0898,7.0898,7.0898,7.0898,7.0898,7.0898,7.0898,7.0898,7.0898,7.0898,7.0898,7.0898,7.0898,7.0898,7.0898,7.0898,7.0898,7.0898,7.0898,7.0898,7.0898,7.0898,7.0898,0.0,7.0898,7.0898,7.0898,7.0898,7.0898,7.1129,7.2283,7.3476,7.4591,7.5668,7.6015,7.6015,7.6015,7.6015,7.6015,7.6015,7.6015,7.6015,7.6015,7.6015,7.6015,7.6015,7.6015,7.6092,7.6399,7.6207,7.6207,7.6784,7.713,7.74,7.7669,7.8438,7.8977,7.8977,7.9746,8.0246,8.0246,7.9746,7.9669,8.0208,8.0246,8.0516,8.1054,8.1093,8.1093,8.1093,8.1093,8.1093,8.1093,8.1093,8.1246,8.1516,8.1516,8.1708,8.2016,8.2516,8.2747,8.2785,8.3362,8.3593,8.3593,8.3593,8.3593,8.3593,8.3593,8.3593,8.3593,8.3593,8.3785,8.3939,0.0,0.0,0.0,0.0,0.0,0.0,0.0,0.0,0.0,0.0,0.0,0.0,0.0,0.0,0.0,0.0,0.0,0.0,6.9929,7.0019,7.0292,7.0857,7.0885,7.0898,7.0898,7.0898,7.0898,7.0898,7.0898,7.0898,7.0898,7.0898,7.0898,7.0898,7.0898,7.0898,7.0898,7.0898,7.0898,7.0898,7.0898,7.0898,7.0898,7.0898,7.0898,7.0898,7.0898,7.0898,7.0898,7.0898,7.0937,7.1245,7.2976,7.463,7.5938,7.5976,7.6015,7.6015,7.6015,7.6015,7.6015,7.6015,7.6015,7.6015,7.6015,7.6015,7.6015,7.6015,7.6053,7.6322,7.713,7.6669,7.663,7.8246,7.79,7.7669,7.8438,7.9323,7.9862,7.9862,8.0592,8.1093,8.1093,8.1093,8.1093,8.1093,8.1093,8.1093,8.1093,8.1093,8.1093,8.1093,8.1093,8.1093,8.1093,8.1131,8.1554,8.2362,8.2362,8.2785,8.3593,8.3632,8.367,8.367,8.3708,8.3708,8.3708,8.3708,8.3708,8.3708,8.3708,8.3708,8.3708,8.3708,8.4247,8.4863,0.0,0.0,0.0,0.0,0.0,0.0,0.0,0.0,0.0,0.0,0.0,0.0,0.0,0.0,0.0,0.0,0.0,0.0,6.8527,6.8988,6.9513,7.026,7.0681,7.0898,7.0898,7.0898,7.0898,7.0898,7.0898,7.0898,7.0898,7.0898,7.0898,7.0898,7.0898,7.0898,7.0898,7.0898,7.0898,7.0898,7.0898,7.0898,7.0898,7.0898,7.0898,7.0898,7.0898,7.0898,7.0898,7.0898,7.1321,7.2052,7.3168,7.4207,7.5168,7.5822,7.6015,7.6015,7.6015,7.6015,7.6015,7.6015,7.6015,7.6015,7.6015,7.6015,7.6015,7.6015,7.6515,7.7053,7.7246,7.7592,7.7977,7.8438,7.8861,7.9246,7.9438,8.0208,8.0785,8.0785,8.0977,8.1093,8.1093,8.1093,8.1093,8.1093,8.1093,8.1093,8.1093,8.1093,8.1093,8.1093,8.1093,8.1093,8.1093,8.1708,8.2401,8.3247,8.3247,8.3362,8.3632,8.4286,8.4555,8.4593,8.5209,8.5478,8.5478,8.5478,8.5478,8.5478,8.5478,8.5478,8.5478,8.5478,8.5593,8.5747,0.0,0.0,0.0,0.0,0.0,0.0,0.0,0.0,0.0,0.0,0.0,0.0,0.0,0.0,0.0,0.0,0.0,0.0,0.0,6.7839,6.8508,6.9187,7.0091,7.0539,7.0539,7.0777,7.0898,7.0898,7.0898,7.0898,7.0898,7.0898,7.0898,7.0898,7.0898,7.0898,7.0898,7.0898,7.0898,0.0,0.0,7.0898,7.0898,7.0898,7.0898,7.0898,7.0898,7.0898,7.0898,7.0898,7.1475,7.236,7.3245,7.4053,7.4861,7.5745,7.6015,7.6015,7.6015,7.6015,7.6015,7.6015,7.6015,7.6015,7.6015,7.6015,7.6015,7.6015,7.6669,7.74,7.7746,7.8207,7.8746,7.9515,7.9746,7.9939,8.0323,8.0785,8.1093,8.1093,8.1093,8.1093,8.1093,8.1093,8.1093,8.1093,8.1093,8.1093,8.1093,8.1093,8.1093,8.1093,8.1439,8.1823,8.217,8.2631,8.3324,8.417,8.417,8.4362,8.4709,8.5209,8.544,8.544,8.5901,8.6094,8.6094,8.6094,8.6094,8.6094,8.6094,8.6094,8.6094,8.6094,8.6094,8.6094,0.0,0.0,0.0,0.0,0.0,0.0,0.0,0.0,0.0,0.0,0.0,0.0,0.0,0.0,0.0,0.0,0.0,0.0,0.0,0.0,6.727,6.7967,6.9169,6.9857,6.9971,7.0509,7.0791,7.0791,7.0871,7.0898,7.0898,7.0898,7.0898,7.0898,7.0898,7.0898,7.0898,7.0898,7.0898,7.0898,7.0898,7.0898,7.0898,0.0,7.0898,7.0898,7.0898,7.0898,7.0898,7.0898,7.1398,7.2206,7.3206,7.3976,7.4745,7.5707,7.6015,7.6015,7.6015,7.6015,7.6015,7.6015,7.6015,7.6015,7.6015,7.6015,7.6015,7.6015,7.6669,7.7553,7.8361,7.8592,7.9208,8.0823,8.0477,8.0246,8.0977,8.1093,8.1093,8.1093,8.1093,8.1093,8.1093,8.1093,8.1093,8.1093,8.1093,8.1093,8.1093,8.1093,8.1131,8.1246,8.2054,8.2901,8.3747,8.3747,8.4209,8.5055,8.5055,8.544,8.6094,8.6094,8.6094,8.6094,8.6094,8.6094,8.6094,8.6094,8.6094,8.6094,8.6094,8.6094,8.6094,8.6094,8.6094,8.6094,0.0,0.0,0.0,0.0,0.0,0.0,0.0,0.0,0.0,0.0,6.278,0.0,0.0,0.0,0.0,0.0,0.0,0.0,0.0,0.0,0.0,6.7367,6.8097,6.8753,6.9415,6.9936,7.025,7.025,7.0666,7.0898,7.0898,7.0898,7.0898,7.0898,7.0898,7.0898,7.0898,7.0898,7.0898,7.0898,7.0898,7.0898,7.0898,7.0898,0.0,0.0,7.0898,7.0898,7.0898,7.0898,7.1014,7.1398,7.3014,7.3577,7.4014,7.5553,7.6015,7.6015,7.6015,7.6015,7.6015,7.6015,7.6015,7.6015,7.6015,7.6015,7.6015,7.6015,7.6669,7.7553,7.8361,7.9092,7.99,8.0939,8.0977,8.0939,8.1093,8.1093,8.1093,8.1093,8.1093,8.1093,8.1093,8.1093,8.1093,8.1093,8.1093,8.1093,8.1093,8.1093,8.14,8.2054,8.2939,8.3785,8.467,8.467,8.5093,8.5901,8.5901,8.5978,8.6094,8.6094,8.6094,8.6094,8.6094,8.6094,8.6094,8.6094,8.6094,8.6094,8.6094,8.6094,8.6094,8.6094,8.6094,8.6094,0.0,0.0,0.0,0.0,0.0,0.0,0.0,0.0,0.0,0.0,6.278,6.278,0.0,0.0,0.0,0.0,0.0,0.0,0.0,0.0,0.0,6.5619,6.6523,6.745,6.8232,6.879,6.9246,6.9683,0.0,7.0478,7.0494,7.0777,7.0898,7.0898,7.0898,7.0898,7.0898,7.0898,7.0898,7.0898,7.0898,7.0898,7.0898,0.0,0.0,0.0,7.0898,7.0898,7.0898,7.0898,7.0898,7.1206,7.2937,7.3514,7.3822,7.5515,7.6015,7.6015,7.6015,7.6015,7.6015,7.6015,7.6015,7.6015,7.6015,7.6015,7.6015,7.6015,7.6669,7.7553,7.8361,7.9208,8.0092,8.0977,8.1093,8.1093,8.1093,8.1093,8.1093,8.1093,8.1093,8.1093,8.1093,8.1093,8.1093,8.1093,8.1477,8.1708,8.1708,8.2131,8.2785,8.3632,8.4055,8.467,8.5517,8.5517,8.5709,8.6094,8.6094,8.6094,8.6094,8.6094,8.6094,8.6094,8.6094,8.6094,8.6094,8.6094,8.6094,8.6094,8.6094,8.6094,8.6094,8.6094,8.6094,8.6094,0.0,0.0,0.0,0.0,0.0,0.0,0.0,6.1229,6.1632,6.2464,6.2541,6.2592,6.278,6.278,6.278,0.0,0.0,0.0,0.0,0.0,0.0,0.0,0.0,0.0,6.6871,0.0,0.0,6.8863,6.9588,0.0,0.0,0.0,0.0,0.0,7.0578,7.0578,7.0578,7.0578,7.0578,0.0,0.0,7.0622,7.0748,0.0,0.0,0.0,0.0,7.0898,7.0898,7.0898,7.0898,7.1206,7.2937,7.3514,7.3822,7.5515,7.6015,7.6015,7.6015,7.6015,7.6015,7.6015,7.6015,7.6015,7.6015,7.6015,7.6015,7.6015,7.6553,7.7323,7.8323,7.9054,7.9862,8.0939,8.1093,8.1093,8.1093,8.1093,8.1093,8.1093,8.1093,8.1093,8.1093,8.1093,8.1093,8.1093,8.2016,8.2593,8.2593,8.3401,8.417,8.4901,8.5093,8.5478,8.6094,8.6094,8.6094,8.6094,8.6094,8.6094,8.6094,8.6094,8.6094,8.6094,8.6094,8.6094,8.6094,8.6094,8.6094,8.6094,8.6094,8.6094,8.6094,8.6094,8.6094,8.6094,0.0,0.0,0.0,0.0,0.0,0.0,0.0,6.0023,6.079,6.1604,6.1715,6.1996,6.273,6.278,6.278,0.0,0.0,0.0,0.0,0.0,0.0,0.0,0.0,0.0,0.0,0.0,0.0,6.7485,6.8751,0.0,0.0,0.0,0.0,0.0,0.0,6.9452,6.9452,6.9452,0.0,0.0,0.0,0.0,0.0,0.0,0.0,0.0,0.0,7.0898,7.0898,7.0898,7.0898,7.1206,7.2937,7.3514,7.3822,7.5515,7.6015,7.6015,7.6015,7.6015,7.6015,7.6015,7.6015,7.6015,7.6015,7.6015,7.6015,7.6015,7.6053,7.6592,7.8207,7.8554,7.9169,8.0823,8.1093,8.1093,8.1093,8.1093,8.1093,8.1093,8.1093,8.1093,8.1093,8.1093,8.1093,8.1093,8.2593,8.3478,8.3478,8.4324,8.4824,8.4901,8.5632,8.6017,8.6094,8.6094,8.6094,8.6094,8.6094,8.6094,8.6094,8.6094,8.6094,8.6094,8.6094,8.6094,8.6094,8.6094,8.6094,8.6094,8.6094,8.6094,8.6094,8.6094,8.6094,8.6094,0.0,0.0,0.0,0.0,0.0,0.0,0.0,5.941,5.9928,6.076,6.1286,6.1715,6.2049,6.2515,6.278,0.0,0.0,0.0,0.0,0.0,0.0,0.0,0.0,0.0,0.0,0.0,6.5595,6.6112,6.7425,0.0,0.0,0.0,0.0,0.0,0.0,6.9313,6.9313,6.9313,0.0,0.0,0.0,0.0,0.0,0.0,0.0,0.0,0.0,0.0,7.0898,7.0898,7.0898,7.1206,7.2937,7.3514,7.3822,7.5515,7.6015,7.6015,7.6015,7.6015,7.6015,7.6015,7.6015,7.6015,7.6015,7.6015,7.6015,7.6015,7.6015,7.6361,7.7553,7.8169,7.89,8.0131,8.0746,8.1093,8.1093,8.1093,8.1093,8.1093,8.1093,8.1093,8.1093,8.1093,8.1516,8.2516,8.3708,8.4593,8.5093,8.544,8.5632,8.5632,8.594,8.6094,8.6094,8.6094,8.6094,8.6094,8.6094,8.6094,8.6094,8.6094,8.6094,8.6094,8.6094,8.6094,8.6094,8.6094,8.6094,8.6094,8.6094,8.6094,8.6094,8.6094,8.6094,8.6094,0.0,0.0,0.0,0.0,0.0,0.0,5.8668,5.8737,5.9078,5.9896,6.0484,6.0932,6.12,6.1969,6.2464,6.2464,0.0,0.0,0.0,0.0,0.0,0.0,0.0,0.0,0.0,0.0,6.4383,6.4971,6.6371,6.7035,0.0,0.0,6.884,6.884,0.0,0.0,0.0,0.0,0.0,0.0,0.0,0.0,0.0,0.0,0.0,0.0,0.0,0.0,0.0,0.0,0.0,7.095,7.2587,7.3283,7.3822,7.5515,7.6015,7.6015,7.6015,7.6015,7.6015,7.6015,7.6015,7.6015,7.6015,7.6015,7.6015,7.6015,7.6015,7.6284,7.713,7.7938,7.8784,7.9669,8.0516,8.1093,8.1093,8.1093,8.1093,8.1093,8.1093,8.1093,8.1093,8.1323,8.2054,8.3478,8.4401,8.5247,8.6055,8.6094,8.6094,8.6094,8.6094,8.6094,8.6094,8.6094,8.6094,8.6094,8.6094,8.6094,8.6094,8.6094,8.6094,8.6094,8.6094,8.6094,8.6094,8.6094,8.6094,8.6094,8.6094,8.6094,8.6094,8.6094,8.6094,8.6094,0.0,0.0,0.0,0.0,0.0,0.0,0.0,5.7918,5.8209,5.901,5.9111,5.9443,6.0304,6.1113,6.1632,6.1632,0.0,0.0,0.0,0.0,0.0,0.0,0.0,0.0,0.0,0.0,6.409,6.409,6.5705,6.6512,6.6539,6.7347,6.7714,6.7714,0.0,0.0,0.0,0.0,0.0,0.0,0.0,0.0,0.0,0.0,0.0,0.0,0.0,0.0,0.0,0.0,0.0,0.0,0.0,7.2822,7.3822,7.5515,7.6015,7.6015,7.6015,7.6015,7.6015,7.6015,7.6015,7.6015,7.6015,7.6015,7.6015,7.6015,7.6015,7.6284,7.713,7.7938,7.8784,7.9669,8.0516,8.1093,8.1093,8.1093,8.1093,8.1093,8.1093,8.1093,8.1093,8.1823,8.2631,8.3516,8.4401,8.5247,8.6055,8.6094,8.6094,8.6094,8.6094,8.6094,8.6094,8.6094,8.6094,8.6094,8.6094,8.6094,8.6094,8.6094,8.6094,8.6094,8.6094,8.6094,8.6094,8.6094,8.6094,8.6094,8.6094,8.6094,8.6094,8.6094,8.6094,8.6094,0.0,0.0,0.0,0.0,0.0,0.0,0.0,5.7881,5.7991,5.8246,5.8737,5.9211,5.9476,6.0273,6.076,6.076,0.0,0.0,0.0,0.0,0.0,0.0,0.0,0.0,0.0,0.0,6.3209,6.3209,6.431,6.5154,6.5705,6.6512,6.7173,6.7687,6.7687,6.7687,0.0,0.0,0.0,0.0,0.0,0.0,6.8544,0.0,0.0,0.0,0.0,0.0,0.0,0.0,0.0,0.0,0.0,0.0,0.0,7.4784,7.5515,7.6015,7.6015,7.6015,7.6015,7.6015,7.6015,7.6015,7.6015,7.6015,7.6015,7.6015,7.6015,7.6092,7.6361,7.7553,7.8592,7.8861,8.0131,8.1093,8.1093,8.1093,8.1093,8.1093,8.1093,8.1093,8.1093,8.2362,8.3285,8.3555,8.4901,8.5824,8.6094,8.6094,8.6094,8.6094,8.6094,8.6094,8.6094,8.6094,8.6094,8.6094,8.6094,8.6094,8.6094,8.6094,8.6094,8.6094,8.6094,8.6094,8.6094,8.6094,8.6094,8.6094,8.6094,8.6094,8.6094,8.6094,8.6094,8.6094,0.0,0.0,0.0,0.0,0.0,0.0,0.0,5.7881,5.7881,5.7881,5.8352,5.8668,5.8668,5.9377,5.9896,5.9896,0.0,0.0,0.0,0.0,0.0,0.0,0.0,0.0,0.0,6.278,6.278,6.278,6.3686,6.4347,6.4861,6.5999,6.6769,6.7247,6.754,6.7687,0.0,0.0,0.0,0.0,0.0,0.0,6.8235,0.0,0.0,0.0,0.0,0.0,0.0,0.0,0.0,0.0,0.0,0.0,0.0,0.0,7.4369,7.5334,7.5855,7.6015,7.6015,7.6015,7.6015,7.6015,7.6015,7.6015,7.6015,7.6015,7.6015,7.6015,7.6015,7.7361,7.8477,7.8477,7.9939,8.1093,8.1093,8.1093,8.1093,8.1093,8.1093,8.1093,8.1093,8.2631,8.3593,8.3593,8.5132,8.6094,8.6094,8.6094,8.6094,8.6094,8.6094,8.6094,8.6094,8.6094,8.6094,8.6094,8.6094,8.6094,8.6094,8.6094,8.6094,8.6094,8.6094,8.6094,0.0,8.6094,8.6094,8.6094,8.6094,8.6094,8.6094,8.6094,8.6094,8.617,0.0,0.0,0.0,0.0,0.0,0.0,0.0,0.0,0.0,0.0,5.7881,5.7881,5.7881,5.8564,5.901,0.0,0.0,0.0,0.0,0.0,0.0,0.0,0.0,0.0,6.278,6.278,6.278,6.278,6.3613,6.4016,6.4127,6.5705,6.6439,6.6549,6.732,6.7687,0.0,0.0,0.0,0.0,6.7687,6.7687,0.0,0.0,0.0,0.0,0.0,0.0,0.0,0.0,0.0,0.0,0.0,0.0,0.0,0.0,0.0,0.0,0.0,7.5962,7.6015,7.6015,7.6015,7.6015,7.6015,7.6015,0.0,7.6015,7.6015,7.6015,7.6015,7.7323,7.8438,7.8477,7.99,8.1016,8.1093,8.1093,8.1093,8.1093,8.1093,8.1093,8.1093,8.2631,8.3593,8.3593,8.5132,8.6094,8.6094,8.6094,8.6094,8.6094,8.6094,8.6094,8.6094,8.6094,8.6094,8.6094,8.6094,8.6094,8.6094,8.6094,8.6094,8.6094,8.6094,8.6094,8.6094,8.6094,8.6094,8.6094,8.6094,8.6094,8.6094,8.6094,8.6094,8.6209,0.0,0.0,0.0,0.0,0.0,0.0,0.0,0.0,0.0,0.0,0.0,5.7881,5.7881,5.8065,0.0,0.0,0.0,0.0,0.0,0.0,0.0,0.0,0.0,0.0,6.278,6.278,6.278,6.278,6.3025,6.3466,6.4127,6.5118,6.5925,6.6549,6.732,6.7687,0.0,0.0,0.0,0.0,6.7687,6.7687,0.0,0.0,0.0,0.0,6.7687,6.7687,0.0,0.0,0.0,0.0,0.0,0.0,0.0,0.0,7.2775,7.4114,7.5042,0.0,7.6015,7.6015,7.6015,7.6015,0.0,7.6015,7.6015,7.6015,7.6015,7.6015,7.6015,7.6861,7.7784,7.84,7.94,8.0323,8.1016,8.1093,8.1093,8.1093,8.1093,8.1093,8.1093,8.2631,8.3593,8.3593,8.5132,8.6094,8.6094,8.6094,8.6094,8.6094,8.6094,8.6094,8.6094,8.6094,8.6094,8.6094,8.6094,8.6094,8.6094,8.6094,8.6094,8.6094,8.6094,8.6094,8.6094,8.6094,8.6094,8.6094,8.6094,8.6094,8.6094,8.6094,8.6094,8.6209,0.0,0.0,0.0,0.0,0.0,0.0,0.0,0.0,0.0,0.0,0.0,0.0,0.0,0.0,0.0,0.0,0.0,0.0,0.0,0.0,0.0,0.0,0.0,6.278,6.278,6.278,6.278,6.278,6.278,6.3062,6.3503,6.4347,6.5191,6.5999,6.7173,6.7687,0.0,0.0,0.0,0.0,6.7687,0.0,0.0,0.0,0.0,0.0,6.7687,6.7687,0.0,6.8021,6.8148,6.8161,0.0,0.0,0.0,0.0,7.1955,7.3193,7.4408,7.5344,7.6015,7.6015,7.6015,7.6015,7.6015,7.6015,7.6015,7.6015,7.6015,7.6015,7.6015,7.6707,7.7553,7.8361,7.9246,8.0092,8.0977,8.1093,8.1093,8.1093,8.1093,8.1093,8.1093,8.2247,8.317,8.3555,8.4824,8.5709,8.6094,8.6094,8.6094,8.6094,8.6094,8.6094,8.6094,8.6094,8.6094,8.6094,8.6094,8.6094,8.6094,8.6094,8.6094,8.6094,8.6094,8.6094,8.6094,8.6094,8.6094,8.6094,8.6094,8.6094,8.6094,8.6094,8.6363,8.6824,0.0,0.0,0.0,0.0,0.0,0.0,0.0,0.0,0.0,0.0,0.0,0.0,0.0,0.0,0.0,0.0,0.0,0.0,0.0,0.0,0.0,0.0,0.0,6.278,6.278,6.278,6.278,6.278,6.278,6.278,6.2817,6.3686,6.453,6.5375,6.6733,6.7393,0.0,0.0,0.0,6.7687,6.7687,0.0,0.0,0.0,0.0,0.0,0.0,0.0,0.0,6.7687,6.7687,6.7687,6.7687,0.0,0.0,0.0,0.0,0.0,7.3673,7.5034,7.6015,7.6015,7.6015,7.6015,7.6015,7.6015,7.6015,7.6015,7.6015,7.6015,7.6015,7.6592,7.74,7.8376,7.9323,8.0246,8.1016,8.1093,8.1093,8.1093,8.1093,8.1093,8.1093,8.1823,8.267,8.3516,8.4401,8.5247,8.6055,8.6094,8.6094,8.6094,8.6094,8.6094,8.6094,8.6094,8.6094,8.6094,8.6094,8.6094,8.6094,8.6094,8.6094,8.6094,8.6094,8.6094,8.6094,8.6094,8.6094,8.6094,8.6094,8.6094,8.6094,8.6094,8.6632,8.7555,0.0,0.0,0.0,0.0,0.0,0.0,0.0,0.0,0.0,0.0,0.0,0.0,0.0,0.0,0.0,0.0,0.0,0.0,0.0,0.0,0.0,6.1742,6.2464,6.278,6.278,6.278,6.278,6.278,6.278,6.278,6.2817,6.3686,6.453,6.5301,6.5558,6.6035,6.6659,0.0,0.0,6.7687,6.7687,0.0,0.0,0.0,0.0,0.0,0.0,0.0,0.0,6.7687,6.7687,6.7687,6.7687,0.0,0.0,0.0,0.0,0.0,7.2956,7.4557,7.6015,7.6015,7.6015,7.6015,7.6015,7.6015,7.6015,7.6015,7.6015,7.6015,7.6015,7.6092,7.6707,7.8246,7.9862,8.0939,8.1093,8.1093,8.1093,8.1093,8.1093,8.1093,8.1093,8.1823,8.267,8.3516,8.4401,8.5247,8.6055,8.6094,8.6094,8.6094,8.6094,8.6094,8.6094,8.6094,8.6094,8.6094,8.6094,8.6094,8.6094,8.6094,8.6094,8.6094,8.6094,8.6094,8.6094,8.6094,8.6094,8.6094,8.6094,8.6094,8.6094,8.6094,8.6632,8.7632,0.0,0.0,0.0,0.0,0.0,0.0,0.0,0.0,0.0,0.0,0.0,0.0,0.0,0.0,0.0,0.0,0.0,0.0,0.0,0.0,5.9861,6.0238,6.1456,6.235,6.278,6.278,6.278,6.278,6.278,6.278,6.2817,6.3686,6.431,6.4677,6.5118,6.5521,6.5852,6.5852,6.6072,6.6402,0.0,0.0,0.0,0.0,0.0,0.0,0.0,0.0,0.0,0.0,6.7687,6.7687,6.7687,0.0,0.0,0.0,0.0,0.0,7.2767,7.4481,7.6015,7.6015,7.6015,7.6015,7.6015,7.6015,7.6015,7.6015,7.6015,7.6015,7.6015,7.6015,7.6553,7.8207,7.9939,8.1093,8.1093,8.1093,8.1093,8.1093,8.1093,8.1093,8.1093,8.1439,8.217,8.3478,8.3978,8.4747,8.6017,8.6094,8.6094,8.6094,8.6094,8.6094,8.6094,8.6094,8.6094,8.6094,8.6094,8.6094,8.6094,8.6094,8.6094,8.6094,8.6094,8.6094,8.6094,8.6094,8.6094,8.6094,8.6094,8.6094,8.6209,8.7171,8.8017,8.894,0.0,0.0,0.0,0.0,0.0,0.0,0.0,0.0,0.0,0.0,0.0,0.0,0.0,0.0,0.0,0.0,0.0,0.0,0.0,0.0,5.8909,5.9077,6.0331,6.1484,6.2515,6.2705,6.278,6.278,6.278,6.278,6.278,6.3466,6.3796,6.3833,6.4457,6.4824,6.5007,6.5007,6.5154,6.5301,0.0,0.0,0.0,0.0,0.0,0.0,0.0,0.0,0.0,0.0,0.0,0.0,0.0,0.0,0.0,6.8458,7.015,7.1941,7.2562,7.4328,7.6015,7.6015,7.6015,7.6015,7.6015,7.6015,7.6015,7.6015,7.6015,7.6015,7.6015,7.6322,7.7015,7.8284,7.9939,8.1093,8.1093,8.1093,8.1093,8.1093,8.1093,8.1093,8.1093,8.1093,8.1785,8.3478,8.3593,8.4324,8.6017,8.6094,8.6094,8.6094,8.6094,8.6094,8.6094,8.6094,8.6094,8.6094,8.6094,8.6094,8.6094,8.6094,8.6094,8.6094,8.6094,8.6094,8.6094,8.6094,8.6094,8.6094,8.6094,8.6209,8.6594,8.8132,8.921,9.0017,0.0,0.0,0.0,0.0,0.0,0.0,0.0,0.0,0.0,0.0,0.0,0.0,0.0,0.0,0.0,0.0,0.0,0.0,0.0,0.0,5.8317,5.9077,5.9211,6.0051,6.1659,6.2438,6.278,6.278,6.278,6.278,6.278,6.2853,6.289,6.2915,6.2952,6.3429,6.42,6.42,6.4604,6.5301,6.5301,0.0,0.0,0.0,0.0,0.0,0.0,0.0,0.0,0.0,0.0,0.0,0.0,0.0,6.7714,6.776,6.9703,7.1828,7.1865,7.3888,7.6015,7.6015,7.6015,7.6015,7.6015,7.6015,7.6015,7.6015,7.6015,7.6015,7.6015,7.7284,7.8361,7.8477,7.9939,8.1093,8.1093,8.1093,8.1093,8.1093,8.1093,8.1093,8.1093,8.1093,8.1785,8.3478,8.3593,8.4324,8.6017,8.6094,8.6094,8.6094,8.6094,8.6094,8.6094,8.6094,8.6094,8.6094,8.6094,8.6094,8.6094,8.6094,8.6094,8.6094,8.6094,8.6094,8.6094,8.6094,8.6094,8.6094,8.6094,8.6594,8.7401,8.8363,8.921,9.0017,0.0,0.0,0.0,0.0,0.0,0.0,0.0,0.0,0.0,0.0,0.0,0.0,0.0,0.0,0.0,0.0,0.0,0.0,0.0,5.8998,5.8705,5.9033,5.9589,6.0211,6.082,6.1632,6.2298,6.278,6.278,6.278,6.278,6.278,6.278,6.278,6.278,6.2989,6.3282,6.3282,6.3466,6.3759,6.3759,6.3759,0.0,0.0,0.0,0.0,0.0,0.0,0.0,0.0,6.7687,6.7687,6.7687,6.7687,6.7687,6.7687,6.9629,7.179,7.179,7.385,7.6015,7.6015,7.6015,7.6015,7.6015,7.6015,7.6015,7.6015,7.6015,7.6015,7.6015,7.7361,7.8477,7.8477,7.9939,8.1093,8.1093,8.1093,8.1093,8.1093,8.1093,8.1093,8.1093,8.1093,8.1554,8.2708,8.3285,8.4093,8.5286,8.5824,8.6094,8.6094,8.6094,8.6094,8.6094,8.6094,8.6094,8.6094,8.6094,8.6094,8.6094,8.6094,8.6094,8.6094,8.6094,8.6094,8.6094,8.6094,8.6094,8.617,8.6709,8.744,8.8325,8.9133,8.9979,9.0748,0.0,0.0,0.0,0.0,0.0,0.0,0.0,0.0,0.0,0.0,0.0,0.0,0.0,0.0,0.0,0.0,0.0,0.0,6.0486,5.9776,5.937,5.937,5.9976,6.0505,6.0755,6.1315,6.1996,6.278,6.278,6.278,6.278,6.278,6.278,6.278,6.278,6.278,6.278,6.278,6.278,6.278,6.278,6.278,0.0,0.0,0.0,0.0,0.0,0.0,0.0,0.0,6.7687,6.7687,6.7687,6.7687,6.7687,6.7687,6.9629,7.179,7.179,7.385,7.6015,7.6015,7.6015,7.6015,7.6015,7.6015,7.6015,7.6015,7.6015,7.6015,7.6015,7.7361,7.8477,7.8477,7.9939,8.1093,8.1093,8.1093,8.1093,8.1093,8.1093,8.1093,8.1093,8.1093,8.1439,8.2247,8.3093,8.3978,8.4863,8.567,8.6094,8.6094,8.6094,8.6094,8.6094,8.6094,8.6094,8.6094,8.6094,8.6094,8.6094,8.6094,8.6094,8.6094,8.6094,8.6094,8.6094,8.6094,8.6094,8.6209,8.7055,8.794,8.8786,8.9594,9.0441,9.121,0.0,0.0,0.0,0.0,0.0,0.0,0.0,0.0,0.0,0.0,0.0,0.0,0.0,0.0,0.0,0.0,0.0,0.0,6.1332,6.0554,6.0114,6.0114,6.0249,6.0695,6.1467,6.1566,6.1996,6.278,6.278,6.278,6.278,6.278,6.278,6.278,6.278,6.278,6.278,6.278,6.278,6.278,6.278,6.278,6.278,0.0,0.0,0.0,0.0,0.0,0.0,0.0,6.7714,6.7714,6.7714,6.7714,6.7714,6.7714,6.9653,7.179,7.179,7.3868,7.6015,7.6015,7.6015,7.6015,7.6015,7.6015,7.6015,7.6015,7.6015,7.6015,7.6015,7.7361,7.8477,7.8477,7.9939,8.1093,8.1093,8.1093,8.1093,8.1093,8.1093,8.1093,8.1093,8.1093,8.1439,8.2247,8.3093,8.3978,8.4863,8.567,8.6094,8.6094,8.6094,8.6094,8.6094,8.6094,8.6094,8.6094,8.6094,8.6094,8.6094,8.6094,8.6094,8.6094,8.6094,8.6094,8.6094,8.6094,8.6094,8.6209,8.7055,8.794,8.8786,8.9633,9.0479,9.121,0.0,0.0,0.0,0.0,0.0,0.0,0.0,0.0,0.0,0.0,0.0,0.0,0.0,0.0,0.0,0.0,0.0,0.0,6.2076,6.1366,6.0926,6.0926,6.1606,6.1841,6.1502,6.2112,6.2567,6.278,6.278,6.278,6.278,6.278,6.278,6.278,6.278,6.278,6.278,6.278,6.278,6.278,6.278,6.278,6.278,0.0,0.0,0.0,0.0,0.0,0.0,0.0,0.0,0.0,6.781,6.821,6.875,6.8368,7.0229,7.2356,7.2356,7.4128,7.6015,7.6015,7.6015,7.6015,7.6015,7.6015,7.6015,7.6015,7.6015,7.6015,7.6015,7.7361,7.8477,7.8477,7.9939,8.1093,8.1093,8.1093,8.1093,8.1093,8.1093,8.1093,8.1093,8.1093,8.1208,8.1439,8.2785,8.3708,8.3978,8.5324,8.6094,8.6094,8.6094,8.6094,8.6094,8.6094,8.6094,8.6094,8.6094,8.6094,8.6094,8.6094,8.6094,8.6094,8.6094,8.6094,8.6094,8.6094,8.6478,8.7094,8.7979,8.8825,8.9671,9.0517,9.0979,9.121,0.0,0.0,0.0,0.0,0.0,0.0,0.0,0.0,0.0,0.0,6.2381,6.2381,0.0,0.0,0.0,0.0,0.0,0.0,0.0,6.1975,6.1738,6.1738,6.2648,6.3089,6.3004,6.3209,6.3319,6.3319,6.2989,6.278,6.278,6.278,6.278,6.278,6.278,6.278,6.278,6.278,6.278,6.278,6.278,6.278,6.278,0.0,0.0,0.0,0.0,0.0,0.0,0.0,0.0,0.0,6.8368,6.8795,6.9327,6.9325,7.0871,7.2668,7.3028,7.4533,7.6015,7.6015,7.6015,7.6015,7.6015,7.6015,7.6015,7.6015,7.6015,7.6015,7.6015,7.7361,7.8477,7.8477,7.9939,8.1093,8.1093,8.1093,8.1093,8.1093,8.1093,8.1093,8.1093,8.1093,8.1093,8.1093,8.2324,8.3208,8.3555,8.4901,8.5786,8.6094,8.6094,8.6094,8.6094,8.6094,8.6094,8.6094,8.6094,8.6094,8.6094,8.6094,8.6094,8.6094,8.6094,8.6094,8.6094,8.6094,8.6594,8.7478,8.8363,8.9171,9.0017,9.0902,9.121,9.121,0.0,0.0,0.0,0.0,0.0,0.0,0.0,0.0,0.0,0.0,6.2381,6.2381,0.0,0.0,0.0,0.0,0.0,0.0,0.0,0.0,6.242,6.2503,6.3415,6.4398,6.5385,6.4604,6.4163,6.409,6.3246,6.278,6.278,6.278,6.278,6.278,6.278,6.278,6.278,6.278,6.278,6.278,6.278,6.278,6.278,6.278,0.0,0.0,0.0,0.0,0.0,0.0,0.0,0.0,6.9169,6.9373,6.9604,7.032,7.156,7.2851,7.3653,7.491,7.6015,7.6015,7.6015,7.6015,7.6015,7.6015,7.6015,7.6015,7.6015,7.6015,7.6015,7.7361,7.8477,7.8477,7.9939,8.1093,8.1093,8.1093,8.1093,8.1093,8.1093,8.1093,8.1093,8.1093,8.1093,8.1093,8.1862,8.267,8.3555,8.4439,8.5286,8.6055,8.6094,8.6094,8.6094,8.6094,8.6094,8.6094,8.6094,8.6094,8.6094,8.6094,8.6094,8.6094,8.6094,8.6094,8.6094,8.6209,8.6748,8.7594,8.8479,8.9286,9.0133,9.0902,9.121,9.121,0.0,0.0,0.0,0.0,0.0,0.0,0.0,0.0,0.0,0.0,0.0,0.0,0.0,0.0,0.0,0.0,0.0,0.0,0.0,0.0,6.2736,6.3388,6.4321,6.528,6.6229,6.5448,6.4714,6.409,6.3246,6.278,6.278,6.278,6.278,6.278,6.278,6.278,6.278,6.278,6.278,6.278,6.278,6.278,6.278,6.278,6.3209,0.0,0.0,0.0,0.0,0.0,0.0,0.0,6.9413,6.9903,7.0517,7.0289,7.1691,7.3345,7.3537,7.4764,7.6015,7.6015,7.6015,7.6015,7.6015,7.6015,7.6015,7.6015,7.6015,7.6015,7.6015,7.7361,7.8477,7.8477,7.9939,8.1093,8.1093,8.1093,8.1093,8.1093,8.1093,8.1093,8.1093,8.1093,8.1093,8.1093,8.1862,8.267,8.3555,8.4439,8.5286,8.6055,8.6094,8.6094,8.6094,8.6094,8.6094,8.6094,8.6094,8.6094,8.6094,8.6094,8.6094,8.6094,8.6094,8.6094,8.617,8.6824,8.7632,8.8479,8.9325,9.0171,9.0941,9.1133,9.121,9.121,0.0,0.0,0.0,0.0,0.0,0.0,0.0,0.0,0.0,0.0,0.0,0.0,0.0,0.0,0.0,0.0,0.0,0.0,0.0,0.0,6.4042,6.4935,6.5479,6.6141,6.7063,6.6292,6.5485,6.4677,6.3833,6.3209,6.278,6.278,6.278,6.278,6.278,6.278,6.278,6.278,6.278,6.278,6.278,6.278,6.278,6.278,6.3356,6.42,6.5007,0.0,0.0,0.0,0.0,0.0,0.0,0.0,7.0934,7.1091,7.224,7.3591,7.3976,7.5014,7.6015,7.6015,7.6015,7.6015,7.6015,7.6015,7.6015,7.6015,7.6015,7.6015,7.6015,7.7053,7.8054,7.8438,7.9592,8.0631,8.1054,8.1093,8.1093,8.1093,8.1093,8.1093,8.1093,8.1093,8.1093,8.1093,8.1477,8.2285,8.3516,8.4016,8.4824,8.6055,8.6094,8.6094,8.6094,8.6094,8.6094,8.6094,8.6094,8.6094,8.6094,8.6094,8.6094,8.6094,8.6094,8.6094,8.617,8.7055,8.7902,8.8786,8.9594,9.0441,9.121,9.121,9.121,9.121,0.0,0.0,0.0,0.0,0.0,0.0,0.0,0.0,0.0,0.0,0.0,0.0,0.0,0.0,0.0,0.0,0.0,0.0,0.0,0.0,0.0,6.6374,6.6523,6.6939,6.7687,6.7026,6.6329,6.5521,6.4714,6.387,6.3025,6.2879,6.278,6.278,6.278,6.278,6.278,6.278,6.278,6.278,6.278,6.278,6.2817,6.2989,6.3576,6.442,6.5228,6.6077,6.7096,6.8622,0.0,0.0,0.0,0.0,7.093,7.1731,7.2706,7.3668,7.4322,7.5245,7.6015,7.6015,7.6015,7.6015,7.6015,7.6015,7.6015,7.6015,7.6015,7.6015,7.6015,7.6707,7.7553,7.8361,7.9246,8.0092,8.0977,8.1093,8.1093,8.1093,8.1093,8.1093,8.1093,8.1093,8.1093,8.1093,8.1093,8.1823,8.3516,8.3593,8.4362,8.6055,8.6094,8.6094,8.6094,8.6094,8.6094,8.6094,8.6094,8.6094,8.6094,8.6094,8.6094,8.6094,8.6094,8.6094,8.617,8.7209,8.8055,8.8786,8.9748,9.0556,9.121,9.121,9.121,9.121,0.0,0.0,0.0,0.0,0.0,0.0,0.0,0.0,0.0,0.0,6.4631,6.4631,0.0,0.0,0.0,0.0,0.0,0.0,0.0,0.0,0.0,6.6404,6.7146,6.7569,6.7687,6.7577,6.7136,6.6329,6.5521,6.4714,6.3906,6.3172,6.278,6.278,6.278,6.278,6.278,6.278,6.278,6.278,6.278,6.278,6.2853,6.3649,6.442,6.5264,6.6035,6.7158,6.8267,6.8507,6.8913,0.0,0.0,0.0,7.0298,7.0878,7.2245,7.3514,7.363,7.4822,7.6015,7.6015,7.6015,7.6015,7.6015,7.6015,7.6015,7.6015,7.6015,7.6015,7.6015,7.6707,7.7553,7.8361,7.9246,8.0092,8.0977,8.1093,8.1093,8.1093,8.1093,8.1093,8.1093,8.1093,8.1093,8.1093,8.1093,8.1823,8.3516,8.3593,8.4362,8.6055,8.6094,8.6094,8.6094,8.6094,8.6094,8.6094,8.6094,8.6094,8.6094,8.6094,8.6094,8.6094,8.6094,8.6094,8.6247,8.7863,8.8594,8.8825,9.0402,9.1095,9.121,9.121,9.121,9.121,0.0,0.0,0.0,0.0,0.0,0.0,0.0,0.0,0.0,0.0,0.0,6.4999,0.0,0.0,0.0,6.4999,0.0,0.0,0.0,0.0,0.0,6.7146,6.7488,6.7687,6.7687,6.7687,6.7283,6.6512,6.6145,6.5338,6.409,6.3723,6.3282,6.278,6.278,6.278,6.278,6.278,6.3099,6.3539,6.3539,6.3796,6.4237,6.464,6.5264,6.6035,6.6366,6.7163,6.8097,6.8392,6.866,6.8935,6.9492,0.0,0.0,0.0,7.2264,7.3707,7.4668,7.5438,7.6015,7.6015,7.6015,7.6015,7.6015,7.6015,7.6015,7.6015,7.6015,7.6015,7.6015,7.6322,7.6976,7.8284,7.8823,7.9554,8.09,8.1093,8.1093,8.1093,8.1093,8.1093,8.1093,8.1093,8.1093,8.1093,8.1093,8.1823,8.3516,8.3593,8.4362,8.6055,8.6094,8.6094,8.6094,8.6094,8.6094,8.6094,8.6094,8.6094,8.6094,8.6094,8.6094,8.6094,8.6094,8.6363,8.694,8.8171,8.8979,8.9479,9.071,9.121,9.121,9.121,9.121,9.121,0.0,0.0,0.0,0.0,0.0,0.0,0.0,0.0,0.0,0.0,0.0,0.0,0.0,0.0,0.0,0.0,6.6338,0.0,0.0,0.0,0.0,6.7687,6.7687,6.7687,6.7687,6.7687,6.7393,6.6806,6.6586,6.5778,6.4383,6.42,6.3759,6.3135,6.2915,6.289,6.3135,6.3135,6.3613,6.4383,6.4383,6.4751,6.5338,6.5521,6.5999,6.6512,6.6733,6.7173,6.7757,6.8136,6.8308,6.8392,6.8913,6.9393,0.0,0.0,0.0,7.413,7.5592,7.6015,7.6015,7.6015,7.6015,7.6015,7.6015,7.6015,7.6015,7.6015,7.6015,7.6015,7.6015,7.6015,7.6553,7.8207,7.8477,7.9092,8.0862,8.1093,8.1093,8.1093,8.1093,8.1093,8.1093,8.1093,8.1093,8.1093,8.1093,8.1823,8.3516,8.3593,8.4362,8.6055,8.6094,8.6094,8.6094,8.6094,8.6094,8.6094,8.6094,8.6094,8.6094,8.6094,8.6094,8.6094,8.6094,8.6594,8.7478,8.8325,8.9171,8.9979,9.0864,9.121,9.121,9.121,9.121,9.121,0.0,0.0,0.0,0.0,0.0,0.0,0.0,0.0,0.0,0.0,0.0,0.0,6.7542,6.7542,6.7542,6.7542,6.7596,6.766,6.7687,6.7687,0.0,6.7687,6.7687,0.0,6.7687,6.7687,6.7677,6.7614,6.688,6.6072,6.5228,6.4457,6.4053,6.398,6.3172,6.3282,6.4016,6.4016,6.4494,6.5264,6.5264,6.5264,6.5375,6.6145,6.6476,6.6586,6.7357,6.765,6.7714,6.7741,6.7767,6.7836,6.8368,6.8544,6.8945,0.0,0.0,0.0,7.5745,7.6015,7.6015,7.6015,7.6015,7.6015,7.6015,7.6015,7.6015,7.6015,7.6015,7.6015,7.6015,7.6015,7.6553,7.8207,7.8477,7.9092,8.0862,8.1093,8.1093,8.1093,8.1093,8.1093,8.1093,8.1093,8.1093,8.1093,8.1093,8.1823,8.3516,8.3593,8.4362,8.6055,8.6094,8.6094,8.6094,8.6094,8.6094,8.6094,8.6094,8.6094,8.6094,8.6094,8.6094,8.6094,8.6094,8.6594,8.7478,8.8325,8.9171,8.9979,9.0864,9.121,9.121,9.121,9.121,9.121,0.0,0.0,0.0,0.0,0.0,0.0,0.0,0.0,0.0,0.0,0.0,0.0,0.0,6.7687,6.7687,6.7687,6.7687,6.7687,6.7687,6.7687,0.0,6.7687,6.7687,6.7687,6.7687,6.7687,6.7687,6.7687,6.7393,6.6843,6.6072,6.5778,6.5375,6.4824,6.4016,6.409,6.4861,6.4861,6.5338,6.6072,6.6072,6.6366,6.688,6.7136,6.7247,6.7283,6.7577,6.7687,6.7687,6.7687,6.7687,6.7741,6.793,6.821,6.899,7.1427,7.3789,7.5592,7.5938,7.6015,7.6015,7.6015,7.6015,7.6015,7.6015,7.6015,7.6015,7.6015,7.6015,7.6015,7.6015,7.6015,7.6361,7.7553,7.8169,7.89,8.0092,8.0746,8.1093,8.1093,8.1093,8.1093,8.1093,8.1093,8.1093,8.1093,8.1093,8.1823,8.3516,8.3593,8.4362,8.6055,8.6094,8.6094,8.6094,8.6094,8.6094,8.6094,8.6094,8.6094,8.6094,8.6094,8.6094,8.6132,8.6709,8.744,8.8248,8.8556,8.9479,9.0787,9.1095,9.121,9.121,9.121,9.121,9.121,0.0,0.0,0.0,0.0,0.0,0.0,0.0,0.0,0.0,6.7687,0.0,0.0,0.0,0.0,6.7687,6.7687,6.7687,6.7687,6.7687,6.7687,6.7687,6.7687,6.7687,6.7687,6.7687,6.7687,6.7687,6.7687,6.7687,6.7283,6.6512,6.6512,6.6219,6.5668,6.5154,6.5191,6.5705,6.5705,6.6182,6.688,6.688,6.721,6.7687,6.7687,6.7687,6.7687,6.7687,6.7687,6.7687,6.7687,6.7871,6.8091,6.8091,6.8849,7.014,7.2126,7.4129,7.5733,7.5947,7.6015,7.6015,7.6015,7.6015,7.6015,7.6015,7.6015,7.6015,7.6015,7.6015,7.6015,7.6015,7.6015,7.6284,7.7169,7.7977,7.8784,7.9669,8.0554,8.1093,8.1093,8.1093,8.1093,8.1093,8.1093,8.1093,8.1093,8.1093,8.1823,8.3516,8.3593,8.4362,8.6055,8.6094,8.6094,8.6094,8.6094,8.6094,8.6094,8.6094,8.6094,8.6094,8.6094,8.6094,8.617,8.7017,8.7902,8.8709,8.8979,8.994,9.121,9.121,9.121,9.121,9.121,9.121,9.121,0.0,0.0,0.0,0.0,0.0,0.0,0.0,0.0,6.7687,6.7687,0.0,0.0,0.0,0.0,0.0,6.7687,6.7687,6.7687,6.7687,6.7687,6.7687,6.7687,0.0,0.0,6.7687,6.7687,6.7687,6.7687,6.7687,6.7283,6.6549,6.6549,6.6549,6.6549,6.6549,6.6549,6.6549,6.6549,6.699,6.7687,6.7687,6.7687,6.7687,6.7687,6.7687,6.7687,6.7687,6.7687,6.7687,6.7724,6.8238,6.8898,6.8935,7.0439,7.2309,7.2837,7.3969,7.5236,0.0,0.0,0.0,7.6015,7.6015,7.6015,7.6015,7.6015,7.6015,7.6015,7.6015,7.6015,7.6015,7.6015,7.6284,7.713,7.7938,7.8784,7.9631,8.0516,8.1093,8.1093,8.1093,8.1093,8.1093,8.1093,8.1093,8.1093,8.1093,8.1823,8.3516,8.3632,8.4401,8.6055,8.6094,8.6094,8.6094,8.6094,8.6094,8.6094,8.6094,8.6094,8.6094,8.6094,8.6094,8.617,8.7055,8.7902,8.8748,8.9556,9.0402,9.121,9.121,9.121,9.121,9.121,9.121,9.121,0.0,0.0,0.0,0.0,0.0,0.0,6.7687,6.7687,6.7687,0.0,0.0,0.0,6.7687,6.7687,6.7687,6.7687,6.7687,6.7687,6.7687,6.7687,6.7687,6.7687,6.7687,6.7687,6.7687,6.7687,6.7687,6.7687,6.7687,6.7577,6.7357,6.7357,6.7357,6.7357,6.7357,6.7357,6.7357,6.7357,6.7504,6.7687,6.7687,6.7687,6.7687,6.7687,6.7687,6.7687,6.7687,6.7687,6.7797,6.8385,6.8715,6.9009,6.9596,7.0882,7.2211,7.2406,7.3683,7.5127,7.5289,0.0,0.0,0.0,0.0,0.0,7.6015,7.6015,7.6015,7.6015,7.6015,7.6015,7.6015,7.6015,7.6092,7.6322,7.7553,7.8592,7.8823,8.0131,8.1093,8.1093,8.1093,8.1093,8.1093,8.1093,8.1093,8.1093,8.1093,8.1823,8.3516,8.4747,8.5632,8.6094,8.6094,8.6094,8.6094,8.6094,8.6094,8.6094,8.6094,8.6094,8.6094,8.6094,8.6094,8.617,8.7671,8.8479,8.8748,8.9556,9.0402,9.121,9.121,9.121,9.121,9.121,9.121,9.121,0.0,0.0,0.0,0.0,0.0,6.7687,6.7687,6.7687,6.7687,0.0,0.0,0.0,6.7687,6.7687,6.7687,6.7687,6.7687,6.7687,6.7687,6.7687,6.7687,6.7687,6.7687,6.7687,6.7687,6.7687,6.7687,6.7687,6.7687,6.7687,6.7687,6.7687,6.7687,6.7687,6.7687,6.7687,6.7687,6.7687,6.7687,6.7687,6.7687,6.7687,6.7687,6.7687,6.7907,6.8201,6.8201,6.8421,6.8752,6.9229,6.9633,7.0036,7.0844,7.1664,7.2362,7.2608,7.3498,7.4468,7.4692,7.5183,7.5616,7.5616,0.0,0.0,7.6015,7.6015,7.6015,7.6015,7.6015,7.6015,7.6015,7.6015,7.6015,7.6015,7.74,7.8477,7.8477,8.0015,8.1093,8.1093,8.1093,8.1093,8.1093,8.1093,8.1093,8.1093,8.1093,8.1823,8.3516,8.5209,8.6094,8.6094,8.6094,8.6094,8.6094,8.6094,8.6094,8.6094,8.6094,8.6094,8.6094,8.6094,8.6094,8.6209,8.794,8.8709,8.8786,8.9979,9.0748,9.121,9.121,9.121,9.121,9.121,9.121,9.121,0.0,0.0,6.7687,6.7687,6.7687,6.7687,6.7687,6.7687,6.7687,0.0,6.7687,6.7687,6.7687,6.7687,6.7687,6.7687,6.7687,6.7687,6.7687,6.7687,6.7687,6.7687,6.7687,6.7687,6.7687,6.7687,6.7687,6.7687,6.7687,6.7687,6.7687,6.7687,6.7687,6.7687,6.7687,6.7687,6.7687,6.7687,6.7724,6.7834,6.7751,6.7724,6.7834,6.7834,6.8311,6.9045,6.9045,6.9486,7.011,7.0183,7.077,7.155,7.2275,7.2496,7.2602,7.3145,7.3341,7.3541,7.4049,0.0,0.0,7.5091,7.548,0.0,7.5962,7.6015,7.6015,7.6015,7.6015,7.6015,7.6015,7.6015,7.6015,7.6015,7.74,7.8477,7.8477,8.0015,8.1093,8.1093,8.1093,8.1093,8.1093,8.1093,8.1093,8.1093,8.1285,8.2016,8.3516,8.5209,8.6094,8.6094,8.6094,8.6094,8.6094,8.6094,8.6094,8.6094,8.6094,8.6094,8.6094,8.6094,8.617,8.6324,8.7979,8.8748,8.894,9.0556,9.121,9.121,9.121,9.121,9.121,9.121,9.121,9.121,0.0,0.0,6.7687,6.7687,6.7687,6.7687,6.7687,6.7687,6.7687,6.7687,6.7687,6.7687,6.7687,6.7687,6.7687,6.7687,6.7687,6.7687,6.7687,6.7687,6.7687,6.7687,6.7687,6.7687,6.7687,6.7687,6.7687,6.7687,6.7687,6.7687,6.7687,6.7687,6.7687,6.7687,6.7687,6.7687,6.7687,6.7687,6.8054,6.8605,6.7944,6.8091,6.8678,6.8678,6.9155,6.9853,6.9853,6.9963,7.0183,7.0844,7.1615,7.2312,7.2459,7.2496,7.2524,7.263,7.3024,7.3442,7.3529,7.4026,7.4568,7.4999,7.5201,0.0,7.5902,7.6015,7.6015,7.6015,7.6015,7.6015,7.6015,7.6015,7.6015,7.6015,7.74,7.8477,7.8477,8.0015,8.1093,8.1093,8.1093,8.1093,8.1093,8.1093,8.1093,8.1093,8.2362,8.3247,8.3555,8.5209,8.6094,8.6094,8.6094,8.6094,8.6094,8.6094,8.6094,8.6094,8.6094,8.6094,8.6094,8.6094,8.6478,8.7209,8.8248,8.9056,8.9748,9.0787,9.121,9.121,9.121,9.121,9.121,9.121,9.121,9.121,6.7687,6.7687,6.7687,6.7687,6.7687,6.7687,6.7687,6.7687,6.7687,6.7687,6.7687,6.7687,6.7687,6.7687,6.7687,6.7687,6.7687,0.0,0.0,6.7687,6.7687,6.7687,6.7687,6.7687,6.7687,6.7687,6.7687,6.7687,6.7687,6.7687,6.7687,6.7687,6.7907,6.8311,6.8311,6.8531,6.8898,6.8898,6.9119,6.9412,6.8605,6.8788,6.9486,6.9486,7.0,7.0697,7.0697,7.0954,7.1358,7.1762,7.2165,7.2496,7.2496,7.2496,7.2496,7.2496,7.2705,7.2943,7.2943,7.3391,7.3934,7.419,7.4692,0.0,0.0,7.5803,7.6015,7.6015,7.6015,7.6015,7.6015,7.6015,7.6015,7.6015,7.74,7.8477,7.8477,8.0015,8.1093,8.1093,8.1093,8.1093,8.1093,8.1093,8.1093,8.1093,8.2631,8.3593,8.3593,8.5209,8.6094,8.6094,8.6094,8.6094,8.6094,8.6094,8.6094,8.6094,8.6094,8.6094,8.6094,8.6094,8.6594,8.744,8.8325,8.9171,8.9979,9.0825,9.121,9.121,9.121,9.121,9.121,9.121,9.121,9.121,6.8164,6.8017,6.7907,6.7907,6.7797,6.7687,6.7687,0.0,6.7687,6.7687,6.7834,6.7871,6.7724,6.7687,6.7687,6.7687,6.7687,0.0,6.7687,6.7687,6.7687,6.7687,6.7687,6.7687,6.7687,6.7687,6.7687,6.7687,6.7834,6.7907,6.7907,6.8091,6.8495,6.9119,6.9119,6.9486,7.011,7.011,7.0183,7.0257,6.9633,6.9743,7.033,7.033,7.0844,7.1513,7.1513,7.1945,7.2496,7.2496,7.2496,7.2496,7.2496,7.2496,7.2496,7.2496,7.2496,7.2496,7.2496,7.2871,7.3238,7.3366,7.4101,7.4828,0.0,0.0,0.0,7.6,7.6015,7.6015,7.6015,7.6015,7.6015,7.6015,7.74,7.8477,7.8477,8.0015,8.1093,8.1093,8.1093,8.1093,8.1093,8.1093,8.1093,8.1093,8.2631,8.3593,8.3593,8.5209,8.6094,8.6094,8.6094,8.6094,8.6094,8.6094,8.6094,8.6094,8.6094,8.6094,8.6094,8.6094,8.6671,8.7671,8.8402,8.9248,9.021,9.0902,9.121,9.121,9.121,9.121,9.121,9.121,9.121,9.121,6.9816,6.9265,6.8752,6.8752,6.8164,6.7687,0.0,0.0,6.7687,6.7687,6.8311,6.8495,6.776,6.7687,6.7687,6.7687,6.7687,6.7687,6.7687,6.7687,6.7687,6.7687,6.7687,6.7687,6.7687,6.7687,6.7687,6.7687,6.8421,6.8752,6.8788,6.9486,6.9889,6.9963,6.9963,7.0,7.011,7.011,7.0513,7.1174,7.1036,7.1073,7.1174,7.1174,7.1651,7.2349,7.2349,7.2422,7.2496,7.2496,7.2496,7.2496,7.2496,7.2496,7.2496,7.2496,7.2496,7.2496,7.2496,7.2553,7.2705,7.3275,7.3516,7.385,7.4867,0.0,7.534,7.5902,0.0,7.6015,7.6015,0.0,0.0,7.6015,7.74,7.8477,7.8477,8.0015,8.1093,8.1093,8.1093,8.1093,8.1093,8.1093,8.1093,8.1093,8.2631,8.3593,8.3593,8.5209,8.6094,8.6094,8.6094,8.6094,8.6094,8.6094,8.6094,8.6094,8.6094,8.6094,8.6094,8.6094,8.7017,8.8556,8.8671,8.9594,9.1056,9.1171,9.121,9.121,9.121,9.121,9.121,9.121,9.121,9.121,7.0293,6.9816,6.9596,6.9596,6.9302,0.0,0.0,0.0,6.9082,6.9082,6.9376,6.9486,6.9119,6.9082,6.9082,6.9082,6.9082,6.9082,6.9082,6.9082,6.9082,6.9082,6.9436,6.9605,6.9605,6.9927,6.9951,6.9605,6.9939,6.9953,6.9596,7.0286,7.0865,7.1309,7.1309,7.1569,7.1987,7.1664,7.1688,7.2018,7.2018,7.2018,7.2018,7.2018,7.2202,7.2496,7.2496,7.2496,7.2496,7.2496,7.2496,7.2496,7.2496,7.2496,7.2496,7.2496,7.2496,7.2496,7.2496,7.2496,7.2582,7.2816,7.3145,7.3602,7.4426,7.4886,7.5271,7.5902,0.0,0.0,0.0,0.0,0.0,0.0,7.74,7.8477,7.8477,8.0015,8.1093,8.1093,8.1093,8.1093,8.1093,8.1093,8.1093,8.1093,8.2631,8.3593,8.3593,8.5209,8.6094,8.6094,8.6094,8.6094,8.6094,8.6094,8.6094,8.6094,8.6094,8.6094,8.6094,8.6094,8.7055,8.8709,8.8709,8.9633,9.121,9.121,9.121,9.121,9.121,9.121,9.121,9.121,9.121,9.121,7.0991,7.0587,7.044,7.044,7.0257,7.011,0.0,7.0293,7.033,7.011,7.0293,7.033,7.011,7.011,7.011,7.011,7.011,7.011,7.011,7.0229,7.0337,7.0337,7.0921,7.1219,7.1219,7.1595,7.1616,7.1219,7.1444,7.1317,7.0913,7.1602,7.2229,7.279,7.279,7.3127,7.3602,7.3172,7.2926,7.2733,7.2733,7.2658,7.2496,7.2496,7.2496,7.2496,7.2496,7.2496,7.2496,7.2496,7.2496,7.2496,7.2496,7.2496,7.2496,7.2496,7.2496,7.2496,7.2496,7.2496,7.2496,7.2496,7.2844,7.3341,7.4117,7.4609,7.5073,7.5833,7.6015,0.0,0.0,0.0,7.6092,7.6322,0.0,7.8592,7.8823,8.0131,8.1093,8.1093,8.1093,8.1093,8.1093,8.1093,8.1093,8.1093,8.2631,8.3593,8.3593,8.5209,8.6094,8.6094,8.6094,8.6094,8.6094,8.6094,8.6094,8.6094,8.6094,8.6094,8.6094,8.6363,8.7286,8.8709,8.894,8.9863,9.121,9.121,9.121,9.121,9.121,9.121,9.121,9.121,9.121,9.121,7.2422,7.1798,7.1284,7.1284,7.0624,7.011,7.011,7.077,7.0991,7.0183,7.077,7.0954,7.0183,7.011,7.011,7.011,7.011,7.011,7.011,7.0668,7.097,7.097,7.1463,7.1748,7.1748,7.1769,7.1769,7.1748,7.2557,7.2913,7.293,7.3781,7.4196,7.4234,7.4234,7.4234,7.4271,7.4249,7.3911,7.3366,7.3366,7.3024,7.2496,7.2496,7.2496,7.2496,7.2496,7.2496,7.2496,7.2496,7.2496,0.0,0.0,0.0,0.0,0.0,0.0,0.0,0.0,0.0,0.0,7.2496,7.2496,7.2844,0.0,0.0,7.4629,0.0,0.0,0.0,0.0,0.0,0.0,0.0,0.0,0.0,0.0,8.0516,8.1093,8.1093,8.1093,8.1093,8.1093,8.1093,8.1093,8.1093,8.2631,8.3593,8.3593,8.5209,8.6094,8.6094,8.6094,8.6094,8.6094,8.6094,8.6094,8.6094,8.6094,8.6094,8.6132,8.6978,8.7863,8.8748,8.9517,9.0364,9.121,9.121,9.121,9.121,9.121,9.121,9.121,9.121,9.121,9.121,7.3675,7.3488,7.3032,7.2225,7.1872,7.1821,7.2198,7.2208,7.2115,7.2262,7.218,7.1982,7.1725,7.1688,7.1688,7.1688,7.1688,7.1876,7.2251,7.2471,7.2793,7.3154,7.3697,7.3992,7.3992,7.4396,7.4396,7.3992,7.4239,7.4215,7.3862,7.4538,7.4847,7.4847,7.4847,7.4847,7.4828,7.4464,7.4183,7.3957,7.3553,7.305,7.2496,7.2496,7.2496,7.2496,7.2496,7.2496,0.0,7.2496,7.2496,7.2496,7.2496,7.2496,7.2496,7.2496,7.2496,7.2496,0.0,0.0,7.2496,7.2496,0.0,0.0,0.0,0.0,0.0,0.0,0.0,0.0,0.0,0.0,0.0,0.0,0.0,0.0,0.0,8.0554,8.1093,8.1093,8.1093,8.1093,8.1093,8.1093,8.1093,8.1093,8.2631,8.3593,8.3593,8.5209,8.6094,8.6094,8.6094,8.6094,8.6094,8.6094,8.6094,8.6094,8.6094,8.6094,8.6132,8.7017,8.7863,8.8748,8.9556,9.0402,9.121,9.121,9.121,9.121,9.121,9.121,9.121,9.121,9.121,9.121,7.4293,7.4293,7.4049,7.3275,7.3119,7.3275,7.3651,7.3391,7.3301,7.3651,7.3366,7.3119,7.3119,7.3119,7.3119,7.3119,7.3119,7.3327,7.3675,7.3897,7.419,7.4588,7.5129,7.543,7.543,7.5803,7.5818,7.543,7.543,7.5236,7.4924,7.5236,7.543,7.543,7.543,7.543,7.5396,7.5055,7.4769,7.4527,7.3723,7.3172,7.2789,7.261,7.2496,7.2496,0.0,7.2496,7.2496,7.2496,7.2496,7.2496,7.2496,7.2496,7.2496,7.2496,7.2496,7.2496,7.2496,7.2496,0.0,7.2496,7.2496,0.0,7.3238,0.0,7.4099,0.0,0.0,0.0,0.0,0.0,0.0,0.0,0.0,0.0,0.0,8.0746,8.1093,8.1093,8.1093,8.1093,8.1093,8.1093,8.1208,8.1516,8.2824,8.3747,8.4055,8.5363,8.6094,8.6094,8.6094,8.6094,8.6094,8.6094,8.6094,8.6094,8.6094,8.6247,8.6594,8.744,8.8325,8.9171,9.0017,9.0671,9.121,9.121,9.121,9.121,9.121,9.121,9.121,9.121,9.121,9.121,7.4379,7.4379,7.4379,7.4379,7.4336,7.4315,7.4336,7.4315,7.4315,7.4336,7.4315,7.4293,7.4293,7.4293,7.4293,7.4293,7.4293,7.4315,7.4336,7.4828,7.5109,7.5127,7.5702,7.6015,7.6015,7.6015,7.6015,7.6015,7.6015,7.6015,7.6015,7.6015,7.6015,7.6015,7.6015,7.6015,7.6015,7.6015,7.567,7.5017,7.392,7.3492,7.3391,7.2816,7.2582,7.2553,7.2496,7.2496,7.2496,7.2496,7.2496,7.2496,7.2496,7.2496,7.2496,7.2496,7.2496,7.2496,7.2569,7.2569,7.2569,7.2606,7.2606,0.0,0.0,0.0,7.4785,0.0,0.0,0.0,0.0,0.0,0.0,0.0,0.0,0.0,0.0,8.1093,8.1093,8.1093,8.1093,8.1093,8.1093,8.1093,8.1439,8.2247,8.3093,8.3978,8.4863,8.567,8.6094,8.6094,8.6094,8.6094,8.6094,8.6094,8.6094,8.6094,8.6094,8.6555,8.744,8.8286,8.9133,8.994,9.0825,9.121,9.121,9.121,9.121,9.121,9.121,9.121,9.121,9.121,9.121,9.121,7.5551,7.5551,7.5551,7.5551,7.4885,7.4443,7.4847,7.4568,7.4443,7.4866,7.4568,7.4293,7.4293,7.4293,7.4293,7.4293,7.4293,7.4485,7.4886,7.5036,7.5289,7.5733,7.5917,7.6015,7.6015,7.6015,7.6015,7.6015,7.6015,7.6015,7.6015,7.6015,7.6015,7.6015,7.6015,7.6015,7.6015,7.6015,7.567,7.5073,7.479,7.4426,7.4049,7.3888,7.3566,7.3093,7.2658,7.2496,7.2496,7.2496,7.2496,7.2496,7.2496,7.2496,7.2496,7.2496,7.2496,7.2642,7.323,7.3377,7.3523,7.4147,7.4294,7.4324,0.0,0.0,0.0,0.0,0.0,0.0,0.0,0.0,0.0,0.0,0.0,0.0,0.0,8.1093,8.1093,8.1093,8.1093,8.1093,8.1093,8.1093,8.1439,8.2247,8.3093,8.3978,8.4863,8.567,8.6094,8.6094,8.6094,8.6094,8.6094,8.6094,8.6094,8.6094,8.6094,8.6555,8.744,8.8286,8.9133,8.994,9.0825,9.121,9.121,9.121,9.121,9.121,9.121,9.121,9.121,9.121,9.121,9.121,7.6015,7.6015,7.6015,7.6015,7.5468,7.5129,7.5446,7.5257,7.5147,7.5446,7.5257,7.5037,7.5037,7.5037,7.5037,7.5037,7.5037,7.5165,7.5463,7.548,7.567,7.6,7.6015,7.6015,7.6015,7.6015,7.6015,7.6015,7.6015,7.6015,7.6015,7.6015,7.6015,7.6015,7.6015,7.6015,7.6015,7.6015,7.5803,7.5463,7.5219,7.4924,0.0,7.4401,7.3934,7.3366,7.3024,7.2705,7.2496,7.2496,7.2496,7.2569,7.2899,7.301,7.3083,7.345,7.356,7.367,7.4111,7.4221,7.4331,7.4808,7.4918,7.4918,7.4918,7.5175,7.5514,0.0,7.6217,7.6837,0.0,0.0,0.0,0.0,0.0,0.0,0.0,8.1093,8.1093,8.1093,8.1093,8.1093,8.1093,8.14,8.1977,8.2824,8.367,8.4555,8.5401,8.5863,8.6094,8.6094,8.6094,8.6094,8.6094,8.6094,8.6094,8.6094,8.6094,8.6748,8.7979,8.8479,8.9363,9.0517,9.0979,9.121,9.121,9.121,9.121,9.121,9.121,9.121,9.121,9.121,9.121,9.121,7.6015,7.6015,7.6015,7.6015,7.6015,7.6015,7.6015,7.6015,7.6015,7.6015,7.6015,7.6015,7.6015,7.6015,7.6015,7.6015,7.6015,7.6015,7.6015,7.6015,7.6015,7.6015,7.6015,7.6015,7.6015,7.6015,7.6015,7.6015,7.6015,7.6015,7.6015,7.6015,7.6015,7.6015,7.6015,7.6015,7.6015,7.6015,7.6015,7.5947,7.543,7.5236,7.5183,7.4824,7.4312,7.3813,7.3827,7.3326,7.2679,7.2679,7.2716,7.2936,7.3634,7.3854,7.4001,7.4698,7.4918,7.4918,7.5028,7.5065,7.5102,7.5212,7.5212,7.5212,7.5212,7.5763,7.6276,7.6276,7.6827,7.7304,0.0,0.0,0.0,0.0,0.0,0.0,0.0,8.1061,8.1093,8.1093,8.1093,0.0,8.1246,8.19,8.267,8.3516,8.4401,8.5247,8.6055,8.6094,8.6094,8.6094,8.6094,8.6094,8.6094,8.6094,8.6094,8.6094,8.6209,8.7132,8.8709,8.8786,8.971,9.121,9.121,9.121,9.121,9.121,9.121,9.121,9.121,9.121,9.121,9.121,9.121,9.121,7.6015,7.6015,7.6015,7.6015,7.6015,7.6015,7.6015,7.6015,7.6015,7.6015,7.6015,7.6015,7.6015,7.6015,7.6015,7.6015,7.6015,7.6015,7.6015,7.6015,7.6015,7.6015,7.6015,7.6015,7.6015,7.6015,7.6015,7.6015,7.6015,7.6015,7.6015,7.6015,7.6015,7.6015,7.6015,7.6015,7.6015,7.6015,7.6015,7.5976,7.5864,7.5833,7.591,7.6523,7.6415,7.589,7.6051,7.5007,7.3487,7.3487,7.3927,7.4515,7.4661,7.4698,7.4735,7.4882,7.4918,7.5065,7.5726,7.5909,7.6056,7.6686,7.687,7.687,7.687,7.698,7.709,7.709,7.72,7.745,7.8044,0.0,0.0,0.0,0.0,0.0,0.0,0.0,8.1093,8.1093,8.1093,8.1362,8.2016,8.2208,8.267,8.3516,8.4401,8.5247,8.6055,8.6094,8.6094,8.6094,8.6094,8.6094,0.0,8.6094,8.6094,8.6094,8.6824,8.7709,8.8709,8.9402,9.0248,9.121,9.121,9.121,9.121,9.121,9.121,9.121,9.121,9.121,9.121,9.121,9.121,9.121,7.6015,7.6015,7.6015,7.6015,7.6015,7.6015,7.6015,7.6015,7.6015,7.6015,7.6015,7.6015,7.6015,7.6015,7.6015,7.6015,7.6015,7.6015,7.6015,7.6015,7.6015,7.6015,7.6015,7.6015,7.6015,7.6015,7.6015,7.6015,7.6015,7.6015,7.6015,7.6015,7.6015,7.6015,7.6015,7.6015,7.6015,7.6015,7.6015,7.6053,7.6476,7.6669,7.6784,7.7592,7.7571,7.7017,7.6793,7.6194,7.5347,7.4588,7.4588,7.4992,7.5395,7.5542,7.5616,7.5989,7.6136,7.624,7.6644,7.6717,7.6827,7.72,7.7273,7.7273,7.7273,7.7273,7.7273,7.7273,7.7273,7.751,7.8173,7.8536,0.0,0.0,0.0,0.0,0.0,0.0,8.1708,8.1708,8.2131,8.2554,8.2939,8.3362,8.3824,8.4247,8.5055,8.5709,8.6094,8.6094,8.6094,8.6094,8.6094,0.0,8.6094,0.0,8.6094,8.6094,8.6978,8.7863,8.8709,8.9517,9.0402,9.121,9.121,9.121,9.121,9.121,9.121,9.121,9.121,9.121,9.121,9.121,9.121,9.121,7.6015,7.6015,7.6015,7.6015,7.6015,7.6015,7.6015,7.6015,7.6015,7.6015,7.6015,7.6015,7.6015,7.6015,7.6015,7.6015,7.6015,7.6015,7.6015,7.6015,7.6015,7.6015,7.6015,7.6015,7.6015,7.6015,7.6015,7.6015,7.6015,7.6015,7.6015,7.6015,7.6015,7.6015,7.6015,7.6092,7.6284,7.6284,7.6361,7.6592,7.7284,7.7553,7.763,7.8438,7.8503,7.8082,7.7463,7.7457,7.7529,7.6124,7.5514,7.5542,7.6166,7.635,7.6497,7.709,7.7273,7.7273,7.7273,7.7273,7.7273,7.7273,7.7273,7.7273,7.7273,7.7273,7.7273,7.7273,7.7273,7.7524,7.8211,7.836,0.0,0.0,0.0,0.0,0.0,0.0,8.2593,8.2593,8.317,8.367,8.3862,8.4516,8.4978,8.5132,8.5747,8.6094,8.6094,8.6094,8.6094,8.6094,8.6094,8.6094,8.6094,0.0,8.6209,8.6401,8.7248,8.8132,8.8979,8.9787,9.0556,9.121,9.121,9.121,9.121,9.121,9.121,9.121,9.121,9.121,9.121,9.121,9.121,9.121,7.6015,7.6015,7.6015,7.6015,7.6015,7.6015,7.6015,7.6015,7.6015,7.6015,7.6015,7.6015,7.6015,7.6015,7.6015,7.6015,7.6015,7.6015,7.6015,7.6015,7.6015,7.6015,7.6015,7.6015,7.6015,7.6015,7.6015,7.6015,0.0,7.6015,7.6015,7.6015,7.6015,7.6015,7.6015,0.0,0.0,7.7169,7.7592,7.8246,7.8361,7.84,7.8477,7.9361,7.9638,7.9533,7.9107,7.9324,7.9633,7.8389,7.7604,7.709,7.7163,7.7163,7.72,7.7273,7.7273,7.7273,7.7273,7.7273,7.7273,7.7273,7.7273,7.7273,7.7273,7.7273,7.7273,7.7273,7.7273,7.7561,7.8388,7.8566,7.9054,0.0,0.0,0.0,0.0,0.0,8.3478,8.3478,0.0,0.0,8.4709,8.4863,8.5209,8.594,8.6055,8.6094,8.6094,8.6094,8.6094,8.6094,8.6094,8.6094,8.6094,8.6094,8.6517,8.7286,8.8171,8.8979,8.9825,9.0671,9.1133,9.121,9.121,9.121,9.121,9.121,9.121,9.121,9.121,9.121,9.121,9.121,9.121,9.121,7.6015,7.6015,7.6015,7.6015,7.6015,7.6015,7.6015,7.6015,7.6015,7.6015,7.6015,7.6015,7.6015,7.6015,7.6015,7.6015,7.6015,7.6015,7.6015,7.6015,7.6015,7.6015,7.6015,7.6015,7.6015,7.6015,7.6015,7.6015,0.0,7.6015,7.6015,7.6015,7.6284,0.0,0.0,7.7246,7.8015,7.8015,7.8207,7.8554,7.9054,7.9285,7.9361,8.0246,8.0592,8.0514,7.9952,7.9908,7.9969,7.9128,7.8432,7.7903,7.7903,7.7592,7.7273,7.7273,7.7273,7.7273,7.7273,7.7273,7.742,7.7965,7.8075,7.8222,7.8699,7.8809,7.8809,7.8809,7.8809,7.8919,7.925,7.9323,7.964,8.059,0.0,0.0,0.0,0.0,0.0,8.433,0.0,8.5247,8.5593,8.5632,8.5747,8.6094,8.6094,8.6094,8.6094,8.6094,8.6094,8.6094,0.0,8.6094,8.6094,8.6632,8.7055,8.7401,8.8786,8.9594,8.994,9.0787,9.121,9.121,9.121,9.121,9.121,9.121,9.121,9.121,9.121,9.121,9.121,9.121,9.121,9.121,7.6015,7.6015,7.6015,7.6015,7.6015,7.6015,7.6015,7.6015,7.6015,7.6015,7.6015,7.6015,7.6015,7.6015,7.6015,7.6015,7.6015,7.6015,7.6015,7.6015,7.6015,7.6015,7.6015,7.6015,7.6015,7.6015,7.6015,7.6015,7.6015,0.0,0.0,0.0,0.0,0.0,7.763,7.8092,7.8861,7.8861,7.9015,7.9323,7.9939,8.0169,8.0246,8.0862,8.1093,8.0991,8.0333,8.022,8.0296,7.9663,7.9208,7.8835,7.8437,7.7817,7.7347,7.7635,7.7708,7.7745,7.7965,7.8038,7.8185,7.8809,7.8956,7.9103,7.9653,7.98,7.98,7.98,7.98,7.9874,8.0094,8.0131,8.045,8.1297,0.0,0.0,0.0,8.404,0.0,8.5214,8.5747,8.6094,8.6094,8.6094,8.6094,8.6094,8.6094,8.6094,8.6094,8.6094,0.0,0.0,0.0,0.0,8.6478,8.7094,8.7632,8.8132,8.9325,9.0056,9.0325,9.0941,9.121,9.121,9.121,9.121,9.121,9.121,9.121,9.121,9.121,9.121,9.121,9.121,9.121,9.121,7.6015,7.6015,7.6015,7.6015,7.6015,7.6015,7.6015,7.6015,7.6015,7.6015,7.6015,7.6015,7.6015,7.6015,7.6015,7.6015,7.6015,7.6015,7.6015,7.6015,7.6015,7.6015,7.6015,7.6015,7.6015,7.6015,7.6015,7.6015,0.0,0.0,7.6015,0.0,7.7707,7.8477,7.8477,7.8977,7.9785,7.9785,8.0285,8.1054,8.1093,8.1093,8.1093,8.1093,8.1093,8.0991,8.0333,8.0517,8.0975,8.0315,8.0233,8.015,7.8746,7.7817,7.7457,7.8332,7.8589,7.8772,7.9543,7.9764,7.9764,7.9764,7.9764,7.9764,7.98,7.98,7.98,7.98,7.98,8.0021,8.0828,8.1012,8.1481,8.2925,0.0,0.0,0.0,8.5644,0.0,8.6094,8.6094,8.6094,8.6094,8.6094,8.6094,8.6094,8.6094,8.6094,8.6094,8.6094,0.0,8.6094,8.6094,0.0,8.7363,8.7401,8.8248,8.9863,8.9902,9.0364,9.1171,9.121,9.121,9.121,9.121,9.121,9.121,9.121,9.121,9.121,9.121,9.121,9.121,9.121,9.121,9.121,7.6015,7.6015,7.6015,7.6015,7.6015,7.6015,7.6015,7.6015,7.6015,7.6015,7.6015,7.6015,7.6015,7.6015,7.6015,7.6015,7.6015,7.6015,7.6015,7.6015,7.6015,7.6015,7.6015,7.6015,7.6015,7.6015,7.6284,7.6899,0.0,0.0,0.0,7.7977,7.8554,7.94,7.94,7.9862,8.0708,8.0708,8.0862,8.1093,8.1093,8.1093,8.1093,8.1093,8.1093,8.1077,8.0855,8.1288,8.1885,8.1661,8.1766,8.1794,8.0914,7.9875,7.9066,7.9323,7.9396,7.947,7.9727,7.98,7.991,8.0461,8.0608,8.0755,8.1305,8.1415,8.1415,8.1415,8.1415,8.1489,8.1782,8.1819,8.199,8.2429,8.2708,0.0,8.4349,0.0,8.5138,8.6009,8.6094,8.6094,8.6094,8.6094,8.6094,8.6094,8.6094,8.6094,8.6094,0.0,0.0,0.0,8.6094,0.0,8.7401,8.7979,8.8825,8.9902,9.0517,9.0941,9.121,9.121,9.121,9.121,9.121,9.121,9.121,9.121,9.121,9.121,9.121,9.121,9.121,9.121,9.121,9.121,7.6015,7.6015,7.6015,7.6015,7.6015,7.6015,7.6015,7.6015,7.6015,7.6015,7.6015,7.6015,7.6015,7.6015,7.6015,7.6015,7.6015,7.6015,7.6015,7.6015,7.6015,7.6015,7.6322,7.6476,7.6476,7.6784,0.0,7.7746,7.7746,7.8169,7.8977,7.8977,7.9438,8.0285,8.0285,8.0592,8.1093,8.1093,8.1093,8.1093,8.1093,8.1093,8.1093,8.1093,8.1093,8.1131,8.1439,8.1862,8.2362,8.267,8.296,8.3018,8.2368,8.1639,8.0973,8.0409,8.0241,8.0314,8.0608,8.0681,8.0828,8.1342,8.1452,8.1659,8.2418,8.2554,8.2554,8.2554,8.2375,8.2186,8.2186,8.2186,8.2186,8.2186,8.2439,8.2965,8.4029,0.0,8.4931,0.0,0.0,8.6094,8.6094,8.6094,8.6094,8.6094,8.6094,8.6094,8.6094,0.0,8.6094,8.6094,8.644,8.7017,8.7863,8.8709,8.9556,9.0402,9.0941,9.121,9.121,9.121,9.121,9.121,9.121,9.121,9.121,9.121,9.121,9.121,9.121,9.121,9.121,9.121,9.121,9.121,7.6015,7.6015,7.6015,7.6015,7.6015,7.6015,7.6015,7.6015,7.6015,7.6015,7.6015,7.6015,7.6015,7.6015,7.6015,7.6092,7.6015,7.6015,7.6015,7.6053,7.6092,7.6092,7.6899,7.7361,7.7361,7.813,7.8515,7.8592,7.8631,7.9092,7.99,7.99,8.0323,8.1093,8.1093,8.1093,8.1093,8.1093,8.1093,8.1093,8.1093,8.1093,8.1093,8.117,8.117,8.1285,8.2093,8.2439,8.2593,8.3401,8.386,8.3936,8.327,8.316,8.304,8.1518,8.1117,8.1328,8.2063,8.2279,8.2343,8.2343,8.2343,8.2497,8.3103,8.3275,8.3275,8.3275,8.2763,8.2343,8.2343,8.2343,8.2343,8.2343,8.2883,8.3515,8.4179,8.474,8.536,8.6043,0.0,0.0,8.6094,8.6094,8.6094,0.0,8.6094,8.6132,0.0,0.0,8.6209,8.6209,8.7055,8.7902,8.8748,8.9517,9.0364,9.121,9.121,9.121,9.121,9.121,9.121,9.121,9.121,9.121,9.121,9.121,9.121,9.121,9.121,9.121,9.121,9.121,9.121,9.121,7.6015,7.6015,7.6015,7.6015,7.6015,7.6015,7.6015,7.6015,7.6015,7.6015,7.6015,7.6015,7.6015,7.6015,7.6284,7.6938,7.6361,7.6015,7.6015,7.663,7.6976,7.6976,7.7784,7.8207,7.8207,7.84,7.8823,7.9477,8.0169,8.0592,8.0785,8.0785,8.09,8.1093,8.1093,8.1093,8.1093,8.1093,8.1093,8.1093,8.1093,8.1093,8.117,8.1785,8.2016,8.2131,8.2978,8.3708,8.4324,8.4516,8.5027,8.5468,8.4795,8.4594,8.4297,8.2449,8.2295,8.2742,8.2928,8.3359,8.3757,8.3757,8.3731,8.3784,8.3928,8.3953,8.3953,8.3953,8.3824,8.3757,8.3757,8.3757,8.3757,8.3757,8.385,8.4179,8.4806,8.4999,8.536,0.0,8.6094,8.6094,8.6094,8.6094,8.6094,0.0,0.0,8.6401,8.7055,8.7094,8.7094,8.7094,8.794,8.8786,8.9633,8.9825,9.0364,9.121,9.121,9.121,9.121,9.121,9.121,9.121,9.121,9.121,9.121,9.121,9.121,9.121,9.121,9.121,9.121,9.121,9.121,9.121,7.6015,7.6015,7.6015,7.6015,7.6015,7.6015,7.6015,7.6015,7.6015,7.6015,7.6015,7.613,7.6553,7.6592,7.6938,7.7784,7.7092,7.6746,7.713,7.7592,7.7861,7.7861,7.8631,7.9092,7.9092,7.9477,7.99,8.04,8.0862,8.1093,8.1093,8.1093,8.1093,8.1093,8.1093,8.1093,8.1093,8.1093,8.1093,8.1093,8.1093,8.1323,8.1708,8.2131,8.2554,8.3016,8.3862,8.4516,8.4978,8.5324,8.5747,8.5971,8.532,8.5121,8.485,8.3478,8.3387,8.3651,8.3677,8.3902,8.4203,8.4203,8.4396,8.4605,8.4605,8.4628,8.4628,8.4628,8.4396,8.4203,8.4203,8.4203,8.4203,8.4203,8.4203,8.442,8.5037,8.5121,8.536,8.6043,8.6094,8.6094,8.6094,8.6094,8.6286,8.6671,8.6709,0.0,8.794,8.8325,8.8363,8.8017,8.8825,8.9479,8.9902,9.0325,9.0748,9.121,9.121,9.121,9.121,9.121,9.121,9.121,9.121,9.121,9.121,9.121,9.121,9.121,9.121,9.121,9.121,9.121,9.121,9.121,7.6015,7.6015,7.6015,7.6015,7.6015,7.6015,7.6015,7.6015,7.6053,7.6169,7.6207,7.6515,7.74,7.7476,7.7823,7.8631,7.8054,7.79,7.8453,7.8631,7.8707,7.8707,7.9515,8.0015,8.0015,8.0708,8.1093,8.1093,8.1093,8.1093,8.1093,8.1093,8.1093,8.1093,8.1093,8.1093,8.1093,8.1093,8.117,8.1285,8.1285,8.1785,8.2516,8.2631,8.3131,8.3901,8.4786,8.5093,8.5209,8.5863,8.6094,8.5988,8.5418,8.5242,8.5141,8.4628,8.4467,8.4443,8.4349,8.442,8.449,8.449,8.485,8.5242,8.5242,8.5242,8.5242,8.5242,8.4828,8.449,8.449,8.449,8.449,8.449,8.449,8.4651,8.5182,0.0,8.5437,8.6043,8.6209,8.6286,8.6286,8.644,8.6786,8.7555,8.7594,8.7979,8.8825,8.9517,8.9671,8.9094,8.9748,9.0094,9.0094,9.0825,9.121,9.121,9.121,9.121,9.121,9.121,9.121,9.121,9.121,9.121,9.121,9.121,9.121,9.121,9.121,9.121,9.121,9.121,9.121,9.121,7.6015,7.6015,7.6015,7.6015,7.6015,7.6015,7.6015,7.6015,7.6245,7.6976,7.7092,7.74,7.8207,7.8284,7.8669,7.9515,7.9477,7.9169,7.8515,7.9208,7.9592,7.9592,8.0439,8.09,8.09,8.1016,8.1093,8.1093,8.1093,8.1093,8.1093,8.1093,8.1093,8.1093,8.1093,8.1093,8.1093,8.1093,8.1477,8.2093,8.2093,8.2631,8.3478,8.4209,8.4593,8.4786,8.5632,8.5901,8.594,8.6055,8.6094,8.6077,8.5971,8.5954,8.5937,8.5828,8.5811,8.5682,8.5121,8.536,8.5811,8.5811,8.5902,8.5954,8.5954,8.5954,8.5954,8.5954,8.5846,8.5811,8.5811,8.5811,8.5811,8.5811,8.5811,8.5828,8.5937,0.0,8.5971,8.6077,8.6748,8.7209,8.7209,8.7863,8.8363,8.8479,8.8479,8.8863,8.9671,8.9825,9.0171,9.0787,9.0941,9.1018,9.1018,9.1133,9.121,9.121,9.121,9.121,9.121,9.121,9.121,9.121,9.121,9.121,9.121,9.121,9.121,9.121,9.121,9.121,9.121,9.121,9.121,9.121,7.6015,7.6015,7.6015,7.6015,7.6015,7.6169,7.663,7.6707,7.7015,7.7823,7.7938,7.8246,7.9092,7.9208,7.9554,8.0439,8.0516,8.0323,7.9939,8.0285,8.0516,8.0516,8.09,8.1093,8.1093,8.1093,8.1093,8.1093,8.1093,8.1093,8.1093,8.1093,8.1093,8.1093,8.1093,8.1323,8.1747,8.1747,8.2247,8.2978,8.2978,8.3516,8.4324,8.4747,8.517,8.5593,8.5978,8.6094,8.6094,8.6094,8.6094,8.6094,8.6094,8.6094,8.6094,8.6094,8.6094,8.6043,8.5719,8.5846,8.6094,8.6094,8.6094,8.6094,8.6094,8.6478,8.6786,8.6786,8.7171,8.7517,8.7517,8.7517,8.7517,8.7517,8.7517,0.0,8.7517,8.7517,8.7517,8.7517,8.7863,8.8094,8.8094,8.844,8.8863,8.9325,8.9363,8.971,9.0556,9.0594,9.0787,9.121,9.121,9.121,9.121,9.121,9.121,9.121,9.121,9.121,9.121,9.121,9.121,9.121,9.121,9.121,9.121,9.121,9.121,9.121,9.121,9.121,9.121,9.121,9.121,9.121,7.6015,7.6015,7.6015,7.6015,7.6169,7.6515,7.7207,7.7438,7.7861,7.8669,7.8784,7.9131,8.0015,8.0092,8.0362,8.1054,8.1093,8.1093,8.1093,8.1093,8.1093,8.1093,8.1093,8.1093,8.1093,8.1093,8.1093,8.1093,8.1093,8.1093,8.1093,8.1093,8.1208,8.1362,8.1362,8.1823,8.2593,8.2593,8.3093,8.3901,8.3901,8.4401,8.517,8.517,8.5555,8.6094,8.6094,8.6094,8.6094,8.6094,8.6094,8.6094,8.6094,8.6094,8.6094,8.6094,8.6094,8.6094,8.6094,8.6094,8.617,8.6363,8.6401,8.6478,8.6671,8.7209,8.7709,8.7709,8.8209,8.8709,8.8709,8.8709,8.8709,8.8709,0.0,8.8709,8.8709,8.8709,8.8709,8.8709,8.8863,8.8979,8.8979,8.9171,8.9556,9.0171,9.021,9.0479,9.1171,9.121,9.121,9.121,9.121,9.121,9.121,9.121,9.121,9.121,9.121,9.121,9.121,9.121,9.121,9.121,9.121,9.121,9.121,9.121,9.121,9.121,9.121,9.121,9.121,9.121,9.121,9.121,7.6015,7.6015,7.6015,7.6015,7.6669,7.7207,7.7284,7.7938,7.8707,7.9592,7.9708,8.0054,8.09,8.1016,8.1016,8.1093,8.1093,8.1093,8.1093,8.1093,8.1093,8.1093,8.1093,8.1093,8.1093,8.1093,8.1093,8.1093,8.1093,8.1093,8.1093,8.1093,8.1516,8.2208,8.2208,8.267,8.3478,8.3478,8.4016,8.4786,8.4786,8.5286,8.6017,8.6017,8.6055,8.6094,8.6094,8.6094,8.6094,8.6094,8.6094,8.6094,8.6094,8.6094,8.6094,8.6094,8.6094,8.6094,8.6094,8.6094,8.6286,8.7094,8.7286,8.7517,8.8325,8.8556,8.8594,8.8594,8.8671,8.8709,8.8709,8.8709,8.8709,8.8709,0.0,0.0,8.8709,8.8709,8.8709,8.8709,8.9363,8.9825,8.9825,9.0556,9.1056,9.1095,9.1095,9.1133,9.121,9.121,9.121,9.121,9.121,9.121,9.121,9.121,9.121,9.121,9.121,9.121,9.121,9.121,9.121,9.121,9.121,9.121,9.121,9.121,9.121,9.121,9.121,9.121,9.121,9.121,9.121,9.121,7.6015,7.6438,7.6823,7.6823,7.7476,7.8207,7.8784,7.9092,7.9631,8.0477,8.0592,8.0746,8.1054,8.1093,8.1093,8.1093,8.1093,8.1093,8.1093,8.1093,8.1093,8.1093,8.1093,8.1093,8.1093,8.1093,8.1093,8.1093,8.1093,8.1093,8.1093,8.1593,8.2016,8.2324,8.2862,8.3593,8.4401,8.4401,8.4901,8.5632,8.5632,8.5824,8.6094,8.6094,8.6094,8.6094,8.6094,8.6094,8.6094,8.6094,8.6094,8.6094,8.6094,8.6094,8.6209,8.6748,8.6901,8.7017,8.7555,8.7325,8.7132,8.7979,8.8209,8.8286,8.8632,8.9094,8.944,8.944,8.9863,9.0248,9.0248,9.0248,9.0248,9.0248,0.0,9.0248,9.0248,9.0248,9.0248,9.0248,9.0517,9.071,9.071,9.1018,9.121,9.121,9.121,9.121,9.121,9.121,9.121,9.121,9.121,9.121,9.121,9.121,9.121,9.121,9.121,9.121,9.121,9.121,9.121,9.121,9.121,9.121,9.121,9.121,9.121,9.121,9.121,9.121,9.121,9.121,9.121,9.121,7.6361,7.6899,7.7361,7.763,7.8361,7.9092,7.9708,8.0054,8.0439,8.1016,8.1093,8.1093,8.1093,8.1093,8.1093,8.1093,8.1093,8.1093,8.1093,8.1093,8.1093,8.1093,8.1093,8.1093,8.1093,8.1093,8.1093,8.1093,8.1362,8.1477,8.1477,8.2324,8.2862,8.3131,8.3747,8.4478,8.5286,8.5286,8.5593,8.6094,8.6094,8.6094,8.6094,8.6094,8.6094,8.6094,8.6094,8.6094,8.6094,8.6094,8.6094,8.6094,8.6094,8.6286,8.6632,8.7209,8.7594,8.7979,8.8863,8.8632,8.8325,8.894,8.9094,8.9133,8.9402,8.9902,9.0325,9.0325,9.0787,9.121,9.121,9.121,9.121,9.121,9.121,9.121,9.121,9.121,9.121,9.121,9.121,9.121,9.121,9.121,9.121,9.121,9.121,9.121,9.121,9.121,9.121,9.121,9.121,9.121,9.121,9.121,9.121,9.121,9.121,9.121,9.121,9.121,9.121,9.121,9.121,9.121,9.121,9.121,9.121,9.121,9.121,9.121,9.121,9.121,9.121,9.121,7.713,7.7323,7.7553,7.8361,7.9246,7.9823,7.9823,8.0554,8.1093,8.1093,8.1093,8.1093,8.1093,8.1093,8.1093,8.1093,8.1093,8.1093,8.1093,8.1093,8.1093,8.1093,8.1093,8.1093,8.1093,8.1093,8.1093,8.1093,8.19,8.2324,8.2324,8.3208,8.4055,8.4901,8.4901,8.5363,8.6094,8.6094,8.6094,8.6094,8.6094,8.6094,8.6094,8.6094,8.6094,8.6094,8.6094,8.6094,8.6094,8.6094,8.6094,8.6094,8.6094,8.6709,8.7401,8.7401,8.8017,8.8902,8.971,8.9902,8.9902,8.9902,8.9902,9.0133,9.1018,9.121,9.121,9.121,9.121,9.121,9.121,9.121,9.121,9.121,9.121,9.121,9.121,9.121,9.121,9.121,9.121,9.121,9.121,9.121,9.121,9.121,9.121,9.121,9.121,9.121,9.121,9.121,9.121,9.121,9.121,9.121,9.121,9.121,9.121,9.121,9.121,9.121,9.121,9.121,9.121,9.121,9.121,9.121,9.121,9.121,9.121,9.121,9.121,9.121,9.121,9.121,7.7246,7.8246,7.9131,7.9361,8.0131,8.0708,8.0708,8.0939,8.1093,8.1093,8.1093,8.1093,8.1093,8.1093,8.1093,8.1093,8.1093,8.1093,8.1093,8.1093,8.1093,8.1093,8.1093,8.1093,8.1093,8.1631,8.1939,8.1939,8.2785,8.3208,8.3208,8.4093,8.467,8.4939,8.5478,8.5901,8.6094,8.6094,8.6094,8.6094,8.6094,8.6094,8.6094,8.6094,8.6094,8.6094,8.6094,8.6094,8.6094,8.6094,8.6094,8.6209,8.6824,8.7171,8.7632,8.8825,8.9363,8.9748,9.0594,9.0825,9.0825,9.0825,9.0825,9.0902,9.1133,9.121,9.121,9.121,9.121,9.121,9.121,9.121,9.121,9.121,9.121,9.121,9.121,9.121,9.121,9.121,9.121,9.121,9.121,9.121,9.121,9.121,9.121,9.121,9.121,9.121,9.121,9.121,9.121,9.121,9.121,9.121,9.121,9.121,9.121,9.121,9.121,9.121,9.121,9.121,9.121,9.121,9.121,9.121,9.121,9.121,9.121,9.121,9.121,9.121,9.121,9.121,7.8169,7.9092,7.99,8.0246,8.0746,8.1093,8.1093,8.1093,8.1093,8.1093,8.1093,8.1093,8.1093,8.1093,8.1093,8.1093,8.1093,8.1093,8.1093,8.1093,8.1093,8.1093,8.14,8.1554,8.1554,8.2054,8.2477,8.2824,8.367,8.4093,8.4132,8.4978,8.5363,8.5401,8.5901,8.6094,8.6094,8.6094,8.6094,8.6094,8.6094,8.6094,8.6094,8.6094,8.6094,8.6094,8.6094,8.6094,8.6094,8.6094,8.6324,8.6709,8.7209,8.7863,8.8594,8.9594,9.0133,9.0517,9.1056,9.121,9.121,9.121,9.121,9.121,9.121,9.121,9.121,9.121,9.121,9.121,9.121,9.121,9.121,9.121,9.121,9.121,9.121,9.121,9.121,9.121,9.121,9.121,9.121,9.121,9.121,9.121,9.121,9.121,9.121,9.121,9.121,9.121,9.121,9.121,9.121,9.121,9.121,9.121,9.121,9.121,9.121,9.121,9.121,9.121,9.121,9.121,9.121,9.121,9.121,9.121,9.121,9.121,9.121,9.121,9.121,9.121,7.9515,7.9862,8.0169,8.0977,8.1093,8.1093,8.1093,8.1093,8.1093,8.1093,8.1093,8.1093,8.1093,8.1093,8.1093,8.1093,8.1093,8.1093,8.1093,8.1093,8.1131,8.1208,8.19,8.2362,8.2516,8.2516,8.2901,8.3708,8.4593,8.5016,8.5016,8.5747,8.6094,8.6094,8.6094,8.6094,8.6094,8.6094,8.6094,8.6094,8.6094,8.6094,8.6094,8.6094,8.6094,8.6094,8.6094,8.6094,8.6094,8.6094,8.6671,8.7401,8.7478,8.8594,8.994,8.9979,9.0594,9.121,9.121,9.121,9.121,9.121,9.121,9.121,9.121,9.121,9.121,9.121,9.121,9.121,9.121,9.121,9.121,9.121,9.121,9.121,9.121,9.121,9.121,9.121,9.121,9.121,9.121,9.121,9.121,9.121,9.121,9.121,9.121,9.121,9.121,9.121,9.121,9.121,9.121,9.121,9.121,9.121,9.121,9.121,9.121,9.121,9.121,9.121,9.121,9.121,9.121,9.121,9.121,9.121,9.121,9.121,9.121,9.121,9.121,9.121,7.9746,8.0362,8.09,8.1054,8.1093,8.1093,8.1093,8.1093,8.1093,8.1093,8.1093,8.1093,8.1093,8.1093,8.1093,8.1093,8.1093,8.1093,8.1093,8.1093,8.1362,8.2016,8.2208,8.2939,8.4324,8.4324,8.4439,8.4632,8.544,8.5863,8.5863,8.6017,8.6094,8.6094,8.6094,8.6094,8.6094,8.6094,8.6094,8.6094,8.6094,8.6094,8.6094,8.6094,8.6094,8.6094,8.6094,8.6094,8.6094,8.6094,8.6671,8.7517,8.8209,8.9094,9.0056,9.071,9.1056,9.121,9.121,9.121,9.121,9.121,9.121,9.121,9.121,9.121,9.121,9.121,9.121,9.121,9.121,9.121,9.121,9.121,9.121,9.121,9.121,9.121,9.121,9.121,9.121,9.121,9.121,9.121,9.121,9.121,9.121,9.121,9.121,9.121,9.121,9.121,9.121,9.121,9.121,9.121,9.121,9.121,9.121,9.121,9.121,9.121,9.121,9.121,9.121,9.121,9.121,9.121,9.121,9.121,9.121,9.121,9.121,9.121,9.121,9.121,8.0323,8.0785,8.1093,8.1093,8.1093,8.1093,8.1093,8.1093,8.1093,8.1093,8.1093,8.1093,8.1093,8.1093,8.1093,8.1093,8.1093,8.1093,8.1093,8.1477,8.1862,8.2285,8.3093,8.3978,8.4901,8.5286,8.5478,8.5478,8.5901,8.6094,8.6094,8.6094,8.6094,8.6094,8.6094,8.6094,8.6094,8.6094,8.6094,8.6094,8.6094,8.6094,8.6094,8.6094,8.6094,8.6094,8.6094,8.6094,8.617,8.6594,8.7286,8.8171,8.9017,8.9863,9.0633,9.1056,9.121,9.121,9.121,9.121,9.121,9.121,9.121,9.121,9.121,9.121,9.121,9.121,9.121,9.121,9.121,9.121,9.121,9.121,9.121,9.121,9.121,9.121,9.121,9.121,9.121,9.121,9.121,9.121,9.121,9.121,9.121,9.121,9.121,9.121,9.121,9.121,9.121,9.121,9.121,9.121,9.121,9.121,9.121,9.121,9.121,9.121,9.121,9.121,9.121,9.121,9.121,9.121,9.121,9.121,9.121,9.121,9.121,9.121,9.121,9.121,8.0977,8.1093,8.1093,8.1093,8.1093,8.1093,8.1093,8.1093,8.1093,8.1093,8.1093,8.1093,8.1093,8.1093,8.1093,8.1093,8.1093,8.117,8.1285,8.1939,8.2439,8.2747,8.4132,8.4978,8.5093,8.5747,8.6094,8.6094,8.6094,8.6094,8.6094,8.6094,8.6094,8.6094,8.6094,8.6094,8.6094,8.6094,8.6094,8.6094,8.6094,8.6094,8.6094,8.6094,8.6094,8.6094,8.6094,8.6209,8.644,8.7171,8.8055,8.9017,8.971,9.0517,9.121,9.121,9.121,9.121,9.121,9.121,9.121,9.121,9.121,9.121,9.121,9.121,9.121,9.121,9.121,9.121,9.121,9.121,9.121,9.121,9.121,9.121,9.121,9.121,9.121,9.121,9.121,9.121,9.121,9.121,9.121,9.121,9.121,9.121,9.121,9.121,9.121,9.121,9.121,9.121,9.121,9.121,9.121,9.121,9.121,9.121,9.121,9.121,9.121,9.121,9.121,9.121,9.121,9.121,9.121,9.121,9.121,9.121,9.121,9.121,9.121,9.121,8.1093,8.1093,8.1093,8.1093,8.1093,8.1093,8.1093,8.1093,8.1093,8.1093,8.1093,8.1093,8.1093,8.1093,8.1093,8.1093,8.1093,8.14,8.2093,8.2247,8.2978,8.4478,8.4786,8.5247,8.594,8.6055,8.6094,8.6094,8.6094,8.6094,8.6094,8.6094,8.6094,8.6094,8.6094,8.6094,8.6094,8.6094,8.6094,8.6094,8.6094,8.6094,8.6094,8.6094,8.6094,8.6094,8.6094,8.6594,8.7248,8.7363,8.844,8.9748,8.9863,9.0517,9.121,9.121,9.121,9.121,9.121,9.121,9.121,9.121,9.121,9.121,9.121,9.121,9.121,9.121,9.121,9.121,9.121,9.121,9.121,9.121,9.121,9.121,9.121,9.121,9.121,9.121,9.121,9.121,9.121,9.121,9.121,9.121,9.121,9.121,9.121,9.121,9.121,9.121,9.121,9.121,9.121,9.121,9.121,9.121,9.121,9.121,9.121,9.121,9.121,9.121,9.121,9.121,9.121,9.121,9.121,9.121,9.121,9.121,9.121,9.121,9.121,9.121,8.1093,8.1093,8.1093,8.1093,8.1093,8.1093,8.1093,8.1093,8.1093,8.1093,8.1093,8.1093,8.1093,8.1093,8.1093,8.1093,8.1516,8.19,8.2285,8.3208,8.4093,8.4863,8.5324,8.5747,8.6094,8.6094,8.6094,8.6094,8.6094,8.6094,8.6094,8.6094,8.6094,8.6094,8.6094,8.6094,8.6094,8.6094,8.6094,8.6094,8.6094,8.6094,8.6094,8.6094,8.6094,8.617,8.6632,8.7055,8.7555,8.8479,8.9286,8.9979,9.0479,9.0902,9.121,9.121,9.121,9.121,9.121,9.121,9.121,9.121,9.121,9.121,9.121,9.121,9.121,9.121,9.121,9.121,9.121,9.121,9.121,9.121,9.121,9.121,9.121,9.121,9.121,9.121,9.121,9.121,9.121,9.121,9.121,9.121,9.121,9.121,9.121,9.121,9.121,9.121,9.121,9.121,9.121,9.121,9.121,9.121,9.121,9.121,9.121,9.121,9.121,9.121,9.121,9.121,9.121,9.121,9.121,9.121,9.121,9.121,9.121,9.121,9.121,9.121]}]]